<?xml version="1.0" encoding="UTF-8" standalone="no" ?>
<gpx xmlns="http://www.topografix.com/GPX/1/1" xmlns:xsi="http://www.w3.org/2001/XMLSchema-instance" xsi:schemaLocation="http://www.topografix.com/GPX/1/1 http://www.topografix.com/GPX/1/1/gpx.xsd" version="1.1" creator="VisuGPX - https://www.visugpx.com">
  <metadata>
    <name>faisanderie-canche mercier \\\&quot;roulant\\\&quot;</name>
    <desc><![CDATA[A/R de la faisanderie à la canche mercier en passant par les gorges de franchard]]></desc>
  </metadata>
  <trk>
    <name><![CDATA[ACTIVE LOG 001]]></name>
    <trkseg>
      <trkpt lat="48.40456" lon="2.67792">
        <ele>83</ele>
        <time>2011-11-27T08:14:58Z</time>
      </trkpt>
      <trkpt lat="48.40456" lon="2.67792">
        <ele>83</ele>
        <time>2011-11-27T08:15:09Z</time>
      </trkpt>
      <trkpt lat="48.40455" lon="2.67789">
        <ele>83</ele>
        <time>2011-11-27T08:15:11Z</time>
      </trkpt>
      <trkpt lat="48.40466" lon="2.67791">
        <ele>84</ele>
        <time>2011-11-27T08:15:19Z</time>
      </trkpt>
      <trkpt lat="48.40506" lon="2.67768">
        <ele>85</ele>
        <time>2011-11-27T08:15:36Z</time>
      </trkpt>
      <trkpt lat="48.4055" lon="2.67765">
        <ele>86</ele>
        <time>2011-11-27T08:15:49Z</time>
      </trkpt>
      <trkpt lat="48.40572" lon="2.6779">
        <ele>86</ele>
        <time>2011-11-27T08:15:56Z</time>
      </trkpt>
      <trkpt lat="48.40624" lon="2.67814">
        <ele>87</ele>
        <time>2011-11-27T08:16:10Z</time>
      </trkpt>
      <trkpt lat="48.4072" lon="2.67843">
        <ele>90</ele>
        <time>2011-11-27T08:16:34Z</time>
      </trkpt>
      <trkpt lat="48.40754" lon="2.67868">
        <ele>93</ele>
        <time>2011-11-27T08:16:45Z</time>
      </trkpt>
      <trkpt lat="48.4077" lon="2.67895">
        <ele>93</ele>
        <time>2011-11-27T08:16:53Z</time>
      </trkpt>
      <trkpt lat="48.40807" lon="2.67908">
        <ele>93</ele>
        <time>2011-11-27T08:17:04Z</time>
      </trkpt>
      <trkpt lat="48.40846" lon="2.67921">
        <ele>94</ele>
        <time>2011-11-27T08:17:15Z</time>
      </trkpt>
      <trkpt lat="48.40892" lon="2.67934">
        <ele>93</ele>
        <time>2011-11-27T08:17:28Z</time>
      </trkpt>
      <trkpt lat="48.40902" lon="2.67908">
        <ele>93</ele>
        <time>2011-11-27T08:17:36Z</time>
      </trkpt>
      <trkpt lat="48.4091" lon="2.67849">
        <ele>93</ele>
        <time>2011-11-27T08:17:50Z</time>
      </trkpt>
      <trkpt lat="48.40912" lon="2.67806">
        <ele>94</ele>
        <time>2011-11-27T08:18:00Z</time>
      </trkpt>
      <trkpt lat="48.40912" lon="2.67799">
        <ele>94</ele>
        <time>2011-11-27T08:18:02Z</time>
      </trkpt>
      <trkpt lat="48.40913" lon="2.67763">
        <ele>95</ele>
        <time>2011-11-27T08:18:11Z</time>
      </trkpt>
      <trkpt lat="48.40916" lon="2.67754">
        <ele>95</ele>
        <time>2011-11-27T08:18:14Z</time>
      </trkpt>
      <trkpt lat="48.40921" lon="2.67693">
        <ele>96</ele>
        <time>2011-11-27T08:18:28Z</time>
      </trkpt>
      <trkpt lat="48.40932" lon="2.67676">
        <ele>96</ele>
        <time>2011-11-27T08:18:34Z</time>
      </trkpt>
      <trkpt lat="48.40941" lon="2.67649">
        <ele>97</ele>
        <time>2011-11-27T08:18:42Z</time>
      </trkpt>
      <trkpt lat="48.40948" lon="2.67637">
        <ele>97</ele>
        <time>2011-11-27T08:18:46Z</time>
      </trkpt>
      <trkpt lat="48.40967" lon="2.67587">
        <ele>98</ele>
        <time>2011-11-27T08:18:58Z</time>
      </trkpt>
      <trkpt lat="48.40977" lon="2.67566">
        <ele>100</ele>
        <time>2011-11-27T08:19:03Z</time>
      </trkpt>
      <trkpt lat="48.40993" lon="2.67516">
        <ele>102</ele>
        <time>2011-11-27T08:19:16Z</time>
      </trkpt>
      <trkpt lat="48.40994" lon="2.67507">
        <ele>102</ele>
        <time>2011-11-27T08:19:18Z</time>
      </trkpt>
      <trkpt lat="48.40985" lon="2.67457">
        <ele>105</ele>
        <time>2011-11-27T08:19:30Z</time>
      </trkpt>
      <trkpt lat="48.40978" lon="2.67426">
        <ele>106</ele>
        <time>2011-11-27T08:19:39Z</time>
      </trkpt>
      <trkpt lat="48.40968" lon="2.6738">
        <ele>110</ele>
        <time>2011-11-27T08:19:51Z</time>
      </trkpt>
      <trkpt lat="48.40964" lon="2.67358">
        <ele>111</ele>
        <time>2011-11-27T08:19:58Z</time>
      </trkpt>
      <trkpt lat="48.40957" lon="2.67347">
        <ele>112</ele>
        <time>2011-11-27T08:20:04Z</time>
      </trkpt>
      <trkpt lat="48.40948" lon="2.67339">
        <ele>112</ele>
        <time>2011-11-27T08:20:08Z</time>
      </trkpt>
      <trkpt lat="48.40945" lon="2.67335">
        <ele>113</ele>
        <time>2011-11-27T08:20:13Z</time>
      </trkpt>
      <trkpt lat="48.40943" lon="2.67336">
        <ele>113</ele>
        <time>2011-11-27T08:20:15Z</time>
      </trkpt>
      <trkpt lat="48.40942" lon="2.67335">
        <ele>113</ele>
        <time>2011-11-27T08:20:17Z</time>
      </trkpt>
      <trkpt lat="48.40927" lon="2.67337">
        <ele>115</ele>
        <time>2011-11-27T08:20:28Z</time>
      </trkpt>
      <trkpt lat="48.40924" lon="2.67331">
        <ele>118</ele>
        <time>2011-11-27T08:20:31Z</time>
      </trkpt>
      <trkpt lat="48.40916" lon="2.6732">
        <ele>119</ele>
        <time>2011-11-27T08:20:42Z</time>
      </trkpt>
      <trkpt lat="48.40904" lon="2.67308">
        <ele>119</ele>
        <time>2011-11-27T08:20:54Z</time>
      </trkpt>
      <trkpt lat="48.409" lon="2.67304">
        <ele>119</ele>
        <time>2011-11-27T08:20:58Z</time>
      </trkpt>
      <trkpt lat="48.40877" lon="2.67288">
        <ele>119</ele>
        <time>2011-11-27T08:21:11Z</time>
      </trkpt>
      <trkpt lat="48.40857" lon="2.6727">
        <ele>119</ele>
        <time>2011-11-27T08:21:21Z</time>
      </trkpt>
      <trkpt lat="48.40825" lon="2.67238">
        <ele>118</ele>
        <time>2011-11-27T08:21:33Z</time>
      </trkpt>
      <trkpt lat="48.40807" lon="2.67215">
        <ele>117</ele>
        <time>2011-11-27T08:21:41Z</time>
      </trkpt>
      <trkpt lat="48.408" lon="2.67207">
        <ele>117</ele>
        <time>2011-11-27T08:21:44Z</time>
      </trkpt>
      <trkpt lat="48.4079" lon="2.67174">
        <ele>117</ele>
        <time>2011-11-27T08:21:52Z</time>
      </trkpt>
      <trkpt lat="48.40789" lon="2.67159">
        <ele>120</ele>
        <time>2011-11-27T08:21:56Z</time>
      </trkpt>
      <trkpt lat="48.40782" lon="2.67111">
        <ele>121</ele>
        <time>2011-11-27T08:22:04Z</time>
      </trkpt>
      <trkpt lat="48.40767" lon="2.67017">
        <ele>124</ele>
        <time>2011-11-27T08:22:16Z</time>
      </trkpt>
      <trkpt lat="48.4076" lon="2.66975">
        <ele>127</ele>
        <time>2011-11-27T08:22:22Z</time>
      </trkpt>
      <trkpt lat="48.40745" lon="2.6693">
        <ele>124</ele>
        <time>2011-11-27T08:22:29Z</time>
      </trkpt>
      <trkpt lat="48.40743" lon="2.66897">
        <ele>124</ele>
        <time>2011-11-27T08:22:33Z</time>
      </trkpt>
      <trkpt lat="48.40738" lon="2.66873">
        <ele>122</ele>
        <time>2011-11-27T08:22:36Z</time>
      </trkpt>
      <trkpt lat="48.40737" lon="2.66847">
        <ele>124</ele>
        <time>2011-11-27T08:22:39Z</time>
      </trkpt>
      <trkpt lat="48.40734" lon="2.66834">
        <ele>124</ele>
        <time>2011-11-27T08:22:41Z</time>
      </trkpt>
      <trkpt lat="48.4074" lon="2.66782">
        <ele>122</ele>
        <time>2011-11-27T08:22:50Z</time>
      </trkpt>
      <trkpt lat="48.40747" lon="2.66758">
        <ele>125</ele>
        <time>2011-11-27T08:22:54Z</time>
      </trkpt>
      <trkpt lat="48.40753" lon="2.66749">
        <ele>127</ele>
        <time>2011-11-27T08:22:56Z</time>
      </trkpt>
      <trkpt lat="48.40757" lon="2.66676">
        <ele>129</ele>
        <time>2011-11-27T08:23:08Z</time>
      </trkpt>
      <trkpt lat="48.40756" lon="2.66663">
        <ele>129</ele>
        <time>2011-11-27T08:23:10Z</time>
      </trkpt>
      <trkpt lat="48.4076" lon="2.66634">
        <ele>131</ele>
        <time>2011-11-27T08:23:14Z</time>
      </trkpt>
      <trkpt lat="48.40792" lon="2.66566">
        <ele>134</ele>
        <time>2011-11-27T08:23:27Z</time>
      </trkpt>
      <trkpt lat="48.40805" lon="2.66515">
        <ele>135</ele>
        <time>2011-11-27T08:23:39Z</time>
      </trkpt>
      <trkpt lat="48.40805" lon="2.66509">
        <ele>135</ele>
        <time>2011-11-27T08:23:47Z</time>
      </trkpt>
      <trkpt lat="48.40805" lon="2.66504">
        <ele>135</ele>
        <time>2011-11-27T08:23:50Z</time>
      </trkpt>
      <trkpt lat="48.40805" lon="2.66492">
        <ele>135</ele>
        <time>2011-11-27T08:23:54Z</time>
      </trkpt>
      <trkpt lat="48.40802" lon="2.66448">
        <ele>135</ele>
        <time>2011-11-27T08:24:05Z</time>
      </trkpt>
      <trkpt lat="48.40804" lon="2.66395">
        <ele>136</ele>
        <time>2011-11-27T08:24:16Z</time>
      </trkpt>
      <trkpt lat="48.40804" lon="2.66341">
        <ele>136</ele>
        <time>2011-11-27T08:24:26Z</time>
      </trkpt>
      <trkpt lat="48.40804" lon="2.66321">
        <ele>136</ele>
        <time>2011-11-27T08:24:30Z</time>
      </trkpt>
      <trkpt lat="48.40806" lon="2.66255">
        <ele>136</ele>
        <time>2011-11-27T08:24:43Z</time>
      </trkpt>
      <trkpt lat="48.40805" lon="2.66245">
        <ele>135</ele>
        <time>2011-11-27T08:24:45Z</time>
      </trkpt>
      <trkpt lat="48.4079" lon="2.66183">
        <ele>133</ele>
        <time>2011-11-27T08:24:56Z</time>
      </trkpt>
      <trkpt lat="48.40771" lon="2.66126">
        <ele>132</ele>
        <time>2011-11-27T08:25:05Z</time>
      </trkpt>
      <trkpt lat="48.40768" lon="2.66104">
        <ele>131</ele>
        <time>2011-11-27T08:25:08Z</time>
      </trkpt>
      <trkpt lat="48.40762" lon="2.66059">
        <ele>131</ele>
        <time>2011-11-27T08:25:13Z</time>
      </trkpt>
      <trkpt lat="48.40755" lon="2.65987">
        <ele>130</ele>
        <time>2011-11-27T08:25:21Z</time>
      </trkpt>
      <trkpt lat="48.40756" lon="2.65961">
        <ele>131</ele>
        <time>2011-11-27T08:25:24Z</time>
      </trkpt>
      <trkpt lat="48.40757" lon="2.65924">
        <ele>129</ele>
        <time>2011-11-27T08:25:28Z</time>
      </trkpt>
      <trkpt lat="48.40758" lon="2.65885">
        <ele>130</ele>
        <time>2011-11-27T08:25:32Z</time>
      </trkpt>
      <trkpt lat="48.40764" lon="2.65855">
        <ele>129</ele>
        <time>2011-11-27T08:25:36Z</time>
      </trkpt>
      <trkpt lat="48.40776" lon="2.65815">
        <ele>129</ele>
        <time>2011-11-27T08:25:42Z</time>
      </trkpt>
      <trkpt lat="48.40783" lon="2.65762">
        <ele>129</ele>
        <time>2011-11-27T08:25:49Z</time>
      </trkpt>
      <trkpt lat="48.40783" lon="2.65738">
        <ele>129</ele>
        <time>2011-11-27T08:25:52Z</time>
      </trkpt>
      <trkpt lat="48.40798" lon="2.65666">
        <ele>132</ele>
        <time>2011-11-27T08:26:03Z</time>
      </trkpt>
      <trkpt lat="48.40797" lon="2.65613">
        <ele>132</ele>
        <time>2011-11-27T08:26:09Z</time>
      </trkpt>
      <trkpt lat="48.40794" lon="2.65586">
        <ele>132</ele>
        <time>2011-11-27T08:26:12Z</time>
      </trkpt>
      <trkpt lat="48.40783" lon="2.6556">
        <ele>132</ele>
        <time>2011-11-27T08:26:16Z</time>
      </trkpt>
      <trkpt lat="48.40768" lon="2.65534">
        <ele>132</ele>
        <time>2011-11-27T08:26:20Z</time>
      </trkpt>
      <trkpt lat="48.40762" lon="2.65521">
        <ele>132</ele>
        <time>2011-11-27T08:26:22Z</time>
      </trkpt>
      <trkpt lat="48.40763" lon="2.65478">
        <ele>132</ele>
        <time>2011-11-27T08:26:28Z</time>
      </trkpt>
      <trkpt lat="48.4077" lon="2.65465">
        <ele>132</ele>
        <time>2011-11-27T08:26:30Z</time>
      </trkpt>
      <trkpt lat="48.40779" lon="2.65404">
        <ele>131</ele>
        <time>2011-11-27T08:26:38Z</time>
      </trkpt>
      <trkpt lat="48.40781" lon="2.65342">
        <ele>131</ele>
        <time>2011-11-27T08:26:46Z</time>
      </trkpt>
      <trkpt lat="48.40782" lon="2.65279">
        <ele>131</ele>
        <time>2011-11-27T08:26:54Z</time>
      </trkpt>
      <trkpt lat="48.40787" lon="2.6524">
        <ele>129</ele>
        <time>2011-11-27T08:26:58Z</time>
      </trkpt>
      <trkpt lat="48.40783" lon="2.65192">
        <ele>128</ele>
        <time>2011-11-27T08:27:03Z</time>
      </trkpt>
      <trkpt lat="48.4079" lon="2.65155">
        <ele>126</ele>
        <time>2011-11-27T08:27:09Z</time>
      </trkpt>
      <trkpt lat="48.40782" lon="2.65134">
        <ele>126</ele>
        <time>2011-11-27T08:27:12Z</time>
      </trkpt>
      <trkpt lat="48.4076" lon="2.65109">
        <ele>124</ele>
        <time>2011-11-27T08:27:16Z</time>
      </trkpt>
      <trkpt lat="48.40735" lon="2.65077">
        <ele>119</ele>
        <time>2011-11-27T08:27:20Z</time>
      </trkpt>
      <trkpt lat="48.4072" lon="2.6505">
        <ele>118</ele>
        <time>2011-11-27T08:27:23Z</time>
      </trkpt>
      <trkpt lat="48.40712" lon="2.65022">
        <ele>118</ele>
        <time>2011-11-27T08:27:26Z</time>
      </trkpt>
      <trkpt lat="48.40697" lon="2.6499">
        <ele>119</ele>
        <time>2011-11-27T08:27:33Z</time>
      </trkpt>
      <trkpt lat="48.40681" lon="2.64962">
        <ele>119</ele>
        <time>2011-11-27T08:27:45Z</time>
      </trkpt>
      <trkpt lat="48.40677" lon="2.64958">
        <ele>119</ele>
        <time>2011-11-27T08:27:46Z</time>
      </trkpt>
      <trkpt lat="48.40666" lon="2.64945">
        <ele>116</ele>
        <time>2011-11-27T08:27:50Z</time>
      </trkpt>
      <trkpt lat="48.40663" lon="2.64915">
        <ele>119</ele>
        <time>2011-11-27T08:27:56Z</time>
      </trkpt>
      <trkpt lat="48.40662" lon="2.64897">
        <ele>118</ele>
        <time>2011-11-27T08:28:00Z</time>
      </trkpt>
      <trkpt lat="48.40661" lon="2.64889">
        <ele>118</ele>
        <time>2011-11-27T08:28:02Z</time>
      </trkpt>
      <trkpt lat="48.40657" lon="2.64858">
        <ele>119</ele>
        <time>2011-11-27T08:28:11Z</time>
      </trkpt>
      <trkpt lat="48.40638" lon="2.64819">
        <ele>120</ele>
        <time>2011-11-27T08:28:23Z</time>
      </trkpt>
      <trkpt lat="48.40619" lon="2.64808">
        <ele>120</ele>
        <time>2011-11-27T08:28:33Z</time>
      </trkpt>
      <trkpt lat="48.40594" lon="2.64794">
        <ele>119</ele>
        <time>2011-11-27T08:28:43Z</time>
      </trkpt>
      <trkpt lat="48.4057" lon="2.64783">
        <ele>119</ele>
        <time>2011-11-27T08:28:51Z</time>
      </trkpt>
      <trkpt lat="48.40537" lon="2.64776">
        <ele>120</ele>
        <time>2011-11-27T08:29:03Z</time>
      </trkpt>
      <trkpt lat="48.40509" lon="2.64774">
        <ele>121</ele>
        <time>2011-11-27T08:29:13Z</time>
      </trkpt>
      <trkpt lat="48.40505" lon="2.64768">
        <ele>121</ele>
        <time>2011-11-27T08:29:18Z</time>
      </trkpt>
      <trkpt lat="48.40477" lon="2.6475">
        <ele>127</ele>
        <time>2011-11-27T08:29:32Z</time>
      </trkpt>
      <trkpt lat="48.40455" lon="2.64737">
        <ele>129</ele>
        <time>2011-11-27T08:29:48Z</time>
      </trkpt>
      <trkpt lat="48.4045" lon="2.6473">
        <ele>129</ele>
        <time>2011-11-27T08:29:53Z</time>
      </trkpt>
      <trkpt lat="48.40444" lon="2.64729">
        <ele>129</ele>
        <time>2011-11-27T08:29:56Z</time>
      </trkpt>
      <trkpt lat="48.40438" lon="2.64719">
        <ele>129</ele>
        <time>2011-11-27T08:30:10Z</time>
      </trkpt>
      <trkpt lat="48.40436" lon="2.64717">
        <ele>129</ele>
        <time>2011-11-27T08:30:14Z</time>
      </trkpt>
      <trkpt lat="48.40433" lon="2.64711">
        <ele>129</ele>
        <time>2011-11-27T08:30:16Z</time>
      </trkpt>
      <trkpt lat="48.40428" lon="2.64705">
        <ele>130</ele>
        <time>2011-11-27T08:30:20Z</time>
      </trkpt>
      <trkpt lat="48.40405" lon="2.64681">
        <ele>129</ele>
        <time>2011-11-27T08:30:36Z</time>
      </trkpt>
      <trkpt lat="48.40401" lon="2.64676">
        <ele>129</ele>
        <time>2011-11-27T08:30:38Z</time>
      </trkpt>
      <trkpt lat="48.40398" lon="2.64675">
        <ele>129</ele>
        <time>2011-11-27T08:30:50Z</time>
      </trkpt>
      <trkpt lat="48.40398" lon="2.64672">
        <ele>129</ele>
        <time>2011-11-27T08:35:34Z</time>
      </trkpt>
      <trkpt lat="48.40394" lon="2.64663">
        <ele>129</ele>
        <time>2011-11-27T08:35:38Z</time>
      </trkpt>
      <trkpt lat="48.40369" lon="2.64619">
        <ele>127</ele>
        <time>2011-11-27T08:35:50Z</time>
      </trkpt>
      <trkpt lat="48.40365" lon="2.64555">
        <ele>126</ele>
        <time>2011-11-27T08:36:04Z</time>
      </trkpt>
      <trkpt lat="48.4036" lon="2.64538">
        <ele>125</ele>
        <time>2011-11-27T08:36:08Z</time>
      </trkpt>
      <trkpt lat="48.40357" lon="2.64532">
        <ele>125</ele>
        <time>2011-11-27T08:36:10Z</time>
      </trkpt>
      <trkpt lat="48.40359" lon="2.64522">
        <ele>125</ele>
        <time>2011-11-27T08:36:15Z</time>
      </trkpt>
      <trkpt lat="48.40366" lon="2.64513">
        <ele>125</ele>
        <time>2011-11-27T08:36:26Z</time>
      </trkpt>
      <trkpt lat="48.40371" lon="2.64505">
        <ele>126</ele>
        <time>2011-11-27T08:36:45Z</time>
      </trkpt>
      <trkpt lat="48.40377" lon="2.64488">
        <ele>126</ele>
        <time>2011-11-27T08:37:01Z</time>
      </trkpt>
      <trkpt lat="48.40389" lon="2.64477">
        <ele>127</ele>
        <time>2011-11-27T08:37:17Z</time>
      </trkpt>
      <trkpt lat="48.4039" lon="2.64478">
        <ele>128</ele>
        <time>2011-11-27T08:37:21Z</time>
      </trkpt>
      <trkpt lat="48.404" lon="2.64457">
        <ele>128</ele>
        <time>2011-11-27T08:37:31Z</time>
      </trkpt>
      <trkpt lat="48.40403" lon="2.64442">
        <ele>128</ele>
        <time>2011-11-27T08:37:37Z</time>
      </trkpt>
      <trkpt lat="48.40409" lon="2.64431">
        <ele>129</ele>
        <time>2011-11-27T08:37:41Z</time>
      </trkpt>
      <trkpt lat="48.40418" lon="2.64432">
        <ele>132</ele>
        <time>2011-11-27T08:37:45Z</time>
      </trkpt>
      <trkpt lat="48.40433" lon="2.64428">
        <ele>132</ele>
        <time>2011-11-27T08:37:49Z</time>
      </trkpt>
      <trkpt lat="48.40446" lon="2.6442">
        <ele>132</ele>
        <time>2011-11-27T08:37:52Z</time>
      </trkpt>
      <trkpt lat="48.40469" lon="2.6439">
        <ele>131</ele>
        <time>2011-11-27T08:37:57Z</time>
      </trkpt>
      <trkpt lat="48.40476" lon="2.64371">
        <ele>131</ele>
        <time>2011-11-27T08:38:01Z</time>
      </trkpt>
      <trkpt lat="48.40475" lon="2.64363">
        <ele>131</ele>
        <time>2011-11-27T08:38:04Z</time>
      </trkpt>
      <trkpt lat="48.40473" lon="2.64354">
        <ele>131</ele>
        <time>2011-11-27T08:38:07Z</time>
      </trkpt>
      <trkpt lat="48.40463" lon="2.64301">
        <ele>131</ele>
        <time>2011-11-27T08:38:18Z</time>
      </trkpt>
      <trkpt lat="48.40454" lon="2.64232">
        <ele>131</ele>
        <time>2011-11-27T08:38:32Z</time>
      </trkpt>
      <trkpt lat="48.40449" lon="2.6419">
        <ele>132</ele>
        <time>2011-11-27T08:38:43Z</time>
      </trkpt>
      <trkpt lat="48.40466" lon="2.64122">
        <ele>133</ele>
        <time>2011-11-27T08:39:00Z</time>
      </trkpt>
      <trkpt lat="48.40462" lon="2.64069">
        <ele>133</ele>
        <time>2011-11-27T08:39:13Z</time>
      </trkpt>
      <trkpt lat="48.40452" lon="2.64011">
        <ele>133</ele>
        <time>2011-11-27T08:39:25Z</time>
      </trkpt>
      <trkpt lat="48.40452" lon="2.63951">
        <ele>134</ele>
        <time>2011-11-27T08:39:37Z</time>
      </trkpt>
      <trkpt lat="48.40465" lon="2.63904">
        <ele>135</ele>
        <time>2011-11-27T08:39:47Z</time>
      </trkpt>
      <trkpt lat="48.40467" lon="2.63901">
        <ele>134</ele>
        <time>2011-11-27T08:39:48Z</time>
      </trkpt>
      <trkpt lat="48.40479" lon="2.63901">
        <ele>134</ele>
        <time>2011-11-27T08:39:52Z</time>
      </trkpt>
      <trkpt lat="48.40491" lon="2.63909">
        <ele>134</ele>
        <time>2011-11-27T08:39:56Z</time>
      </trkpt>
      <trkpt lat="48.40503" lon="2.63913">
        <ele>133</ele>
        <time>2011-11-27T08:39:59Z</time>
      </trkpt>
      <trkpt lat="48.40522" lon="2.63947">
        <ele>133</ele>
        <time>2011-11-27T08:40:07Z</time>
      </trkpt>
      <trkpt lat="48.40555" lon="2.6398">
        <ele>134</ele>
        <time>2011-11-27T08:40:16Z</time>
      </trkpt>
      <trkpt lat="48.40572" lon="2.63989">
        <ele>134</ele>
        <time>2011-11-27T08:40:20Z</time>
      </trkpt>
      <trkpt lat="48.40587" lon="2.64004">
        <ele>134</ele>
        <time>2011-11-27T08:40:24Z</time>
      </trkpt>
      <trkpt lat="48.40607" lon="2.64023">
        <ele>135</ele>
        <time>2011-11-27T08:40:30Z</time>
      </trkpt>
      <trkpt lat="48.40643" lon="2.64061">
        <ele>135</ele>
        <time>2011-11-27T08:40:41Z</time>
      </trkpt>
      <trkpt lat="48.40651" lon="2.64071">
        <ele>136</ele>
        <time>2011-11-27T08:40:43Z</time>
      </trkpt>
      <trkpt lat="48.40682" lon="2.64097">
        <ele>136</ele>
        <time>2011-11-27T08:40:53Z</time>
      </trkpt>
      <trkpt lat="48.40688" lon="2.641">
        <ele>136</ele>
        <time>2011-11-27T08:40:55Z</time>
      </trkpt>
      <trkpt lat="48.40695" lon="2.64096">
        <ele>136</ele>
        <time>2011-11-27T08:40:59Z</time>
      </trkpt>
      <trkpt lat="48.40702" lon="2.64072">
        <ele>136</ele>
        <time>2011-11-27T08:41:05Z</time>
      </trkpt>
      <trkpt lat="48.40706" lon="2.6407">
        <ele>136</ele>
        <time>2011-11-27T08:41:07Z</time>
      </trkpt>
      <trkpt lat="48.40726" lon="2.64043">
        <ele>136</ele>
        <time>2011-11-27T08:41:17Z</time>
      </trkpt>
      <trkpt lat="48.40735" lon="2.64037">
        <ele>136</ele>
        <time>2011-11-27T08:41:21Z</time>
      </trkpt>
      <trkpt lat="48.40763" lon="2.64007">
        <ele>137</ele>
        <time>2011-11-27T08:41:33Z</time>
      </trkpt>
      <trkpt lat="48.40769" lon="2.63999">
        <ele>137</ele>
        <time>2011-11-27T08:41:36Z</time>
      </trkpt>
      <trkpt lat="48.40773" lon="2.63993">
        <ele>137</ele>
        <time>2011-11-27T08:41:38Z</time>
      </trkpt>
      <trkpt lat="48.40814" lon="2.63945">
        <ele>137</ele>
        <time>2011-11-27T08:41:53Z</time>
      </trkpt>
      <trkpt lat="48.40833" lon="2.63919">
        <ele>138</ele>
        <time>2011-11-27T08:42:02Z</time>
      </trkpt>
      <trkpt lat="48.40849" lon="2.63917">
        <ele>138</ele>
        <time>2011-11-27T08:42:08Z</time>
      </trkpt>
      <trkpt lat="48.40879" lon="2.6391">
        <ele>139</ele>
        <time>2011-11-27T08:42:20Z</time>
      </trkpt>
      <trkpt lat="48.40869" lon="2.63857">
        <ele>139</ele>
        <time>2011-11-27T08:42:32Z</time>
      </trkpt>
      <trkpt lat="48.40868" lon="2.63798">
        <ele>139</ele>
        <time>2011-11-27T08:42:45Z</time>
      </trkpt>
      <trkpt lat="48.40845" lon="2.63791">
        <ele>139</ele>
        <time>2011-11-27T08:42:52Z</time>
      </trkpt>
      <trkpt lat="48.4083" lon="2.63783">
        <ele>136</ele>
        <time>2011-11-27T08:42:56Z</time>
      </trkpt>
      <trkpt lat="48.40821" lon="2.63771">
        <ele>136</ele>
        <time>2011-11-27T08:42:59Z</time>
      </trkpt>
      <trkpt lat="48.40797" lon="2.63756">
        <ele>136</ele>
        <time>2011-11-27T08:43:06Z</time>
      </trkpt>
      <trkpt lat="48.40788" lon="2.63761">
        <ele>136</ele>
        <time>2011-11-27T08:43:09Z</time>
      </trkpt>
      <trkpt lat="48.40766" lon="2.63757">
        <ele>136</ele>
        <time>2011-11-27T08:43:14Z</time>
      </trkpt>
      <trkpt lat="48.40743" lon="2.63727">
        <ele>135</ele>
        <time>2011-11-27T08:43:22Z</time>
      </trkpt>
      <trkpt lat="48.40731" lon="2.63707">
        <ele>135</ele>
        <time>2011-11-27T08:43:30Z</time>
      </trkpt>
      <trkpt lat="48.40723" lon="2.63677">
        <ele>135</ele>
        <time>2011-11-27T08:43:41Z</time>
      </trkpt>
      <trkpt lat="48.40712" lon="2.63652">
        <ele>136</ele>
        <time>2011-11-27T08:43:48Z</time>
      </trkpt>
      <trkpt lat="48.40703" lon="2.63647">
        <ele>136</ele>
        <time>2011-11-27T08:43:52Z</time>
      </trkpt>
      <trkpt lat="48.40697" lon="2.63642">
        <ele>136</ele>
        <time>2011-11-27T08:43:55Z</time>
      </trkpt>
      <trkpt lat="48.40695" lon="2.63637">
        <ele>136</ele>
        <time>2011-11-27T08:43:57Z</time>
      </trkpt>
      <trkpt lat="48.40697" lon="2.63629">
        <ele>136</ele>
        <time>2011-11-27T08:44:00Z</time>
      </trkpt>
      <trkpt lat="48.40687" lon="2.63615">
        <ele>137</ele>
        <time>2011-11-27T08:44:05Z</time>
      </trkpt>
      <trkpt lat="48.40652" lon="2.63605">
        <ele>136</ele>
        <time>2011-11-27T08:44:16Z</time>
      </trkpt>
      <trkpt lat="48.40611" lon="2.63606">
        <ele>136</ele>
        <time>2011-11-27T08:44:29Z</time>
      </trkpt>
      <trkpt lat="48.40571" lon="2.63582">
        <ele>136</ele>
        <time>2011-11-27T08:44:42Z</time>
      </trkpt>
      <trkpt lat="48.40551" lon="2.63546">
        <ele>137</ele>
        <time>2011-11-27T08:44:52Z</time>
      </trkpt>
      <trkpt lat="48.40543" lon="2.6354">
        <ele>137</ele>
        <time>2011-11-27T08:44:56Z</time>
      </trkpt>
      <trkpt lat="48.40543" lon="2.63528">
        <ele>137</ele>
        <time>2011-11-27T08:45:01Z</time>
      </trkpt>
      <trkpt lat="48.40548" lon="2.63515">
        <ele>137</ele>
        <time>2011-11-27T08:45:05Z</time>
      </trkpt>
      <trkpt lat="48.40554" lon="2.6348">
        <ele>136</ele>
        <time>2011-11-27T08:45:13Z</time>
      </trkpt>
      <trkpt lat="48.40557" lon="2.63462">
        <ele>136</ele>
        <time>2011-11-27T08:45:17Z</time>
      </trkpt>
      <trkpt lat="48.40559" lon="2.63454">
        <ele>136</ele>
        <time>2011-11-27T08:45:19Z</time>
      </trkpt>
      <trkpt lat="48.40555" lon="2.6342">
        <ele>136</ele>
        <time>2011-11-27T08:45:28Z</time>
      </trkpt>
      <trkpt lat="48.40558" lon="2.63413">
        <ele>135</ele>
        <time>2011-11-27T08:45:31Z</time>
      </trkpt>
      <trkpt lat="48.40563" lon="2.63393">
        <ele>135</ele>
        <time>2011-11-27T08:45:37Z</time>
      </trkpt>
      <trkpt lat="48.40569" lon="2.63385">
        <ele>135</ele>
        <time>2011-11-27T08:45:41Z</time>
      </trkpt>
      <trkpt lat="48.40584" lon="2.63366">
        <ele>136</ele>
        <time>2011-11-27T08:45:48Z</time>
      </trkpt>
      <trkpt lat="48.40585" lon="2.6336">
        <ele>136</ele>
        <time>2011-11-27T08:45:50Z</time>
      </trkpt>
      <trkpt lat="48.40591" lon="2.63353">
        <ele>136</ele>
        <time>2011-11-27T08:45:53Z</time>
      </trkpt>
      <trkpt lat="48.40598" lon="2.63325">
        <ele>135</ele>
        <time>2011-11-27T08:45:59Z</time>
      </trkpt>
      <trkpt lat="48.40608" lon="2.63292">
        <ele>135</ele>
        <time>2011-11-27T08:46:06Z</time>
      </trkpt>
      <trkpt lat="48.40611" lon="2.63247">
        <ele>134</ele>
        <time>2011-11-27T08:46:16Z</time>
      </trkpt>
      <trkpt lat="48.40616" lon="2.63224">
        <ele>134</ele>
        <time>2011-11-27T08:46:22Z</time>
      </trkpt>
      <trkpt lat="48.40619" lon="2.63216">
        <ele>134</ele>
        <time>2011-11-27T08:46:24Z</time>
      </trkpt>
      <trkpt lat="48.4062" lon="2.63208">
        <ele>134</ele>
        <time>2011-11-27T08:46:26Z</time>
      </trkpt>
      <trkpt lat="48.40612" lon="2.63194">
        <ele>134</ele>
        <time>2011-11-27T08:46:31Z</time>
      </trkpt>
      <trkpt lat="48.40605" lon="2.63189">
        <ele>134</ele>
        <time>2011-11-27T08:46:35Z</time>
      </trkpt>
      <trkpt lat="48.40607" lon="2.63181">
        <ele>134</ele>
        <time>2011-11-27T08:46:37Z</time>
      </trkpt>
      <trkpt lat="48.40613" lon="2.63169">
        <ele>134</ele>
        <time>2011-11-27T08:46:40Z</time>
      </trkpt>
      <trkpt lat="48.40619" lon="2.63147">
        <ele>133</ele>
        <time>2011-11-27T08:46:46Z</time>
      </trkpt>
      <trkpt lat="48.40628" lon="2.63144">
        <ele>133</ele>
        <time>2011-11-27T08:46:51Z</time>
      </trkpt>
      <trkpt lat="48.40633" lon="2.63141">
        <ele>133</ele>
        <time>2011-11-27T08:46:54Z</time>
      </trkpt>
      <trkpt lat="48.40636" lon="2.63146">
        <ele>133</ele>
        <time>2011-11-27T08:47:03Z</time>
      </trkpt>
      <trkpt lat="48.40643" lon="2.63149">
        <ele>133</ele>
        <time>2011-11-27T08:47:14Z</time>
      </trkpt>
      <trkpt lat="48.40645" lon="2.63149">
        <ele>133</ele>
        <time>2011-11-27T08:47:16Z</time>
      </trkpt>
      <trkpt lat="48.40649" lon="2.63152">
        <ele>133</ele>
        <time>2011-11-27T08:47:19Z</time>
      </trkpt>
      <trkpt lat="48.40655" lon="2.63145">
        <ele>133</ele>
        <time>2011-11-27T08:47:23Z</time>
      </trkpt>
      <trkpt lat="48.40668" lon="2.63134">
        <ele>133</ele>
        <time>2011-11-27T08:47:36Z</time>
      </trkpt>
      <trkpt lat="48.40669" lon="2.63134">
        <ele>133</ele>
        <time>2011-11-27T08:47:42Z</time>
      </trkpt>
      <trkpt lat="48.40688" lon="2.63147">
        <ele>133</ele>
        <time>2011-11-27T08:47:55Z</time>
      </trkpt>
      <trkpt lat="48.40704" lon="2.63154">
        <ele>133</ele>
        <time>2011-11-27T08:48:04Z</time>
      </trkpt>
      <trkpt lat="48.40712" lon="2.63154">
        <ele>133</ele>
        <time>2011-11-27T08:48:08Z</time>
      </trkpt>
      <trkpt lat="48.40718" lon="2.63149">
        <ele>133</ele>
        <time>2011-11-27T08:48:14Z</time>
      </trkpt>
      <trkpt lat="48.40721" lon="2.63151">
        <ele>133</ele>
        <time>2011-11-27T08:48:16Z</time>
      </trkpt>
      <trkpt lat="48.40748" lon="2.63142">
        <ele>133</ele>
        <time>2011-11-27T08:48:29Z</time>
      </trkpt>
      <trkpt lat="48.4075" lon="2.63142">
        <ele>133</ele>
        <time>2011-11-27T08:48:30Z</time>
      </trkpt>
      <trkpt lat="48.40764" lon="2.63126">
        <ele>133</ele>
        <time>2011-11-27T08:48:41Z</time>
      </trkpt>
      <trkpt lat="48.40782" lon="2.63112">
        <ele>133</ele>
        <time>2011-11-27T08:48:51Z</time>
      </trkpt>
      <trkpt lat="48.40792" lon="2.63103">
        <ele>133</ele>
        <time>2011-11-27T08:49:02Z</time>
      </trkpt>
      <trkpt lat="48.40793" lon="2.63104">
        <ele>133</ele>
        <time>2011-11-27T08:49:09Z</time>
      </trkpt>
      <trkpt lat="48.40798" lon="2.63108">
        <ele>133</ele>
        <time>2011-11-27T08:49:13Z</time>
      </trkpt>
      <trkpt lat="48.40817" lon="2.63096">
        <ele>134</ele>
        <time>2011-11-27T08:49:24Z</time>
      </trkpt>
      <trkpt lat="48.40824" lon="2.63086">
        <ele>134</ele>
        <time>2011-11-27T08:49:29Z</time>
      </trkpt>
      <trkpt lat="48.40853" lon="2.63076">
        <ele>134</ele>
        <time>2011-11-27T08:49:39Z</time>
      </trkpt>
      <trkpt lat="48.4087" lon="2.63071">
        <ele>134</ele>
        <time>2011-11-27T08:49:48Z</time>
      </trkpt>
      <trkpt lat="48.40868" lon="2.6307">
        <ele>134</ele>
        <time>2011-11-27T08:49:51Z</time>
      </trkpt>
      <trkpt lat="48.40863" lon="2.63063">
        <ele>134</ele>
        <time>2011-11-27T08:49:56Z</time>
      </trkpt>
      <trkpt lat="48.40855" lon="2.63049">
        <ele>134</ele>
        <time>2011-11-27T08:50:06Z</time>
      </trkpt>
      <trkpt lat="48.40851" lon="2.63045">
        <ele>134</ele>
        <time>2011-11-27T08:50:09Z</time>
      </trkpt>
      <trkpt lat="48.40848" lon="2.63035">
        <ele>134</ele>
        <time>2011-11-27T08:50:13Z</time>
      </trkpt>
      <trkpt lat="48.40845" lon="2.63023">
        <ele>133</ele>
        <time>2011-11-27T08:50:17Z</time>
      </trkpt>
      <trkpt lat="48.40843" lon="2.63012">
        <ele>133</ele>
        <time>2011-11-27T08:50:23Z</time>
      </trkpt>
      <trkpt lat="48.40844" lon="2.63008">
        <ele>133</ele>
        <time>2011-11-27T08:50:26Z</time>
      </trkpt>
      <trkpt lat="48.40847" lon="2.63005">
        <ele>133</ele>
        <time>2011-11-27T08:50:30Z</time>
      </trkpt>
      <trkpt lat="48.40875" lon="2.63012">
        <ele>134</ele>
        <time>2011-11-27T08:50:43Z</time>
      </trkpt>
      <trkpt lat="48.40878" lon="2.63017">
        <ele>134</ele>
        <time>2011-11-27T08:50:45Z</time>
      </trkpt>
      <trkpt lat="48.40885" lon="2.63021">
        <ele>134</ele>
        <time>2011-11-27T08:50:58Z</time>
      </trkpt>
      <trkpt lat="48.40885" lon="2.63021">
        <ele>134</ele>
        <time>2011-11-27T08:51:03Z</time>
      </trkpt>
      <trkpt lat="48.40879" lon="2.63016">
        <ele>134</ele>
        <time>2011-11-27T08:51:06Z</time>
      </trkpt>
      <trkpt lat="48.40877" lon="2.63004">
        <ele>134</ele>
        <time>2011-11-27T08:51:10Z</time>
      </trkpt>
      <trkpt lat="48.40883" lon="2.62995">
        <ele>131</ele>
        <time>2011-11-27T08:51:20Z</time>
      </trkpt>
      <trkpt lat="48.40899" lon="2.62973">
        <ele>131</ele>
        <time>2011-11-27T08:51:30Z</time>
      </trkpt>
      <trkpt lat="48.40904" lon="2.62969">
        <ele>131</ele>
        <time>2011-11-27T08:51:33Z</time>
      </trkpt>
      <trkpt lat="48.40921" lon="2.62942">
        <ele>133</ele>
        <time>2011-11-27T08:51:46Z</time>
      </trkpt>
      <trkpt lat="48.40929" lon="2.6293">
        <ele>132</ele>
        <time>2011-11-27T08:51:50Z</time>
      </trkpt>
      <trkpt lat="48.4092" lon="2.62901">
        <ele>131</ele>
        <time>2011-11-27T08:52:01Z</time>
      </trkpt>
      <trkpt lat="48.40908" lon="2.62872">
        <ele>129</ele>
        <time>2011-11-27T08:52:09Z</time>
      </trkpt>
      <trkpt lat="48.40907" lon="2.62857">
        <ele>129</ele>
        <time>2011-11-27T08:52:13Z</time>
      </trkpt>
      <trkpt lat="48.40898" lon="2.6284">
        <ele>129</ele>
        <time>2011-11-27T08:52:21Z</time>
      </trkpt>
      <trkpt lat="48.40899" lon="2.62836">
        <ele>129</ele>
        <time>2011-11-27T08:52:22Z</time>
      </trkpt>
      <trkpt lat="48.40897" lon="2.62807">
        <ele>129</ele>
        <time>2011-11-27T08:52:29Z</time>
      </trkpt>
      <trkpt lat="48.40894" lon="2.62797">
        <ele>129</ele>
        <time>2011-11-27T08:52:31Z</time>
      </trkpt>
      <trkpt lat="48.40882" lon="2.62787">
        <ele>128</ele>
        <time>2011-11-27T08:52:35Z</time>
      </trkpt>
      <trkpt lat="48.4087" lon="2.62786">
        <ele>128</ele>
        <time>2011-11-27T08:52:38Z</time>
      </trkpt>
      <trkpt lat="48.40863" lon="2.62776">
        <ele>128</ele>
        <time>2011-11-27T08:52:41Z</time>
      </trkpt>
      <trkpt lat="48.40855" lon="2.62766">
        <ele>127</ele>
        <time>2011-11-27T08:52:45Z</time>
      </trkpt>
      <trkpt lat="48.40853" lon="2.62751">
        <ele>127</ele>
        <time>2011-11-27T08:52:50Z</time>
      </trkpt>
      <trkpt lat="48.40856" lon="2.62738">
        <ele>127</ele>
        <time>2011-11-27T08:52:55Z</time>
      </trkpt>
      <trkpt lat="48.40857" lon="2.62731">
        <ele>127</ele>
        <time>2011-11-27T08:52:57Z</time>
      </trkpt>
      <trkpt lat="48.40862" lon="2.62725">
        <ele>127</ele>
        <time>2011-11-27T08:53:01Z</time>
      </trkpt>
      <trkpt lat="48.40867" lon="2.62731">
        <ele>127</ele>
        <time>2011-11-27T08:53:05Z</time>
      </trkpt>
      <trkpt lat="48.40877" lon="2.62715">
        <ele>128</ele>
        <time>2011-11-27T08:53:15Z</time>
      </trkpt>
      <trkpt lat="48.40878" lon="2.62684">
        <ele>127</ele>
        <time>2011-11-27T08:53:24Z</time>
      </trkpt>
      <trkpt lat="48.40879" lon="2.62665">
        <ele>126</ele>
        <time>2011-11-27T08:53:28Z</time>
      </trkpt>
      <trkpt lat="48.40885" lon="2.62649">
        <ele>126</ele>
        <time>2011-11-27T08:53:33Z</time>
      </trkpt>
      <trkpt lat="48.40886" lon="2.62631">
        <ele>126</ele>
        <time>2011-11-27T08:53:38Z</time>
      </trkpt>
      <trkpt lat="48.40892" lon="2.62607">
        <ele>126</ele>
        <time>2011-11-27T08:53:45Z</time>
      </trkpt>
      <trkpt lat="48.40896" lon="2.62581">
        <ele>126</ele>
        <time>2011-11-27T08:53:57Z</time>
      </trkpt>
      <trkpt lat="48.40901" lon="2.62572">
        <ele>126</ele>
        <time>2011-11-27T08:54:09Z</time>
      </trkpt>
      <trkpt lat="48.40905" lon="2.62567">
        <ele>126</ele>
        <time>2011-11-27T08:54:18Z</time>
      </trkpt>
      <trkpt lat="48.40908" lon="2.62521">
        <ele>126</ele>
        <time>2011-11-27T08:54:30Z</time>
      </trkpt>
      <trkpt lat="48.40916" lon="2.62476">
        <ele>126</ele>
        <time>2011-11-27T08:54:40Z</time>
      </trkpt>
      <trkpt lat="48.40919" lon="2.62467">
        <ele>128</ele>
        <time>2011-11-27T08:54:42Z</time>
      </trkpt>
      <trkpt lat="48.40934" lon="2.62422">
        <ele>129</ele>
        <time>2011-11-27T08:54:50Z</time>
      </trkpt>
      <trkpt lat="48.40937" lon="2.62403">
        <ele>129</ele>
        <time>2011-11-27T08:54:54Z</time>
      </trkpt>
      <trkpt lat="48.40941" lon="2.62391">
        <ele>129</ele>
        <time>2011-11-27T08:54:57Z</time>
      </trkpt>
      <trkpt lat="48.40938" lon="2.6238">
        <ele>129</ele>
        <time>2011-11-27T08:55:02Z</time>
      </trkpt>
      <trkpt lat="48.40919" lon="2.62357">
        <ele>128</ele>
        <time>2011-11-27T08:55:12Z</time>
      </trkpt>
      <trkpt lat="48.40913" lon="2.62349">
        <ele>126</ele>
        <time>2011-11-27T08:55:16Z</time>
      </trkpt>
      <trkpt lat="48.4091" lon="2.62341">
        <ele>126</ele>
        <time>2011-11-27T08:55:19Z</time>
      </trkpt>
      <trkpt lat="48.40904" lon="2.62331">
        <ele>125</ele>
        <time>2011-11-27T08:55:23Z</time>
      </trkpt>
      <trkpt lat="48.4091" lon="2.62318">
        <ele>125</ele>
        <time>2011-11-27T08:55:29Z</time>
      </trkpt>
      <trkpt lat="48.40913" lon="2.62312">
        <ele>124</ele>
        <time>2011-11-27T08:55:31Z</time>
      </trkpt>
      <trkpt lat="48.40931" lon="2.62297">
        <ele>128</ele>
        <time>2011-11-27T08:55:42Z</time>
      </trkpt>
      <trkpt lat="48.4093" lon="2.62285">
        <ele>128</ele>
        <time>2011-11-27T08:55:47Z</time>
      </trkpt>
      <trkpt lat="48.40915" lon="2.6226">
        <ele>125</ele>
        <time>2011-11-27T08:55:57Z</time>
      </trkpt>
      <trkpt lat="48.40911" lon="2.62234">
        <ele>124</ele>
        <time>2011-11-27T08:56:05Z</time>
      </trkpt>
      <trkpt lat="48.40912" lon="2.62214">
        <ele>123</ele>
        <time>2011-11-27T08:56:10Z</time>
      </trkpt>
      <trkpt lat="48.40907" lon="2.62207">
        <ele>123</ele>
        <time>2011-11-27T08:56:13Z</time>
      </trkpt>
      <trkpt lat="48.40903" lon="2.62185">
        <ele>123</ele>
        <time>2011-11-27T08:56:24Z</time>
      </trkpt>
      <trkpt lat="48.40898" lon="2.62184">
        <ele>123</ele>
        <time>2011-11-27T08:56:27Z</time>
      </trkpt>
      <trkpt lat="48.40896" lon="2.62159">
        <ele>122</ele>
        <time>2011-11-27T08:56:39Z</time>
      </trkpt>
      <trkpt lat="48.40898" lon="2.62153">
        <ele>122</ele>
        <time>2011-11-27T08:56:42Z</time>
      </trkpt>
      <trkpt lat="48.40895" lon="2.6215">
        <ele>121</ele>
        <time>2011-11-27T08:56:44Z</time>
      </trkpt>
      <trkpt lat="48.40895" lon="2.62131">
        <ele>121</ele>
        <time>2011-11-27T08:56:50Z</time>
      </trkpt>
      <trkpt lat="48.409" lon="2.62115">
        <ele>121</ele>
        <time>2011-11-27T08:57:06Z</time>
      </trkpt>
      <trkpt lat="48.409" lon="2.62115">
        <ele>121</ele>
        <time>2011-11-27T08:57:25Z</time>
      </trkpt>
      <trkpt lat="48.40904" lon="2.62111">
        <ele>121</ele>
        <time>2011-11-27T08:57:29Z</time>
      </trkpt>
      <trkpt lat="48.40908" lon="2.6209">
        <ele>123</ele>
        <time>2011-11-27T08:57:40Z</time>
      </trkpt>
      <trkpt lat="48.40912" lon="2.62076">
        <ele>122</ele>
        <time>2011-11-27T08:57:46Z</time>
      </trkpt>
      <trkpt lat="48.40914" lon="2.62059">
        <ele>120</ele>
        <time>2011-11-27T08:57:52Z</time>
      </trkpt>
      <trkpt lat="48.40913" lon="2.62052">
        <ele>119</ele>
        <time>2011-11-27T08:57:55Z</time>
      </trkpt>
      <trkpt lat="48.40917" lon="2.62039">
        <ele>124</ele>
        <time>2011-11-27T08:58:06Z</time>
      </trkpt>
      <trkpt lat="48.40921" lon="2.62032">
        <ele>124</ele>
        <time>2011-11-27T08:58:09Z</time>
      </trkpt>
      <trkpt lat="48.40935" lon="2.61997">
        <ele>124</ele>
        <time>2011-11-27T08:58:21Z</time>
      </trkpt>
      <trkpt lat="48.40937" lon="2.61992">
        <ele>124</ele>
        <time>2011-11-27T08:58:23Z</time>
      </trkpt>
      <trkpt lat="48.40942" lon="2.61988">
        <ele>124</ele>
        <time>2011-11-27T08:58:26Z</time>
      </trkpt>
      <trkpt lat="48.40946" lon="2.61981">
        <ele>124</ele>
        <time>2011-11-27T08:58:29Z</time>
      </trkpt>
      <trkpt lat="48.40951" lon="2.61972">
        <ele>124</ele>
        <time>2011-11-27T08:58:33Z</time>
      </trkpt>
      <trkpt lat="48.40952" lon="2.61966">
        <ele>124</ele>
        <time>2011-11-27T08:58:35Z</time>
      </trkpt>
      <trkpt lat="48.40953" lon="2.61961">
        <ele>124</ele>
        <time>2011-11-27T08:58:37Z</time>
      </trkpt>
      <trkpt lat="48.40959" lon="2.61954">
        <ele>125</ele>
        <time>2011-11-27T08:58:42Z</time>
      </trkpt>
      <trkpt lat="48.40968" lon="2.61942">
        <ele>125</ele>
        <time>2011-11-27T08:58:49Z</time>
      </trkpt>
      <trkpt lat="48.40963" lon="2.61933">
        <ele>125</ele>
        <time>2011-11-27T08:58:54Z</time>
      </trkpt>
      <trkpt lat="48.40955" lon="2.61929">
        <ele>124</ele>
        <time>2011-11-27T08:58:58Z</time>
      </trkpt>
      <trkpt lat="48.40948" lon="2.61921">
        <ele>124</ele>
        <time>2011-11-27T08:59:02Z</time>
      </trkpt>
      <trkpt lat="48.40952" lon="2.61884">
        <ele>123</ele>
        <time>2011-11-27T08:59:15Z</time>
      </trkpt>
      <trkpt lat="48.40958" lon="2.61849">
        <ele>123</ele>
        <time>2011-11-27T08:59:25Z</time>
      </trkpt>
      <trkpt lat="48.40953" lon="2.61842">
        <ele>122</ele>
        <time>2011-11-27T08:59:29Z</time>
      </trkpt>
      <trkpt lat="48.40948" lon="2.61841">
        <ele>122</ele>
        <time>2011-11-27T08:59:32Z</time>
      </trkpt>
      <trkpt lat="48.40944" lon="2.61831">
        <ele>121</ele>
        <time>2011-11-27T08:59:38Z</time>
      </trkpt>
      <trkpt lat="48.40945" lon="2.61823">
        <ele>121</ele>
        <time>2011-11-27T08:59:41Z</time>
      </trkpt>
      <trkpt lat="48.40951" lon="2.61819">
        <ele>122</ele>
        <time>2011-11-27T08:59:45Z</time>
      </trkpt>
      <trkpt lat="48.40963" lon="2.61814">
        <ele>122</ele>
        <time>2011-11-27T08:59:52Z</time>
      </trkpt>
      <trkpt lat="48.40967" lon="2.61809">
        <ele>122</ele>
        <time>2011-11-27T08:59:55Z</time>
      </trkpt>
      <trkpt lat="48.40968" lon="2.61805">
        <ele>122</ele>
        <time>2011-11-27T08:59:57Z</time>
      </trkpt>
      <trkpt lat="48.40967" lon="2.61775">
        <ele>122</ele>
        <time>2011-11-27T09:00:05Z</time>
      </trkpt>
      <trkpt lat="48.40969" lon="2.61761">
        <ele>123</ele>
        <time>2011-11-27T09:00:13Z</time>
      </trkpt>
      <trkpt lat="48.4097" lon="2.61755">
        <ele>123</ele>
        <time>2011-11-27T09:00:23Z</time>
      </trkpt>
      <trkpt lat="48.40976" lon="2.6175">
        <ele>124</ele>
        <time>2011-11-27T09:00:37Z</time>
      </trkpt>
      <trkpt lat="48.40981" lon="2.61746">
        <ele>125</ele>
        <time>2011-11-27T09:01:19Z</time>
      </trkpt>
      <trkpt lat="48.40981" lon="2.61742">
        <ele>125</ele>
        <time>2011-11-27T09:01:22Z</time>
      </trkpt>
      <trkpt lat="48.40981" lon="2.61737">
        <ele>124</ele>
        <time>2011-11-27T09:01:26Z</time>
      </trkpt>
      <trkpt lat="48.40983" lon="2.61729">
        <ele>125</ele>
        <time>2011-11-27T09:01:34Z</time>
      </trkpt>
      <trkpt lat="48.40988" lon="2.61722">
        <ele>125</ele>
        <time>2011-11-27T09:01:44Z</time>
      </trkpt>
      <trkpt lat="48.40982" lon="2.61702">
        <ele>125</ele>
        <time>2011-11-27T09:01:52Z</time>
      </trkpt>
      <trkpt lat="48.4098" lon="2.61696">
        <ele>125</ele>
        <time>2011-11-27T09:01:54Z</time>
      </trkpt>
      <trkpt lat="48.40975" lon="2.6168">
        <ele>125</ele>
        <time>2011-11-27T09:01:59Z</time>
      </trkpt>
      <trkpt lat="48.4098" lon="2.61669">
        <ele>126</ele>
        <time>2011-11-27T09:02:03Z</time>
      </trkpt>
      <trkpt lat="48.40981" lon="2.61663">
        <ele>126</ele>
        <time>2011-11-27T09:02:05Z</time>
      </trkpt>
      <trkpt lat="48.40987" lon="2.61654">
        <ele>126</ele>
        <time>2011-11-27T09:02:09Z</time>
      </trkpt>
      <trkpt lat="48.40986" lon="2.61626">
        <ele>124</ele>
        <time>2011-11-27T09:02:17Z</time>
      </trkpt>
      <trkpt lat="48.40986" lon="2.61619">
        <ele>124</ele>
        <time>2011-11-27T09:02:19Z</time>
      </trkpt>
      <trkpt lat="48.40983" lon="2.61609">
        <ele>124</ele>
        <time>2011-11-27T09:02:25Z</time>
      </trkpt>
      <trkpt lat="48.40987" lon="2.61593">
        <ele>125</ele>
        <time>2011-11-27T09:02:32Z</time>
      </trkpt>
      <trkpt lat="48.4099" lon="2.61588">
        <ele>126</ele>
        <time>2011-11-27T09:02:34Z</time>
      </trkpt>
      <trkpt lat="48.41" lon="2.61553">
        <ele>122</ele>
        <time>2011-11-27T09:02:45Z</time>
      </trkpt>
      <trkpt lat="48.41007" lon="2.61542">
        <ele>122</ele>
        <time>2011-11-27T09:02:49Z</time>
      </trkpt>
      <trkpt lat="48.41005" lon="2.61537">
        <ele>122</ele>
        <time>2011-11-27T09:02:51Z</time>
      </trkpt>
      <trkpt lat="48.41003" lon="2.61517">
        <ele>122</ele>
        <time>2011-11-27T09:02:55Z</time>
      </trkpt>
      <trkpt lat="48.41005" lon="2.61511">
        <ele>122</ele>
        <time>2011-11-27T09:02:57Z</time>
      </trkpt>
      <trkpt lat="48.41011" lon="2.61492">
        <ele>120</ele>
        <time>2011-11-27T09:03:11Z</time>
      </trkpt>
      <trkpt lat="48.4101" lon="2.61489">
        <ele>120</ele>
        <time>2011-11-27T09:03:30Z</time>
      </trkpt>
      <trkpt lat="48.41009" lon="2.61482">
        <ele>119</ele>
        <time>2011-11-27T09:03:46Z</time>
      </trkpt>
      <trkpt lat="48.41008" lon="2.61481">
        <ele>119</ele>
        <time>2011-11-27T09:03:49Z</time>
      </trkpt>
      <trkpt lat="48.41007" lon="2.6147">
        <ele>118</ele>
        <time>2011-11-27T09:03:56Z</time>
      </trkpt>
      <trkpt lat="48.41008" lon="2.61462">
        <ele>118</ele>
        <time>2011-11-27T09:04:04Z</time>
      </trkpt>
      <trkpt lat="48.41006" lon="2.61461">
        <ele>118</ele>
        <time>2011-11-27T09:04:07Z</time>
      </trkpt>
      <trkpt lat="48.41007" lon="2.61459">
        <ele>117</ele>
        <time>2011-11-27T09:04:22Z</time>
      </trkpt>
      <trkpt lat="48.41008" lon="2.61459">
        <ele>117</ele>
        <time>2011-11-27T09:04:27Z</time>
      </trkpt>
      <trkpt lat="48.41009" lon="2.61459">
        <ele>117</ele>
        <time>2011-11-27T09:04:29Z</time>
      </trkpt>
      <trkpt lat="48.41016" lon="2.61444">
        <ele>117</ele>
        <time>2011-11-27T09:04:41Z</time>
      </trkpt>
      <trkpt lat="48.41016" lon="2.61441">
        <ele>117</ele>
        <time>2011-11-27T09:04:43Z</time>
      </trkpt>
      <trkpt lat="48.41017" lon="2.61431">
        <ele>117</ele>
        <time>2011-11-27T09:04:58Z</time>
      </trkpt>
      <trkpt lat="48.41019" lon="2.61424">
        <ele>117</ele>
        <time>2011-11-27T09:05:09Z</time>
      </trkpt>
      <trkpt lat="48.4102" lon="2.61419">
        <ele>117</ele>
        <time>2011-11-27T09:05:19Z</time>
      </trkpt>
      <trkpt lat="48.41023" lon="2.6142">
        <ele>116</ele>
        <time>2011-11-27T09:05:28Z</time>
      </trkpt>
      <trkpt lat="48.41029" lon="2.61414">
        <ele>114</ele>
        <time>2011-11-27T09:05:43Z</time>
      </trkpt>
      <trkpt lat="48.41026" lon="2.61419">
        <ele>116</ele>
        <time>2011-11-27T09:07:27Z</time>
      </trkpt>
      <trkpt lat="48.41024" lon="2.61422">
        <ele>116</ele>
        <time>2011-11-27T09:07:40Z</time>
      </trkpt>
      <trkpt lat="48.41014" lon="2.6142">
        <ele>117</ele>
        <time>2011-11-27T09:07:51Z</time>
      </trkpt>
      <trkpt lat="48.41007" lon="2.61428">
        <ele>117</ele>
        <time>2011-11-27T09:08:03Z</time>
      </trkpt>
      <trkpt lat="48.41001" lon="2.61436">
        <ele>117</ele>
        <time>2011-11-27T09:08:19Z</time>
      </trkpt>
      <trkpt lat="48.41" lon="2.61436">
        <ele>116</ele>
        <time>2011-11-27T09:08:26Z</time>
      </trkpt>
      <trkpt lat="48.40993" lon="2.61434">
        <ele>116</ele>
        <time>2011-11-27T09:08:30Z</time>
      </trkpt>
      <trkpt lat="48.40989" lon="2.61433">
        <ele>116</ele>
        <time>2011-11-27T09:08:32Z</time>
      </trkpt>
      <trkpt lat="48.40979" lon="2.61427">
        <ele>115</ele>
        <time>2011-11-27T09:08:40Z</time>
      </trkpt>
      <trkpt lat="48.40976" lon="2.61427">
        <ele>115</ele>
        <time>2011-11-27T09:08:42Z</time>
      </trkpt>
      <trkpt lat="48.40971" lon="2.61428">
        <ele>115</ele>
        <time>2011-11-27T09:08:44Z</time>
      </trkpt>
      <trkpt lat="48.40961" lon="2.61432">
        <ele>114</ele>
        <time>2011-11-27T09:08:48Z</time>
      </trkpt>
      <trkpt lat="48.40956" lon="2.61423">
        <ele>113</ele>
        <time>2011-11-27T09:08:55Z</time>
      </trkpt>
      <trkpt lat="48.40955" lon="2.61417">
        <ele>111</ele>
        <time>2011-11-27T09:08:57Z</time>
      </trkpt>
      <trkpt lat="48.40954" lon="2.61403">
        <ele>110</ele>
        <time>2011-11-27T09:09:01Z</time>
      </trkpt>
      <trkpt lat="48.40949" lon="2.61397">
        <ele>110</ele>
        <time>2011-11-27T09:09:03Z</time>
      </trkpt>
      <trkpt lat="48.40933" lon="2.6139">
        <ele>109</ele>
        <time>2011-11-27T09:09:07Z</time>
      </trkpt>
      <trkpt lat="48.40926" lon="2.61391">
        <ele>108</ele>
        <time>2011-11-27T09:09:09Z</time>
      </trkpt>
      <trkpt lat="48.40911" lon="2.61384">
        <ele>107</ele>
        <time>2011-11-27T09:09:13Z</time>
      </trkpt>
      <trkpt lat="48.4091" lon="2.61379">
        <ele>107</ele>
        <time>2011-11-27T09:09:26Z</time>
      </trkpt>
      <trkpt lat="48.40908" lon="2.61374">
        <ele>107</ele>
        <time>2011-11-27T09:09:28Z</time>
      </trkpt>
      <trkpt lat="48.40906" lon="2.6136">
        <ele>106</ele>
        <time>2011-11-27T09:09:32Z</time>
      </trkpt>
      <trkpt lat="48.40892" lon="2.61294">
        <ele>104</ele>
        <time>2011-11-27T09:09:46Z</time>
      </trkpt>
      <trkpt lat="48.40889" lon="2.61278">
        <ele>104</ele>
        <time>2011-11-27T09:09:49Z</time>
      </trkpt>
      <trkpt lat="48.40879" lon="2.61219">
        <ele>105</ele>
        <time>2011-11-27T09:10:00Z</time>
      </trkpt>
      <trkpt lat="48.40865" lon="2.61145">
        <ele>109</ele>
        <time>2011-11-27T09:10:16Z</time>
      </trkpt>
      <trkpt lat="48.40861" lon="2.61079">
        <ele>113</ele>
        <time>2011-11-27T09:10:31Z</time>
      </trkpt>
      <trkpt lat="48.40861" lon="2.61069">
        <ele>113</ele>
        <time>2011-11-27T09:10:34Z</time>
      </trkpt>
      <trkpt lat="48.40863" lon="2.61019">
        <ele>114</ele>
        <time>2011-11-27T09:10:51Z</time>
      </trkpt>
      <trkpt lat="48.40862" lon="2.61014">
        <ele>114</ele>
        <time>2011-11-27T09:10:53Z</time>
      </trkpt>
      <trkpt lat="48.40854" lon="2.60998">
        <ele>116</ele>
        <time>2011-11-27T09:11:01Z</time>
      </trkpt>
      <trkpt lat="48.40851" lon="2.60978">
        <ele>116</ele>
        <time>2011-11-27T09:11:08Z</time>
      </trkpt>
      <trkpt lat="48.4085" lon="2.60966">
        <ele>116</ele>
        <time>2011-11-27T09:11:17Z</time>
      </trkpt>
      <trkpt lat="48.40846" lon="2.60958">
        <ele>116</ele>
        <time>2011-11-27T09:11:20Z</time>
      </trkpt>
      <trkpt lat="48.40834" lon="2.6095">
        <ele>116</ele>
        <time>2011-11-27T09:11:32Z</time>
      </trkpt>
      <trkpt lat="48.40834" lon="2.60951">
        <ele>116</ele>
        <time>2011-11-27T09:11:39Z</time>
      </trkpt>
      <trkpt lat="48.40833" lon="2.6095">
        <ele>116</ele>
        <time>2011-11-27T09:11:41Z</time>
      </trkpt>
      <trkpt lat="48.40823" lon="2.60936">
        <ele>115</ele>
        <time>2011-11-27T09:11:47Z</time>
      </trkpt>
      <trkpt lat="48.4082" lon="2.60928">
        <ele>115</ele>
        <time>2011-11-27T09:11:50Z</time>
      </trkpt>
      <trkpt lat="48.40822" lon="2.60918">
        <ele>116</ele>
        <time>2011-11-27T09:11:54Z</time>
      </trkpt>
      <trkpt lat="48.40822" lon="2.60913">
        <ele>115</ele>
        <time>2011-11-27T09:11:56Z</time>
      </trkpt>
      <trkpt lat="48.40818" lon="2.6091">
        <ele>114</ele>
        <time>2011-11-27T09:11:59Z</time>
      </trkpt>
      <trkpt lat="48.40809" lon="2.6091">
        <ele>114</ele>
        <time>2011-11-27T09:12:04Z</time>
      </trkpt>
      <trkpt lat="48.40794" lon="2.60902">
        <ele>113</ele>
        <time>2011-11-27T09:12:09Z</time>
      </trkpt>
      <trkpt lat="48.40773" lon="2.60849">
        <ele>113</ele>
        <time>2011-11-27T09:12:19Z</time>
      </trkpt>
      <trkpt lat="48.40774" lon="2.60783">
        <ele>111</ele>
        <time>2011-11-27T09:12:36Z</time>
      </trkpt>
      <trkpt lat="48.40776" lon="2.60746">
        <ele>112</ele>
        <time>2011-11-27T09:12:47Z</time>
      </trkpt>
      <trkpt lat="48.40781" lon="2.607">
        <ele>111</ele>
        <time>2011-11-27T09:12:59Z</time>
      </trkpt>
      <trkpt lat="48.40773" lon="2.60685">
        <ele>112</ele>
        <time>2011-11-27T09:13:04Z</time>
      </trkpt>
      <trkpt lat="48.40744" lon="2.60687">
        <ele>120</ele>
        <time>2011-11-27T09:13:15Z</time>
      </trkpt>
      <trkpt lat="48.40737" lon="2.60687">
        <ele>120</ele>
        <time>2011-11-27T09:13:19Z</time>
      </trkpt>
      <trkpt lat="48.40729" lon="2.60682">
        <ele>121</ele>
        <time>2011-11-27T09:13:32Z</time>
      </trkpt>
      <trkpt lat="48.40724" lon="2.60682">
        <ele>121</ele>
        <time>2011-11-27T09:13:48Z</time>
      </trkpt>
      <trkpt lat="48.40715" lon="2.60683">
        <ele>122</ele>
        <time>2011-11-27T09:14:03Z</time>
      </trkpt>
      <trkpt lat="48.40711" lon="2.60678">
        <ele>123</ele>
        <time>2011-11-27T09:14:16Z</time>
      </trkpt>
      <trkpt lat="48.40705" lon="2.60673">
        <ele>123</ele>
        <time>2011-11-27T09:14:26Z</time>
      </trkpt>
      <trkpt lat="48.40704" lon="2.60673">
        <ele>123</ele>
        <time>2011-11-27T09:14:29Z</time>
      </trkpt>
      <trkpt lat="48.40702" lon="2.60669">
        <ele>124</ele>
        <time>2011-11-27T09:14:34Z</time>
      </trkpt>
      <trkpt lat="48.407" lon="2.60664">
        <ele>123</ele>
        <time>2011-11-27T09:14:37Z</time>
      </trkpt>
      <trkpt lat="48.40701" lon="2.60658">
        <ele>123</ele>
        <time>2011-11-27T09:14:39Z</time>
      </trkpt>
      <trkpt lat="48.40695" lon="2.6064">
        <ele>123</ele>
        <time>2011-11-27T09:14:47Z</time>
      </trkpt>
      <trkpt lat="48.4068" lon="2.60616">
        <ele>124</ele>
        <time>2011-11-27T09:14:59Z</time>
      </trkpt>
      <trkpt lat="48.40671" lon="2.60608">
        <ele>124</ele>
        <time>2011-11-27T09:15:06Z</time>
      </trkpt>
      <trkpt lat="48.40672" lon="2.60602">
        <ele>124</ele>
        <time>2011-11-27T09:15:10Z</time>
      </trkpt>
      <trkpt lat="48.40693" lon="2.60548">
        <ele>122</ele>
        <time>2011-11-27T09:15:24Z</time>
      </trkpt>
      <trkpt lat="48.40693" lon="2.60496">
        <ele>123</ele>
        <time>2011-11-27T09:15:36Z</time>
      </trkpt>
      <trkpt lat="48.40696" lon="2.60419">
        <ele>122</ele>
        <time>2011-11-27T09:15:52Z</time>
      </trkpt>
      <trkpt lat="48.40674" lon="2.60394">
        <ele>124</ele>
        <time>2011-11-27T09:16:01Z</time>
      </trkpt>
      <trkpt lat="48.40637" lon="2.60354">
        <ele>128</ele>
        <time>2011-11-27T09:16:15Z</time>
      </trkpt>
      <trkpt lat="48.40608" lon="2.60316">
        <ele>128</ele>
        <time>2011-11-27T09:16:29Z</time>
      </trkpt>
      <trkpt lat="48.40607" lon="2.60319">
        <ele>128</ele>
        <time>2011-11-27T09:16:58Z</time>
      </trkpt>
      <trkpt lat="48.40607" lon="2.60318">
        <ele>128</ele>
        <time>2011-11-27T09:17:00Z</time>
      </trkpt>
      <trkpt lat="48.40609" lon="2.60255">
        <ele>128</ele>
        <time>2011-11-27T09:17:14Z</time>
      </trkpt>
      <trkpt lat="48.40628" lon="2.60175">
        <ele>127</ele>
        <time>2011-11-27T09:17:30Z</time>
      </trkpt>
      <trkpt lat="48.40644" lon="2.60085">
        <ele>126</ele>
        <time>2011-11-27T09:17:47Z</time>
      </trkpt>
      <trkpt lat="48.40647" lon="2.59992">
        <ele>129</ele>
        <time>2011-11-27T09:18:04Z</time>
      </trkpt>
      <trkpt lat="48.4064" lon="2.59895">
        <ele>128</ele>
        <time>2011-11-27T09:18:22Z</time>
      </trkpt>
      <trkpt lat="48.40624" lon="2.59853">
        <ele>128</ele>
        <time>2011-11-27T09:18:32Z</time>
      </trkpt>
      <trkpt lat="48.40602" lon="2.5983">
        <ele>127</ele>
        <time>2011-11-27T09:18:40Z</time>
      </trkpt>
      <trkpt lat="48.40602" lon="2.59822">
        <ele>127</ele>
        <time>2011-11-27T09:18:44Z</time>
      </trkpt>
      <trkpt lat="48.40619" lon="2.5979">
        <ele>126</ele>
        <time>2011-11-27T09:18:56Z</time>
      </trkpt>
      <trkpt lat="48.40618" lon="2.59766">
        <ele>126</ele>
        <time>2011-11-27T09:19:05Z</time>
      </trkpt>
      <trkpt lat="48.40615" lon="2.59755">
        <ele>126</ele>
        <time>2011-11-27T09:19:08Z</time>
      </trkpt>
      <trkpt lat="48.40621" lon="2.59737">
        <ele>125</ele>
        <time>2011-11-27T09:19:14Z</time>
      </trkpt>
      <trkpt lat="48.40622" lon="2.59728">
        <ele>125</ele>
        <time>2011-11-27T09:19:17Z</time>
      </trkpt>
      <trkpt lat="48.40625" lon="2.59723">
        <ele>125</ele>
        <time>2011-11-27T09:19:20Z</time>
      </trkpt>
      <trkpt lat="48.40629" lon="2.59693">
        <ele>124</ele>
        <time>2011-11-27T09:19:29Z</time>
      </trkpt>
      <trkpt lat="48.40628" lon="2.59677">
        <ele>124</ele>
        <time>2011-11-27T09:19:39Z</time>
      </trkpt>
      <trkpt lat="48.40628" lon="2.5966">
        <ele>124</ele>
        <time>2011-11-27T09:19:47Z</time>
      </trkpt>
      <trkpt lat="48.40628" lon="2.5966">
        <ele>124</ele>
        <time>2011-11-27T09:19:48Z</time>
      </trkpt>
      <trkpt lat="48.40635" lon="2.59639">
        <ele>123</ele>
        <time>2011-11-27T09:19:59Z</time>
      </trkpt>
      <trkpt lat="48.40636" lon="2.59635">
        <ele>123</ele>
        <time>2011-11-27T09:20:00Z</time>
      </trkpt>
      <trkpt lat="48.40648" lon="2.5959">
        <ele>124</ele>
        <time>2011-11-27T09:20:14Z</time>
      </trkpt>
      <trkpt lat="48.4065" lon="2.59587">
        <ele>124</ele>
        <time>2011-11-27T09:20:15Z</time>
      </trkpt>
      <trkpt lat="48.40671" lon="2.5957">
        <ele>123</ele>
        <time>2011-11-27T09:20:23Z</time>
      </trkpt>
      <trkpt lat="48.40683" lon="2.59543">
        <ele>121</ele>
        <time>2011-11-27T09:20:31Z</time>
      </trkpt>
      <trkpt lat="48.40691" lon="2.59499">
        <ele>119</ele>
        <time>2011-11-27T09:20:40Z</time>
      </trkpt>
      <trkpt lat="48.40687" lon="2.59466">
        <ele>119</ele>
        <time>2011-11-27T09:20:45Z</time>
      </trkpt>
      <trkpt lat="48.40681" lon="2.59459">
        <ele>119</ele>
        <time>2011-11-27T09:20:47Z</time>
      </trkpt>
      <trkpt lat="48.40675" lon="2.59451">
        <ele>119</ele>
        <time>2011-11-27T09:20:56Z</time>
      </trkpt>
      <trkpt lat="48.40668" lon="2.5945">
        <ele>120</ele>
        <time>2011-11-27T09:21:09Z</time>
      </trkpt>
      <trkpt lat="48.40662" lon="2.59441">
        <ele>120</ele>
        <time>2011-11-27T09:21:23Z</time>
      </trkpt>
      <trkpt lat="48.40651" lon="2.5943">
        <ele>120</ele>
        <time>2011-11-27T09:21:36Z</time>
      </trkpt>
      <trkpt lat="48.40649" lon="2.59422">
        <ele>120</ele>
        <time>2011-11-27T09:21:44Z</time>
      </trkpt>
      <trkpt lat="48.40644" lon="2.59411">
        <ele>121</ele>
        <time>2011-11-27T09:21:49Z</time>
      </trkpt>
      <trkpt lat="48.4064" lon="2.59384">
        <ele>121</ele>
        <time>2011-11-27T09:21:57Z</time>
      </trkpt>
      <trkpt lat="48.40634" lon="2.59353">
        <ele>121</ele>
        <time>2011-11-27T09:22:08Z</time>
      </trkpt>
      <trkpt lat="48.40634" lon="2.59341">
        <ele>122</ele>
        <time>2011-11-27T09:22:11Z</time>
      </trkpt>
      <trkpt lat="48.40641" lon="2.59335">
        <ele>122</ele>
        <time>2011-11-27T09:22:16Z</time>
      </trkpt>
      <trkpt lat="48.40665" lon="2.59345">
        <ele>123</ele>
        <time>2011-11-27T09:22:24Z</time>
      </trkpt>
      <trkpt lat="48.40678" lon="2.59341">
        <ele>122</ele>
        <time>2011-11-27T09:22:30Z</time>
      </trkpt>
      <trkpt lat="48.40675" lon="2.59357">
        <ele>121</ele>
        <time>2011-11-27T09:22:36Z</time>
      </trkpt>
      <trkpt lat="48.40683" lon="2.59375">
        <ele>119</ele>
        <time>2011-11-27T09:22:43Z</time>
      </trkpt>
      <trkpt lat="48.40705" lon="2.59371">
        <ele>118</ele>
        <time>2011-11-27T09:22:47Z</time>
      </trkpt>
      <trkpt lat="48.40742" lon="2.59369">
        <ele>116</ele>
        <time>2011-11-27T09:22:54Z</time>
      </trkpt>
      <trkpt lat="48.40748" lon="2.59378">
        <ele>116</ele>
        <time>2011-11-27T09:22:57Z</time>
      </trkpt>
      <trkpt lat="48.40758" lon="2.59395">
        <ele>110</ele>
        <time>2011-11-27T09:23:06Z</time>
      </trkpt>
      <trkpt lat="48.40761" lon="2.59411">
        <ele>111</ele>
        <time>2011-11-27T09:23:12Z</time>
      </trkpt>
      <trkpt lat="48.40761" lon="2.59414">
        <ele>111</ele>
        <time>2011-11-27T09:23:14Z</time>
      </trkpt>
      <trkpt lat="48.40762" lon="2.59425">
        <ele>111</ele>
        <time>2011-11-27T09:23:18Z</time>
      </trkpt>
      <trkpt lat="48.40769" lon="2.59436">
        <ele>111</ele>
        <time>2011-11-27T09:23:22Z</time>
      </trkpt>
      <trkpt lat="48.40781" lon="2.59433">
        <ele>110</ele>
        <time>2011-11-27T09:23:31Z</time>
      </trkpt>
      <trkpt lat="48.40781" lon="2.59434">
        <ele>110</ele>
        <time>2011-11-27T09:23:34Z</time>
      </trkpt>
      <trkpt lat="48.40795" lon="2.59439">
        <ele>109</ele>
        <time>2011-11-27T09:23:38Z</time>
      </trkpt>
      <trkpt lat="48.4082" lon="2.59445">
        <ele>107</ele>
        <time>2011-11-27T09:23:45Z</time>
      </trkpt>
      <trkpt lat="48.40828" lon="2.59435">
        <ele>107</ele>
        <time>2011-11-27T09:23:50Z</time>
      </trkpt>
      <trkpt lat="48.40825" lon="2.59392">
        <ele>106</ele>
        <time>2011-11-27T09:24:03Z</time>
      </trkpt>
      <trkpt lat="48.40828" lon="2.59378">
        <ele>106</ele>
        <time>2011-11-27T09:24:08Z</time>
      </trkpt>
      <trkpt lat="48.40828" lon="2.59357">
        <ele>105</ele>
        <time>2011-11-27T09:24:14Z</time>
      </trkpt>
      <trkpt lat="48.40827" lon="2.59343">
        <ele>104</ele>
        <time>2011-11-27T09:24:16Z</time>
      </trkpt>
      <trkpt lat="48.40833" lon="2.59331">
        <ele>103</ele>
        <time>2011-11-27T09:24:19Z</time>
      </trkpt>
      <trkpt lat="48.40842" lon="2.59307">
        <ele>99</ele>
        <time>2011-11-27T09:24:23Z</time>
      </trkpt>
      <trkpt lat="48.40852" lon="2.59277">
        <ele>98</ele>
        <time>2011-11-27T09:24:29Z</time>
      </trkpt>
      <trkpt lat="48.40858" lon="2.59269">
        <ele>98</ele>
        <time>2011-11-27T09:24:31Z</time>
      </trkpt>
      <trkpt lat="48.40863" lon="2.59258">
        <ele>98</ele>
        <time>2011-11-27T09:24:33Z</time>
      </trkpt>
      <trkpt lat="48.40871" lon="2.59254">
        <ele>97</ele>
        <time>2011-11-27T09:24:36Z</time>
      </trkpt>
      <trkpt lat="48.40883" lon="2.59239">
        <ele>97</ele>
        <time>2011-11-27T09:24:41Z</time>
      </trkpt>
      <trkpt lat="48.40913" lon="2.59227">
        <ele>95</ele>
        <time>2011-11-27T09:24:48Z</time>
      </trkpt>
      <trkpt lat="48.40929" lon="2.59222">
        <ele>89</ele>
        <time>2011-11-27T09:24:52Z</time>
      </trkpt>
      <trkpt lat="48.40938" lon="2.59222">
        <ele>89</ele>
        <time>2011-11-27T09:24:54Z</time>
      </trkpt>
      <trkpt lat="48.40947" lon="2.59207">
        <ele>89</ele>
        <time>2011-11-27T09:24:58Z</time>
      </trkpt>
      <trkpt lat="48.40981" lon="2.59189">
        <ele>88</ele>
        <time>2011-11-27T09:25:10Z</time>
      </trkpt>
      <trkpt lat="48.40981" lon="2.59183">
        <ele>87</ele>
        <time>2011-11-27T09:25:20Z</time>
      </trkpt>
      <trkpt lat="48.40981" lon="2.59183">
        <ele>87</ele>
        <time>2011-11-27T09:25:33Z</time>
      </trkpt>
      <trkpt lat="48.40983" lon="2.59182">
        <ele>87</ele>
        <time>2011-11-27T09:25:35Z</time>
      </trkpt>
      <trkpt lat="48.40986" lon="2.59173">
        <ele>87</ele>
        <time>2011-11-27T09:25:39Z</time>
      </trkpt>
      <trkpt lat="48.40987" lon="2.59167">
        <ele>87</ele>
        <time>2011-11-27T09:25:41Z</time>
      </trkpt>
      <trkpt lat="48.40984" lon="2.59124">
        <ele>88</ele>
        <time>2011-11-27T09:25:51Z</time>
      </trkpt>
      <trkpt lat="48.40985" lon="2.59109">
        <ele>88</ele>
        <time>2011-11-27T09:25:54Z</time>
      </trkpt>
      <trkpt lat="48.40988" lon="2.59046">
        <ele>88</ele>
        <time>2011-11-27T09:26:05Z</time>
      </trkpt>
      <trkpt lat="48.40994" lon="2.58968">
        <ele>89</ele>
        <time>2011-11-27T09:26:18Z</time>
      </trkpt>
      <trkpt lat="48.41004" lon="2.58893">
        <ele>86</ele>
        <time>2011-11-27T09:26:31Z</time>
      </trkpt>
      <trkpt lat="48.41019" lon="2.58829">
        <ele>86</ele>
        <time>2011-11-27T09:26:45Z</time>
      </trkpt>
      <trkpt lat="48.41026" lon="2.58764">
        <ele>86</ele>
        <time>2011-11-27T09:26:56Z</time>
      </trkpt>
      <trkpt lat="48.41027" lon="2.58681">
        <ele>87</ele>
        <time>2011-11-27T09:27:10Z</time>
      </trkpt>
      <trkpt lat="48.41031" lon="2.58611">
        <ele>86</ele>
        <time>2011-11-27T09:27:22Z</time>
      </trkpt>
      <trkpt lat="48.41033" lon="2.58601">
        <ele>86</ele>
        <time>2011-11-27T09:27:24Z</time>
      </trkpt>
      <trkpt lat="48.41042" lon="2.58577">
        <ele>84</ele>
        <time>2011-11-27T09:27:29Z</time>
      </trkpt>
      <trkpt lat="48.41045" lon="2.58565">
        <ele>83</ele>
        <time>2011-11-27T09:27:31Z</time>
      </trkpt>
      <trkpt lat="48.41046" lon="2.58544">
        <ele>83</ele>
        <time>2011-11-27T09:27:35Z</time>
      </trkpt>
      <trkpt lat="48.41014" lon="2.58526">
        <ele>84</ele>
        <time>2011-11-27T09:27:47Z</time>
      </trkpt>
      <trkpt lat="48.40983" lon="2.58497">
        <ele>88</ele>
        <time>2011-11-27T09:27:58Z</time>
      </trkpt>
      <trkpt lat="48.40944" lon="2.58506">
        <ele>93</ele>
        <time>2011-11-27T09:28:10Z</time>
      </trkpt>
      <trkpt lat="48.40933" lon="2.58513">
        <ele>94</ele>
        <time>2011-11-27T09:28:19Z</time>
      </trkpt>
      <trkpt lat="48.40933" lon="2.58513">
        <ele>94</ele>
        <time>2011-11-27T09:28:21Z</time>
      </trkpt>
      <trkpt lat="48.40932" lon="2.58511">
        <ele>94</ele>
        <time>2011-11-27T09:28:40Z</time>
      </trkpt>
      <trkpt lat="48.4093" lon="2.58511">
        <ele>94</ele>
        <time>2011-11-27T09:28:47Z</time>
      </trkpt>
      <trkpt lat="48.40925" lon="2.58514">
        <ele>94</ele>
        <time>2011-11-27T09:28:57Z</time>
      </trkpt>
      <trkpt lat="48.4091" lon="2.58514">
        <ele>97</ele>
        <time>2011-11-27T09:29:04Z</time>
      </trkpt>
      <trkpt lat="48.40898" lon="2.58526">
        <ele>97</ele>
        <time>2011-11-27T09:29:10Z</time>
      </trkpt>
      <trkpt lat="48.40896" lon="2.5853">
        <ele>97</ele>
        <time>2011-11-27T09:29:12Z</time>
      </trkpt>
      <trkpt lat="48.40863" lon="2.58535">
        <ele>97</ele>
        <time>2011-11-27T09:29:25Z</time>
      </trkpt>
      <trkpt lat="48.40855" lon="2.58541">
        <ele>97</ele>
        <time>2011-11-27T09:29:29Z</time>
      </trkpt>
      <trkpt lat="48.4085" lon="2.5856">
        <ele>97</ele>
        <time>2011-11-27T09:29:35Z</time>
      </trkpt>
      <trkpt lat="48.40826" lon="2.58599">
        <ele>98</ele>
        <time>2011-11-27T09:29:48Z</time>
      </trkpt>
      <trkpt lat="48.40812" lon="2.58608">
        <ele>99</ele>
        <time>2011-11-27T09:29:54Z</time>
      </trkpt>
      <trkpt lat="48.4079" lon="2.58634">
        <ele>100</ele>
        <time>2011-11-27T09:30:04Z</time>
      </trkpt>
      <trkpt lat="48.40767" lon="2.58657">
        <ele>100</ele>
        <time>2011-11-27T09:30:14Z</time>
      </trkpt>
      <trkpt lat="48.40752" lon="2.58692">
        <ele>104</ele>
        <time>2011-11-27T09:30:25Z</time>
      </trkpt>
      <trkpt lat="48.40751" lon="2.58694">
        <ele>104</ele>
        <time>2011-11-27T09:30:26Z</time>
      </trkpt>
      <trkpt lat="48.40739" lon="2.58702">
        <ele>101</ele>
        <time>2011-11-27T09:30:32Z</time>
      </trkpt>
      <trkpt lat="48.40728" lon="2.58731">
        <ele>102</ele>
        <time>2011-11-27T09:30:39Z</time>
      </trkpt>
      <trkpt lat="48.40727" lon="2.58757">
        <ele>108</ele>
        <time>2011-11-27T09:30:43Z</time>
      </trkpt>
      <trkpt lat="48.40732" lon="2.58773">
        <ele>109</ele>
        <time>2011-11-27T09:30:46Z</time>
      </trkpt>
      <trkpt lat="48.40741" lon="2.58777">
        <ele>109</ele>
        <time>2011-11-27T09:30:50Z</time>
      </trkpt>
      <trkpt lat="48.40748" lon="2.5878">
        <ele>109</ele>
        <time>2011-11-27T09:30:54Z</time>
      </trkpt>
      <trkpt lat="48.40753" lon="2.5879">
        <ele>112</ele>
        <time>2011-11-27T09:31:05Z</time>
      </trkpt>
      <trkpt lat="48.40752" lon="2.58801">
        <ele>113</ele>
        <time>2011-11-27T09:31:18Z</time>
      </trkpt>
      <trkpt lat="48.40743" lon="2.58808">
        <ele>112</ele>
        <time>2011-11-27T09:31:24Z</time>
      </trkpt>
      <trkpt lat="48.40735" lon="2.58814">
        <ele>112</ele>
        <time>2011-11-27T09:31:29Z</time>
      </trkpt>
      <trkpt lat="48.40713" lon="2.58824">
        <ele>111</ele>
        <time>2011-11-27T09:31:38Z</time>
      </trkpt>
      <trkpt lat="48.40707" lon="2.58835">
        <ele>117</ele>
        <time>2011-11-27T09:31:43Z</time>
      </trkpt>
      <trkpt lat="48.40705" lon="2.5885">
        <ele>117</ele>
        <time>2011-11-27T09:31:49Z</time>
      </trkpt>
      <trkpt lat="48.40706" lon="2.58863">
        <ele>118</ele>
        <time>2011-11-27T09:31:54Z</time>
      </trkpt>
      <trkpt lat="48.40706" lon="2.58867">
        <ele>118</ele>
        <time>2011-11-27T09:31:56Z</time>
      </trkpt>
      <trkpt lat="48.40708" lon="2.58876">
        <ele>118</ele>
        <time>2011-11-27T09:32:00Z</time>
      </trkpt>
      <trkpt lat="48.40707" lon="2.58917">
        <ele>122</ele>
        <time>2011-11-27T09:32:17Z</time>
      </trkpt>
      <trkpt lat="48.40711" lon="2.58924">
        <ele>122</ele>
        <time>2011-11-27T09:32:20Z</time>
      </trkpt>
      <trkpt lat="48.40711" lon="2.58952">
        <ele>122</ele>
        <time>2011-11-27T09:32:31Z</time>
      </trkpt>
      <trkpt lat="48.40718" lon="2.58964">
        <ele>122</ele>
        <time>2011-11-27T09:32:37Z</time>
      </trkpt>
      <trkpt lat="48.40728" lon="2.58999">
        <ele>122</ele>
        <time>2011-11-27T09:32:45Z</time>
      </trkpt>
      <trkpt lat="48.40746" lon="2.59045">
        <ele>121</ele>
        <time>2011-11-27T09:32:52Z</time>
      </trkpt>
      <trkpt lat="48.40753" lon="2.59095">
        <ele>118</ele>
        <time>2011-11-27T09:32:59Z</time>
      </trkpt>
      <trkpt lat="48.4075" lon="2.59104">
        <ele>117</ele>
        <time>2011-11-27T09:33:02Z</time>
      </trkpt>
      <trkpt lat="48.40747" lon="2.59107">
        <ele>120</ele>
        <time>2011-11-27T09:33:04Z</time>
      </trkpt>
      <trkpt lat="48.40738" lon="2.59109">
        <ele>120</ele>
        <time>2011-11-27T09:33:11Z</time>
      </trkpt>
      <trkpt lat="48.40734" lon="2.59116">
        <ele>120</ele>
        <time>2011-11-27T09:33:15Z</time>
      </trkpt>
      <trkpt lat="48.40731" lon="2.59121">
        <ele>120</ele>
        <time>2011-11-27T09:33:18Z</time>
      </trkpt>
      <trkpt lat="48.4073" lon="2.59134">
        <ele>120</ele>
        <time>2011-11-27T09:33:24Z</time>
      </trkpt>
      <trkpt lat="48.40722" lon="2.59139">
        <ele>120</ele>
        <time>2011-11-27T09:33:36Z</time>
      </trkpt>
      <trkpt lat="48.40712" lon="2.59152">
        <ele>120</ele>
        <time>2011-11-27T09:33:52Z</time>
      </trkpt>
      <trkpt lat="48.40706" lon="2.59157">
        <ele>121</ele>
        <time>2011-11-27T09:34:09Z</time>
      </trkpt>
      <trkpt lat="48.40698" lon="2.59167">
        <ele>120</ele>
        <time>2011-11-27T09:34:14Z</time>
      </trkpt>
      <trkpt lat="48.40672" lon="2.59182">
        <ele>120</ele>
        <time>2011-11-27T09:34:26Z</time>
      </trkpt>
      <trkpt lat="48.40663" lon="2.59187">
        <ele>120</ele>
        <time>2011-11-27T09:34:30Z</time>
      </trkpt>
      <trkpt lat="48.40653" lon="2.59196">
        <ele>120</ele>
        <time>2011-11-27T09:34:36Z</time>
      </trkpt>
      <trkpt lat="48.40646" lon="2.59195">
        <ele>120</ele>
        <time>2011-11-27T09:34:38Z</time>
      </trkpt>
      <trkpt lat="48.40642" lon="2.59209">
        <ele>120</ele>
        <time>2011-11-27T09:34:47Z</time>
      </trkpt>
      <trkpt lat="48.40639" lon="2.59218">
        <ele>120</ele>
        <time>2011-11-27T09:34:55Z</time>
      </trkpt>
      <trkpt lat="48.40644" lon="2.59238">
        <ele>121</ele>
        <time>2011-11-27T09:35:08Z</time>
      </trkpt>
      <trkpt lat="48.40645" lon="2.59253">
        <ele>122</ele>
        <time>2011-11-27T09:35:22Z</time>
      </trkpt>
      <trkpt lat="48.40644" lon="2.59258">
        <ele>122</ele>
        <time>2011-11-27T09:35:24Z</time>
      </trkpt>
      <trkpt lat="48.40637" lon="2.59295">
        <ele>122</ele>
        <time>2011-11-27T09:35:37Z</time>
      </trkpt>
      <trkpt lat="48.40632" lon="2.59299">
        <ele>122</ele>
        <time>2011-11-27T09:35:42Z</time>
      </trkpt>
      <trkpt lat="48.40632" lon="2.59292">
        <ele>122</ele>
        <time>2011-11-27T09:35:46Z</time>
      </trkpt>
      <trkpt lat="48.40631" lon="2.59279">
        <ele>122</ele>
        <time>2011-11-27T09:35:51Z</time>
      </trkpt>
      <trkpt lat="48.40629" lon="2.59267">
        <ele>122</ele>
        <time>2011-11-27T09:35:56Z</time>
      </trkpt>
      <trkpt lat="48.40613" lon="2.59261">
        <ele>121</ele>
        <time>2011-11-27T09:36:09Z</time>
      </trkpt>
      <trkpt lat="48.40612" lon="2.59255">
        <ele>121</ele>
        <time>2011-11-27T09:36:18Z</time>
      </trkpt>
      <trkpt lat="48.40608" lon="2.59245">
        <ele>119</ele>
        <time>2011-11-27T09:36:24Z</time>
      </trkpt>
      <trkpt lat="48.40607" lon="2.59239">
        <ele>119</ele>
        <time>2011-11-27T09:36:27Z</time>
      </trkpt>
      <trkpt lat="48.4061" lon="2.59222">
        <ele>119</ele>
        <time>2011-11-27T09:36:34Z</time>
      </trkpt>
      <trkpt lat="48.4061" lon="2.5921">
        <ele>119</ele>
        <time>2011-11-27T09:36:37Z</time>
      </trkpt>
      <trkpt lat="48.40611" lon="2.5919">
        <ele>118</ele>
        <time>2011-11-27T09:36:44Z</time>
      </trkpt>
      <trkpt lat="48.40595" lon="2.59182">
        <ele>117</ele>
        <time>2011-11-27T09:36:53Z</time>
      </trkpt>
      <trkpt lat="48.40589" lon="2.59179">
        <ele>116</ele>
        <time>2011-11-27T09:36:55Z</time>
      </trkpt>
      <trkpt lat="48.4058" lon="2.59177">
        <ele>112</ele>
        <time>2011-11-27T09:36:58Z</time>
      </trkpt>
      <trkpt lat="48.40566" lon="2.59184">
        <ele>111</ele>
        <time>2011-11-27T09:37:02Z</time>
      </trkpt>
      <trkpt lat="48.40547" lon="2.59189">
        <ele>109</ele>
        <time>2011-11-27T09:37:07Z</time>
      </trkpt>
      <trkpt lat="48.40541" lon="2.59184">
        <ele>108</ele>
        <time>2011-11-27T09:37:18Z</time>
      </trkpt>
      <trkpt lat="48.40539" lon="2.59184">
        <ele>108</ele>
        <time>2011-11-27T09:37:27Z</time>
      </trkpt>
      <trkpt lat="48.4052" lon="2.59194">
        <ele>106</ele>
        <time>2011-11-27T09:37:38Z</time>
      </trkpt>
      <trkpt lat="48.40512" lon="2.59196">
        <ele>106</ele>
        <time>2011-11-27T09:37:44Z</time>
      </trkpt>
      <trkpt lat="48.40511" lon="2.59198">
        <ele>106</ele>
        <time>2011-11-27T09:37:52Z</time>
      </trkpt>
      <trkpt lat="48.40506" lon="2.59197">
        <ele>105</ele>
        <time>2011-11-27T09:37:59Z</time>
      </trkpt>
      <trkpt lat="48.40493" lon="2.59222">
        <ele>102</ele>
        <time>2011-11-27T09:38:08Z</time>
      </trkpt>
      <trkpt lat="48.40483" lon="2.59226">
        <ele>102</ele>
        <time>2011-11-27T09:38:12Z</time>
      </trkpt>
      <trkpt lat="48.40451" lon="2.59195">
        <ele>102</ele>
        <time>2011-11-27T09:38:31Z</time>
      </trkpt>
      <trkpt lat="48.40427" lon="2.59178">
        <ele>102</ele>
        <time>2011-11-27T09:38:44Z</time>
      </trkpt>
      <trkpt lat="48.40394" lon="2.59165">
        <ele>101</ele>
        <time>2011-11-27T09:38:57Z</time>
      </trkpt>
      <trkpt lat="48.40368" lon="2.5917">
        <ele>102</ele>
        <time>2011-11-27T09:39:09Z</time>
      </trkpt>
      <trkpt lat="48.40335" lon="2.59189">
        <ele>102</ele>
        <time>2011-11-27T09:39:24Z</time>
      </trkpt>
      <trkpt lat="48.40327" lon="2.5919">
        <ele>100</ele>
        <time>2011-11-27T09:39:26Z</time>
      </trkpt>
      <trkpt lat="48.4032" lon="2.59205">
        <ele>101</ele>
        <time>2011-11-27T09:39:29Z</time>
      </trkpt>
      <trkpt lat="48.40311" lon="2.59242">
        <ele>102</ele>
        <time>2011-11-27T09:39:35Z</time>
      </trkpt>
      <trkpt lat="48.40301" lon="2.59253">
        <ele>104</ele>
        <time>2011-11-27T09:39:38Z</time>
      </trkpt>
      <trkpt lat="48.40289" lon="2.59276">
        <ele>104</ele>
        <time>2011-11-27T09:39:41Z</time>
      </trkpt>
      <trkpt lat="48.40259" lon="2.5931">
        <ele>104</ele>
        <time>2011-11-27T09:39:53Z</time>
      </trkpt>
      <trkpt lat="48.40234" lon="2.59324">
        <ele>107</ele>
        <time>2011-11-27T09:40:07Z</time>
      </trkpt>
      <trkpt lat="48.40215" lon="2.59341">
        <ele>112</ele>
        <time>2011-11-27T09:40:22Z</time>
      </trkpt>
      <trkpt lat="48.40212" lon="2.59346">
        <ele>113</ele>
        <time>2011-11-27T09:40:26Z</time>
      </trkpt>
      <trkpt lat="48.40211" lon="2.59349">
        <ele>113</ele>
        <time>2011-11-27T09:40:28Z</time>
      </trkpt>
      <trkpt lat="48.40208" lon="2.59353">
        <ele>113</ele>
        <time>2011-11-27T09:40:31Z</time>
      </trkpt>
      <trkpt lat="48.40197" lon="2.59361">
        <ele>114</ele>
        <time>2011-11-27T09:40:39Z</time>
      </trkpt>
      <trkpt lat="48.40192" lon="2.59364">
        <ele>115</ele>
        <time>2011-11-27T09:40:52Z</time>
      </trkpt>
      <trkpt lat="48.40178" lon="2.59367">
        <ele>116</ele>
        <time>2011-11-27T09:41:12Z</time>
      </trkpt>
      <trkpt lat="48.40167" lon="2.59376">
        <ele>116</ele>
        <time>2011-11-27T09:41:29Z</time>
      </trkpt>
      <trkpt lat="48.4016" lon="2.59376">
        <ele>123</ele>
        <time>2011-11-27T09:41:41Z</time>
      </trkpt>
      <trkpt lat="48.40159" lon="2.59376">
        <ele>123</ele>
        <time>2011-11-27T09:41:44Z</time>
      </trkpt>
      <trkpt lat="48.40157" lon="2.59367">
        <ele>123</ele>
        <time>2011-11-27T09:41:55Z</time>
      </trkpt>
      <trkpt lat="48.4016" lon="2.5935">
        <ele>122</ele>
        <time>2011-11-27T09:42:03Z</time>
      </trkpt>
      <trkpt lat="48.40163" lon="2.59335">
        <ele>121</ele>
        <time>2011-11-27T09:42:08Z</time>
      </trkpt>
      <trkpt lat="48.4016" lon="2.59311">
        <ele>120</ele>
        <time>2011-11-27T09:42:15Z</time>
      </trkpt>
      <trkpt lat="48.40156" lon="2.59298">
        <ele>120</ele>
        <time>2011-11-27T09:42:19Z</time>
      </trkpt>
      <trkpt lat="48.40151" lon="2.59291">
        <ele>120</ele>
        <time>2011-11-27T09:42:22Z</time>
      </trkpt>
      <trkpt lat="48.40133" lon="2.59252">
        <ele>120</ele>
        <time>2011-11-27T09:42:35Z</time>
      </trkpt>
      <trkpt lat="48.40132" lon="2.5925">
        <ele>116</ele>
        <time>2011-11-27T09:42:36Z</time>
      </trkpt>
      <trkpt lat="48.40129" lon="2.59244">
        <ele>116</ele>
        <time>2011-11-27T09:42:50Z</time>
      </trkpt>
      <trkpt lat="48.40127" lon="2.59242">
        <ele>117</ele>
        <time>2011-11-27T09:52:42Z</time>
      </trkpt>
      <trkpt lat="48.40127" lon="2.59242">
        <ele>117</ele>
        <time>2011-11-27T09:53:08Z</time>
      </trkpt>
      <trkpt lat="48.40125" lon="2.59248">
        <ele>117</ele>
        <time>2011-11-27T09:53:12Z</time>
      </trkpt>
      <trkpt lat="48.40126" lon="2.59294">
        <ele>121</ele>
        <time>2011-11-27T09:53:25Z</time>
      </trkpt>
      <trkpt lat="48.40126" lon="2.59351">
        <ele>124</ele>
        <time>2011-11-27T09:53:38Z</time>
      </trkpt>
      <trkpt lat="48.40118" lon="2.59396">
        <ele>125</ele>
        <time>2011-11-27T09:53:49Z</time>
      </trkpt>
      <trkpt lat="48.40072" lon="2.59426">
        <ele>128</ele>
        <time>2011-11-27T09:54:05Z</time>
      </trkpt>
      <trkpt lat="48.4004" lon="2.59471">
        <ele>126</ele>
        <time>2011-11-27T09:54:18Z</time>
      </trkpt>
      <trkpt lat="48.40015" lon="2.59479">
        <ele>124</ele>
        <time>2011-11-27T09:54:27Z</time>
      </trkpt>
      <trkpt lat="48.40004" lon="2.59483">
        <ele>123</ele>
        <time>2011-11-27T09:54:33Z</time>
      </trkpt>
      <trkpt lat="48.4" lon="2.59485">
        <ele>123</ele>
        <time>2011-11-27T09:54:49Z</time>
      </trkpt>
      <trkpt lat="48.39993" lon="2.59488">
        <ele>121</ele>
        <time>2011-11-27T09:55:14Z</time>
      </trkpt>
      <trkpt lat="48.39991" lon="2.59489">
        <ele>121</ele>
        <time>2011-11-27T09:55:16Z</time>
      </trkpt>
      <trkpt lat="48.39983" lon="2.59486">
        <ele>121</ele>
        <time>2011-11-27T09:55:21Z</time>
      </trkpt>
      <trkpt lat="48.39956" lon="2.59496">
        <ele>120</ele>
        <time>2011-11-27T09:55:32Z</time>
      </trkpt>
      <trkpt lat="48.39938" lon="2.59502">
        <ele>119</ele>
        <time>2011-11-27T09:55:37Z</time>
      </trkpt>
      <trkpt lat="48.39924" lon="2.59488">
        <ele>119</ele>
        <time>2011-11-27T09:55:42Z</time>
      </trkpt>
      <trkpt lat="48.39893" lon="2.59463">
        <ele>120</ele>
        <time>2011-11-27T09:55:53Z</time>
      </trkpt>
      <trkpt lat="48.39892" lon="2.59462">
        <ele>120</ele>
        <time>2011-11-27T09:56:14Z</time>
      </trkpt>
      <trkpt lat="48.39887" lon="2.59507">
        <ele>118</ele>
        <time>2011-11-27T09:56:26Z</time>
      </trkpt>
      <trkpt lat="48.3989" lon="2.59581">
        <ele>118</ele>
        <time>2011-11-27T09:56:40Z</time>
      </trkpt>
      <trkpt lat="48.39894" lon="2.59666">
        <ele>118</ele>
        <time>2011-11-27T09:56:56Z</time>
      </trkpt>
      <trkpt lat="48.39901" lon="2.5978">
        <ele>119</ele>
        <time>2011-11-27T09:57:16Z</time>
      </trkpt>
      <trkpt lat="48.39912" lon="2.5986">
        <ele>120</ele>
        <time>2011-11-27T09:57:31Z</time>
      </trkpt>
      <trkpt lat="48.39889" lon="2.59908">
        <ele>120</ele>
        <time>2011-11-27T09:57:41Z</time>
      </trkpt>
      <trkpt lat="48.39853" lon="2.59976">
        <ele>120</ele>
        <time>2011-11-27T09:57:56Z</time>
      </trkpt>
      <trkpt lat="48.39829" lon="2.60038">
        <ele>118</ele>
        <time>2011-11-27T09:58:08Z</time>
      </trkpt>
      <trkpt lat="48.39811" lon="2.60128">
        <ele>117</ele>
        <time>2011-11-27T09:58:24Z</time>
      </trkpt>
      <trkpt lat="48.39799" lon="2.60185">
        <ele>117</ele>
        <time>2011-11-27T09:58:35Z</time>
      </trkpt>
      <trkpt lat="48.39789" lon="2.60183">
        <ele>117</ele>
        <time>2011-11-27T09:58:40Z</time>
      </trkpt>
      <trkpt lat="48.39776" lon="2.60147">
        <ele>117</ele>
        <time>2011-11-27T09:58:48Z</time>
      </trkpt>
      <trkpt lat="48.39757" lon="2.60131">
        <ele>117</ele>
        <time>2011-11-27T09:58:54Z</time>
      </trkpt>
      <trkpt lat="48.39748" lon="2.60116">
        <ele>116</ele>
        <time>2011-11-27T09:59:02Z</time>
      </trkpt>
      <trkpt lat="48.39743" lon="2.60112">
        <ele>116</ele>
        <time>2011-11-27T09:59:06Z</time>
      </trkpt>
      <trkpt lat="48.39737" lon="2.60095">
        <ele>116</ele>
        <time>2011-11-27T09:59:11Z</time>
      </trkpt>
      <trkpt lat="48.39709" lon="2.60057">
        <ele>113</ele>
        <time>2011-11-27T09:59:23Z</time>
      </trkpt>
      <trkpt lat="48.39697" lon="2.60051">
        <ele>113</ele>
        <time>2011-11-27T09:59:27Z</time>
      </trkpt>
      <trkpt lat="48.39689" lon="2.60052">
        <ele>113</ele>
        <time>2011-11-27T09:59:31Z</time>
      </trkpt>
      <trkpt lat="48.3968" lon="2.60052">
        <ele>112</ele>
        <time>2011-11-27T09:59:34Z</time>
      </trkpt>
      <trkpt lat="48.39667" lon="2.60035">
        <ele>112</ele>
        <time>2011-11-27T09:59:39Z</time>
      </trkpt>
      <trkpt lat="48.39657" lon="2.60016">
        <ele>106</ele>
        <time>2011-11-27T09:59:43Z</time>
      </trkpt>
      <trkpt lat="48.39646" lon="2.59997">
        <ele>105</ele>
        <time>2011-11-27T09:59:48Z</time>
      </trkpt>
      <trkpt lat="48.39638" lon="2.59974">
        <ele>104</ele>
        <time>2011-11-27T09:59:52Z</time>
      </trkpt>
      <trkpt lat="48.39627" lon="2.59966">
        <ele>103</ele>
        <time>2011-11-27T09:59:58Z</time>
      </trkpt>
      <trkpt lat="48.39618" lon="2.59965">
        <ele>102</ele>
        <time>2011-11-27T10:00:02Z</time>
      </trkpt>
      <trkpt lat="48.39611" lon="2.59966">
        <ele>101</ele>
        <time>2011-11-27T10:00:05Z</time>
      </trkpt>
      <trkpt lat="48.39599" lon="2.59967">
        <ele>100</ele>
        <time>2011-11-27T10:00:09Z</time>
      </trkpt>
      <trkpt lat="48.39579" lon="2.59973">
        <ele>93</ele>
        <time>2011-11-27T10:00:14Z</time>
      </trkpt>
      <trkpt lat="48.39525" lon="2.59979">
        <ele>92</ele>
        <time>2011-11-27T10:00:29Z</time>
      </trkpt>
      <trkpt lat="48.39492" lon="2.59973">
        <ele>92</ele>
        <time>2011-11-27T10:00:45Z</time>
      </trkpt>
      <trkpt lat="48.39461" lon="2.59955">
        <ele>94</ele>
        <time>2011-11-27T10:00:57Z</time>
      </trkpt>
      <trkpt lat="48.39417" lon="2.5993">
        <ele>97</ele>
        <time>2011-11-27T10:01:15Z</time>
      </trkpt>
      <trkpt lat="48.39373" lon="2.59904">
        <ele>103</ele>
        <time>2011-11-27T10:01:34Z</time>
      </trkpt>
      <trkpt lat="48.39328" lon="2.59875">
        <ele>110</ele>
        <time>2011-11-27T10:01:52Z</time>
      </trkpt>
      <trkpt lat="48.39299" lon="2.59858">
        <ele>112</ele>
        <time>2011-11-27T10:02:04Z</time>
      </trkpt>
      <trkpt lat="48.39265" lon="2.59852">
        <ele>115</ele>
        <time>2011-11-27T10:02:16Z</time>
      </trkpt>
      <trkpt lat="48.3923" lon="2.59846">
        <ele>122</ele>
        <time>2011-11-27T10:02:31Z</time>
      </trkpt>
      <trkpt lat="48.39188" lon="2.59837">
        <ele>125</ele>
        <time>2011-11-27T10:02:48Z</time>
      </trkpt>
      <trkpt lat="48.39151" lon="2.59831">
        <ele>128</ele>
        <time>2011-11-27T10:03:02Z</time>
      </trkpt>
      <trkpt lat="48.39119" lon="2.59823">
        <ele>129</ele>
        <time>2011-11-27T10:03:14Z</time>
      </trkpt>
      <trkpt lat="48.39068" lon="2.59816">
        <ele>129</ele>
        <time>2011-11-27T10:03:31Z</time>
      </trkpt>
      <trkpt lat="48.39005" lon="2.59804">
        <ele>129</ele>
        <time>2011-11-27T10:03:49Z</time>
      </trkpt>
      <trkpt lat="48.38958" lon="2.59795">
        <ele>127</ele>
        <time>2011-11-27T10:04:02Z</time>
      </trkpt>
      <trkpt lat="48.38911" lon="2.59782">
        <ele>125</ele>
        <time>2011-11-27T10:04:16Z</time>
      </trkpt>
      <trkpt lat="48.38918" lon="2.59727">
        <ele>126</ele>
        <time>2011-11-27T10:04:28Z</time>
      </trkpt>
      <trkpt lat="48.38938" lon="2.59651">
        <ele>126</ele>
        <time>2011-11-27T10:04:45Z</time>
      </trkpt>
      <trkpt lat="48.3896" lon="2.59562">
        <ele>126</ele>
        <time>2011-11-27T10:05:03Z</time>
      </trkpt>
      <trkpt lat="48.38981" lon="2.59479">
        <ele>126</ele>
        <time>2011-11-27T10:05:19Z</time>
      </trkpt>
      <trkpt lat="48.39015" lon="2.59401">
        <ele>128</ele>
        <time>2011-11-27T10:05:36Z</time>
      </trkpt>
      <trkpt lat="48.39047" lon="2.59319">
        <ele>126</ele>
        <time>2011-11-27T10:05:54Z</time>
      </trkpt>
      <trkpt lat="48.39066" lon="2.59251">
        <ele>127</ele>
        <time>2011-11-27T10:06:07Z</time>
      </trkpt>
      <trkpt lat="48.39078" lon="2.59213">
        <ele>125</ele>
        <time>2011-11-27T10:06:16Z</time>
      </trkpt>
      <trkpt lat="48.39071" lon="2.59207">
        <ele>125</ele>
        <time>2011-11-27T10:06:20Z</time>
      </trkpt>
      <trkpt lat="48.39014" lon="2.59223">
        <ele>123</ele>
        <time>2011-11-27T10:06:37Z</time>
      </trkpt>
      <trkpt lat="48.39011" lon="2.59225">
        <ele>123</ele>
        <time>2011-11-27T10:06:38Z</time>
      </trkpt>
      <trkpt lat="48.39002" lon="2.59239">
        <ele>123</ele>
        <time>2011-11-27T10:06:42Z</time>
      </trkpt>
      <trkpt lat="48.38995" lon="2.59254">
        <ele>122</ele>
        <time>2011-11-27T10:06:46Z</time>
      </trkpt>
      <trkpt lat="48.38987" lon="2.5926">
        <ele>123</ele>
        <time>2011-11-27T10:06:52Z</time>
      </trkpt>
      <trkpt lat="48.38975" lon="2.5927">
        <ele>123</ele>
        <time>2011-11-27T10:06:57Z</time>
      </trkpt>
      <trkpt lat="48.38959" lon="2.59271">
        <ele>123</ele>
        <time>2011-11-27T10:07:06Z</time>
      </trkpt>
      <trkpt lat="48.38951" lon="2.59283">
        <ele>123</ele>
        <time>2011-11-27T10:07:22Z</time>
      </trkpt>
      <trkpt lat="48.3894" lon="2.59296">
        <ele>123</ele>
        <time>2011-11-27T10:07:38Z</time>
      </trkpt>
      <trkpt lat="48.38934" lon="2.59304">
        <ele>123</ele>
        <time>2011-11-27T10:07:50Z</time>
      </trkpt>
      <trkpt lat="48.38919" lon="2.59311">
        <ele>123</ele>
        <time>2011-11-27T10:08:02Z</time>
      </trkpt>
      <trkpt lat="48.3892" lon="2.59296">
        <ele>123</ele>
        <time>2011-11-27T10:08:08Z</time>
      </trkpt>
      <trkpt lat="48.38934" lon="2.59258">
        <ele>123</ele>
        <time>2011-11-27T10:08:21Z</time>
      </trkpt>
      <trkpt lat="48.38935" lon="2.59247">
        <ele>123</ele>
        <time>2011-11-27T10:08:24Z</time>
      </trkpt>
      <trkpt lat="48.38937" lon="2.59234">
        <ele>123</ele>
        <time>2011-11-27T10:08:27Z</time>
      </trkpt>
      <trkpt lat="48.38942" lon="2.59207">
        <ele>123</ele>
        <time>2011-11-27T10:08:33Z</time>
      </trkpt>
      <trkpt lat="48.38938" lon="2.59155">
        <ele>122</ele>
        <time>2011-11-27T10:08:44Z</time>
      </trkpt>
      <trkpt lat="48.38934" lon="2.59125">
        <ele>122</ele>
        <time>2011-11-27T10:08:51Z</time>
      </trkpt>
      <trkpt lat="48.38936" lon="2.59065">
        <ele>121</ele>
        <time>2011-11-27T10:09:05Z</time>
      </trkpt>
      <trkpt lat="48.38943" lon="2.59052">
        <ele>121</ele>
        <time>2011-11-27T10:09:09Z</time>
      </trkpt>
      <trkpt lat="48.38943" lon="2.59038">
        <ele>121</ele>
        <time>2011-11-27T10:09:13Z</time>
      </trkpt>
      <trkpt lat="48.38945" lon="2.59022">
        <ele>121</ele>
        <time>2011-11-27T10:09:17Z</time>
      </trkpt>
      <trkpt lat="48.38944" lon="2.59009">
        <ele>121</ele>
        <time>2011-11-27T10:09:20Z</time>
      </trkpt>
      <trkpt lat="48.38935" lon="2.58986">
        <ele>122</ele>
        <time>2011-11-27T10:09:26Z</time>
      </trkpt>
      <trkpt lat="48.38937" lon="2.58975">
        <ele>121</ele>
        <time>2011-11-27T10:09:29Z</time>
      </trkpt>
      <trkpt lat="48.3894" lon="2.58942">
        <ele>121</ele>
        <time>2011-11-27T10:09:37Z</time>
      </trkpt>
      <trkpt lat="48.38933" lon="2.58911">
        <ele>122</ele>
        <time>2011-11-27T10:09:45Z</time>
      </trkpt>
      <trkpt lat="48.38934" lon="2.58895">
        <ele>121</ele>
        <time>2011-11-27T10:09:49Z</time>
      </trkpt>
      <trkpt lat="48.38936" lon="2.5886">
        <ele>120</ele>
        <time>2011-11-27T10:09:56Z</time>
      </trkpt>
      <trkpt lat="48.38933" lon="2.58844">
        <ele>121</ele>
        <time>2011-11-27T10:10:00Z</time>
      </trkpt>
      <trkpt lat="48.38931" lon="2.5883">
        <ele>121</ele>
        <time>2011-11-27T10:10:04Z</time>
      </trkpt>
      <trkpt lat="48.3893" lon="2.58787">
        <ele>120</ele>
        <time>2011-11-27T10:10:14Z</time>
      </trkpt>
      <trkpt lat="48.38942" lon="2.58742">
        <ele>121</ele>
        <time>2011-11-27T10:10:24Z</time>
      </trkpt>
      <trkpt lat="48.38944" lon="2.58737">
        <ele>120</ele>
        <time>2011-11-27T10:10:25Z</time>
      </trkpt>
      <trkpt lat="48.38949" lon="2.58672">
        <ele>121</ele>
        <time>2011-11-27T10:10:38Z</time>
      </trkpt>
      <trkpt lat="48.3895" lon="2.5866">
        <ele>122</ele>
        <time>2011-11-27T10:10:40Z</time>
      </trkpt>
      <trkpt lat="48.38959" lon="2.58631">
        <ele>122</ele>
        <time>2011-11-27T10:10:46Z</time>
      </trkpt>
      <trkpt lat="48.38958" lon="2.5862">
        <ele>122</ele>
        <time>2011-11-27T10:10:48Z</time>
      </trkpt>
      <trkpt lat="48.38971" lon="2.5859">
        <ele>122</ele>
        <time>2011-11-27T10:10:55Z</time>
      </trkpt>
      <trkpt lat="48.38975" lon="2.58583">
        <ele>122</ele>
        <time>2011-11-27T10:10:57Z</time>
      </trkpt>
      <trkpt lat="48.38988" lon="2.58534">
        <ele>123</ele>
        <time>2011-11-27T10:11:09Z</time>
      </trkpt>
      <trkpt lat="48.38991" lon="2.58509">
        <ele>123</ele>
        <time>2011-11-27T10:11:14Z</time>
      </trkpt>
      <trkpt lat="48.39006" lon="2.58479">
        <ele>118</ele>
        <time>2011-11-27T10:11:22Z</time>
      </trkpt>
      <trkpt lat="48.39015" lon="2.58458">
        <ele>117</ele>
        <time>2011-11-27T10:11:27Z</time>
      </trkpt>
      <trkpt lat="48.39024" lon="2.584">
        <ele>118</ele>
        <time>2011-11-27T10:11:40Z</time>
      </trkpt>
      <trkpt lat="48.39029" lon="2.58376">
        <ele>117</ele>
        <time>2011-11-27T10:11:45Z</time>
      </trkpt>
      <trkpt lat="48.39026" lon="2.58356">
        <ele>118</ele>
        <time>2011-11-27T10:11:50Z</time>
      </trkpt>
      <trkpt lat="48.39026" lon="2.58345">
        <ele>118</ele>
        <time>2011-11-27T10:11:53Z</time>
      </trkpt>
      <trkpt lat="48.39024" lon="2.58332">
        <ele>119</ele>
        <time>2011-11-27T10:11:56Z</time>
      </trkpt>
      <trkpt lat="48.39027" lon="2.58323">
        <ele>119</ele>
        <time>2011-11-27T10:11:59Z</time>
      </trkpt>
      <trkpt lat="48.39024" lon="2.58311">
        <ele>118</ele>
        <time>2011-11-27T10:12:03Z</time>
      </trkpt>
      <trkpt lat="48.39026" lon="2.58289">
        <ele>118</ele>
        <time>2011-11-27T10:12:08Z</time>
      </trkpt>
      <trkpt lat="48.39022" lon="2.58266">
        <ele>119</ele>
        <time>2011-11-27T10:12:14Z</time>
      </trkpt>
      <trkpt lat="48.39004" lon="2.58244">
        <ele>122</ele>
        <time>2011-11-27T10:12:24Z</time>
      </trkpt>
      <trkpt lat="48.38997" lon="2.58231">
        <ele>124</ele>
        <time>2011-11-27T10:12:27Z</time>
      </trkpt>
      <trkpt lat="48.39002" lon="2.58199">
        <ele>120</ele>
        <time>2011-11-27T10:12:34Z</time>
      </trkpt>
      <trkpt lat="48.39009" lon="2.58175">
        <ele>121</ele>
        <time>2011-11-27T10:12:39Z</time>
      </trkpt>
      <trkpt lat="48.39013" lon="2.58164">
        <ele>122</ele>
        <time>2011-11-27T10:12:42Z</time>
      </trkpt>
      <trkpt lat="48.39022" lon="2.58143">
        <ele>120</ele>
        <time>2011-11-27T10:12:48Z</time>
      </trkpt>
      <trkpt lat="48.39027" lon="2.58137">
        <ele>119</ele>
        <time>2011-11-27T10:12:51Z</time>
      </trkpt>
      <trkpt lat="48.39037" lon="2.58123">
        <ele>119</ele>
        <time>2011-11-27T10:12:58Z</time>
      </trkpt>
      <trkpt lat="48.39038" lon="2.5812">
        <ele>119</ele>
        <time>2011-11-27T10:12:59Z</time>
      </trkpt>
      <trkpt lat="48.39041" lon="2.58115">
        <ele>119</ele>
        <time>2011-11-27T10:13:01Z</time>
      </trkpt>
      <trkpt lat="48.39042" lon="2.581">
        <ele>119</ele>
        <time>2011-11-27T10:13:06Z</time>
      </trkpt>
      <trkpt lat="48.39043" lon="2.58093">
        <ele>119</ele>
        <time>2011-11-27T10:13:08Z</time>
      </trkpt>
      <trkpt lat="48.39046" lon="2.58059">
        <ele>118</ele>
        <time>2011-11-27T10:13:17Z</time>
      </trkpt>
      <trkpt lat="48.3905" lon="2.5805">
        <ele>118</ele>
        <time>2011-11-27T10:13:20Z</time>
      </trkpt>
      <trkpt lat="48.39045" lon="2.58039">
        <ele>118</ele>
        <time>2011-11-27T10:13:24Z</time>
      </trkpt>
      <trkpt lat="48.39044" lon="2.58023">
        <ele>118</ele>
        <time>2011-11-27T10:13:28Z</time>
      </trkpt>
      <trkpt lat="48.39038" lon="2.57976">
        <ele>119</ele>
        <time>2011-11-27T10:13:38Z</time>
      </trkpt>
      <trkpt lat="48.39048" lon="2.5794">
        <ele>118</ele>
        <time>2011-11-27T10:13:47Z</time>
      </trkpt>
      <trkpt lat="48.3905" lon="2.57932">
        <ele>118</ele>
        <time>2011-11-27T10:13:49Z</time>
      </trkpt>
      <trkpt lat="48.39047" lon="2.57918">
        <ele>118</ele>
        <time>2011-11-27T10:13:53Z</time>
      </trkpt>
      <trkpt lat="48.39047" lon="2.57905">
        <ele>119</ele>
        <time>2011-11-27T10:13:56Z</time>
      </trkpt>
      <trkpt lat="48.39037" lon="2.57889">
        <ele>119</ele>
        <time>2011-11-27T10:14:00Z</time>
      </trkpt>
      <trkpt lat="48.39008" lon="2.57839">
        <ele>122</ele>
        <time>2011-11-27T10:14:12Z</time>
      </trkpt>
      <trkpt lat="48.39004" lon="2.57824">
        <ele>122</ele>
        <time>2011-11-27T10:14:16Z</time>
      </trkpt>
      <trkpt lat="48.39009" lon="2.57785">
        <ele>121</ele>
        <time>2011-11-27T10:14:27Z</time>
      </trkpt>
      <trkpt lat="48.39006" lon="2.57766">
        <ele>122</ele>
        <time>2011-11-27T10:14:35Z</time>
      </trkpt>
      <trkpt lat="48.39016" lon="2.57732">
        <ele>122</ele>
        <time>2011-11-27T10:14:43Z</time>
      </trkpt>
      <trkpt lat="48.39017" lon="2.57711">
        <ele>121</ele>
        <time>2011-11-27T10:14:48Z</time>
      </trkpt>
      <trkpt lat="48.39019" lon="2.57704">
        <ele>121</ele>
        <time>2011-11-27T10:14:50Z</time>
      </trkpt>
      <trkpt lat="48.39026" lon="2.57692">
        <ele>121</ele>
        <time>2011-11-27T10:14:53Z</time>
      </trkpt>
      <trkpt lat="48.3903" lon="2.57657">
        <ele>121</ele>
        <time>2011-11-27T10:15:00Z</time>
      </trkpt>
      <trkpt lat="48.39037" lon="2.57644">
        <ele>121</ele>
        <time>2011-11-27T10:15:04Z</time>
      </trkpt>
      <trkpt lat="48.39036" lon="2.57589">
        <ele>121</ele>
        <time>2011-11-27T10:15:16Z</time>
      </trkpt>
      <trkpt lat="48.39041" lon="2.57569">
        <ele>120</ele>
        <time>2011-11-27T10:15:20Z</time>
      </trkpt>
      <trkpt lat="48.39036" lon="2.57543">
        <ele>119</ele>
        <time>2011-11-27T10:15:27Z</time>
      </trkpt>
      <trkpt lat="48.39039" lon="2.57541">
        <ele>119</ele>
        <time>2011-11-27T10:15:29Z</time>
      </trkpt>
      <trkpt lat="48.39047" lon="2.57514">
        <ele>119</ele>
        <time>2011-11-27T10:15:36Z</time>
      </trkpt>
      <trkpt lat="48.39044" lon="2.575">
        <ele>119</ele>
        <time>2011-11-27T10:15:39Z</time>
      </trkpt>
      <trkpt lat="48.39027" lon="2.57475">
        <ele>118</ele>
        <time>2011-11-27T10:15:48Z</time>
      </trkpt>
      <trkpt lat="48.3903" lon="2.57453">
        <ele>118</ele>
        <time>2011-11-27T10:15:54Z</time>
      </trkpt>
      <trkpt lat="48.39026" lon="2.5744">
        <ele>118</ele>
        <time>2011-11-27T10:15:58Z</time>
      </trkpt>
      <trkpt lat="48.39026" lon="2.57426">
        <ele>118</ele>
        <time>2011-11-27T10:16:04Z</time>
      </trkpt>
      <trkpt lat="48.39025" lon="2.57403">
        <ele>118</ele>
        <time>2011-11-27T10:16:11Z</time>
      </trkpt>
      <trkpt lat="48.39026" lon="2.57385">
        <ele>118</ele>
        <time>2011-11-27T10:16:16Z</time>
      </trkpt>
      <trkpt lat="48.3903" lon="2.57385">
        <ele>118</ele>
        <time>2011-11-27T10:16:26Z</time>
      </trkpt>
      <trkpt lat="48.3903" lon="2.57381">
        <ele>118</ele>
        <time>2011-11-27T10:16:37Z</time>
      </trkpt>
      <trkpt lat="48.39031" lon="2.5738">
        <ele>118</ele>
        <time>2011-11-27T10:16:39Z</time>
      </trkpt>
      <trkpt lat="48.39034" lon="2.57377">
        <ele>118</ele>
        <time>2011-11-27T10:16:44Z</time>
      </trkpt>
      <trkpt lat="48.39035" lon="2.5737">
        <ele>118</ele>
        <time>2011-11-27T10:16:47Z</time>
      </trkpt>
      <trkpt lat="48.39046" lon="2.57345">
        <ele>118</ele>
        <time>2011-11-27T10:16:55Z</time>
      </trkpt>
      <trkpt lat="48.39061" lon="2.57304">
        <ele>117</ele>
        <time>2011-11-27T10:17:04Z</time>
      </trkpt>
      <trkpt lat="48.39063" lon="2.57302">
        <ele>117</ele>
        <time>2011-11-27T10:17:05Z</time>
      </trkpt>
      <trkpt lat="48.39069" lon="2.57301">
        <ele>117</ele>
        <time>2011-11-27T10:17:07Z</time>
      </trkpt>
      <trkpt lat="48.39075" lon="2.5729">
        <ele>117</ele>
        <time>2011-11-27T10:17:12Z</time>
      </trkpt>
      <trkpt lat="48.39076" lon="2.57275">
        <ele>117</ele>
        <time>2011-11-27T10:17:16Z</time>
      </trkpt>
      <trkpt lat="48.39074" lon="2.57256">
        <ele>117</ele>
        <time>2011-11-27T10:17:20Z</time>
      </trkpt>
      <trkpt lat="48.39089" lon="2.57205">
        <ele>117</ele>
        <time>2011-11-27T10:17:31Z</time>
      </trkpt>
      <trkpt lat="48.39092" lon="2.57197">
        <ele>117</ele>
        <time>2011-11-27T10:17:33Z</time>
      </trkpt>
      <trkpt lat="48.39102" lon="2.57186">
        <ele>117</ele>
        <time>2011-11-27T10:17:38Z</time>
      </trkpt>
      <trkpt lat="48.39113" lon="2.57165">
        <ele>118</ele>
        <time>2011-11-27T10:17:44Z</time>
      </trkpt>
      <trkpt lat="48.39117" lon="2.57161">
        <ele>118</ele>
        <time>2011-11-27T10:17:46Z</time>
      </trkpt>
      <trkpt lat="48.39124" lon="2.57145">
        <ele>118</ele>
        <time>2011-11-27T10:17:52Z</time>
      </trkpt>
      <trkpt lat="48.39127" lon="2.57119">
        <ele>118</ele>
        <time>2011-11-27T10:17:57Z</time>
      </trkpt>
      <trkpt lat="48.39135" lon="2.57097">
        <ele>118</ele>
        <time>2011-11-27T10:18:01Z</time>
      </trkpt>
      <trkpt lat="48.3914" lon="2.57047">
        <ele>117</ele>
        <time>2011-11-27T10:18:10Z</time>
      </trkpt>
      <trkpt lat="48.39143" lon="2.57032">
        <ele>117</ele>
        <time>2011-11-27T10:18:13Z</time>
      </trkpt>
      <trkpt lat="48.39149" lon="2.57011">
        <ele>118</ele>
        <time>2011-11-27T10:18:17Z</time>
      </trkpt>
      <trkpt lat="48.39153" lon="2.56994">
        <ele>117</ele>
        <time>2011-11-27T10:18:20Z</time>
      </trkpt>
      <trkpt lat="48.39158" lon="2.56988">
        <ele>117</ele>
        <time>2011-11-27T10:18:22Z</time>
      </trkpt>
      <trkpt lat="48.39163" lon="2.56974">
        <ele>116</ele>
        <time>2011-11-27T10:18:25Z</time>
      </trkpt>
      <trkpt lat="48.39168" lon="2.56955">
        <ele>114</ele>
        <time>2011-11-27T10:18:29Z</time>
      </trkpt>
      <trkpt lat="48.39158" lon="2.5693">
        <ele>116</ele>
        <time>2011-11-27T10:18:34Z</time>
      </trkpt>
      <trkpt lat="48.39159" lon="2.56899">
        <ele>115</ele>
        <time>2011-11-27T10:18:42Z</time>
      </trkpt>
      <trkpt lat="48.39169" lon="2.56885">
        <ele>114</ele>
        <time>2011-11-27T10:18:47Z</time>
      </trkpt>
      <trkpt lat="48.39177" lon="2.56848">
        <ele>115</ele>
        <time>2011-11-27T10:18:57Z</time>
      </trkpt>
      <trkpt lat="48.39177" lon="2.56823">
        <ele>116</ele>
        <time>2011-11-27T10:19:02Z</time>
      </trkpt>
      <trkpt lat="48.39176" lon="2.56777">
        <ele>115</ele>
        <time>2011-11-27T10:19:11Z</time>
      </trkpt>
      <trkpt lat="48.39182" lon="2.56745">
        <ele>115</ele>
        <time>2011-11-27T10:19:18Z</time>
      </trkpt>
      <trkpt lat="48.39187" lon="2.56733">
        <ele>114</ele>
        <time>2011-11-27T10:19:22Z</time>
      </trkpt>
      <trkpt lat="48.39196" lon="2.56721">
        <ele>113</ele>
        <time>2011-11-27T10:19:26Z</time>
      </trkpt>
      <trkpt lat="48.392" lon="2.56675">
        <ele>112</ele>
        <time>2011-11-27T10:19:36Z</time>
      </trkpt>
      <trkpt lat="48.39203" lon="2.56665">
        <ele>111</ele>
        <time>2011-11-27T10:19:48Z</time>
      </trkpt>
      <trkpt lat="48.39204" lon="2.56657">
        <ele>111</ele>
        <time>2011-11-27T10:19:58Z</time>
      </trkpt>
      <trkpt lat="48.39211" lon="2.56628">
        <ele>111</ele>
        <time>2011-11-27T10:20:06Z</time>
      </trkpt>
      <trkpt lat="48.39209" lon="2.56594">
        <ele>111</ele>
        <time>2011-11-27T10:20:16Z</time>
      </trkpt>
      <trkpt lat="48.39208" lon="2.5659">
        <ele>111</ele>
        <time>2011-11-27T10:20:30Z</time>
      </trkpt>
      <trkpt lat="48.39208" lon="2.5659">
        <ele>111</ele>
        <time>2011-11-27T10:20:48Z</time>
      </trkpt>
      <trkpt lat="48.39201" lon="2.5658">
        <ele>110</ele>
        <time>2011-11-27T10:20:53Z</time>
      </trkpt>
      <trkpt lat="48.39193" lon="2.56556">
        <ele>110</ele>
        <time>2011-11-27T10:21:02Z</time>
      </trkpt>
      <trkpt lat="48.39193" lon="2.56533">
        <ele>110</ele>
        <time>2011-11-27T10:21:09Z</time>
      </trkpt>
      <trkpt lat="48.39197" lon="2.56529">
        <ele>110</ele>
        <time>2011-11-27T10:21:11Z</time>
      </trkpt>
      <trkpt lat="48.39205" lon="2.5652">
        <ele>110</ele>
        <time>2011-11-27T10:21:15Z</time>
      </trkpt>
      <trkpt lat="48.39206" lon="2.56499">
        <ele>109</ele>
        <time>2011-11-27T10:21:21Z</time>
      </trkpt>
      <trkpt lat="48.39214" lon="2.56486">
        <ele>110</ele>
        <time>2011-11-27T10:21:27Z</time>
      </trkpt>
      <trkpt lat="48.39235" lon="2.56472">
        <ele>111</ele>
        <time>2011-11-27T10:21:37Z</time>
      </trkpt>
      <trkpt lat="48.39238" lon="2.56456">
        <ele>110</ele>
        <time>2011-11-27T10:21:41Z</time>
      </trkpt>
      <trkpt lat="48.39243" lon="2.56428">
        <ele>111</ele>
        <time>2011-11-27T10:21:48Z</time>
      </trkpt>
      <trkpt lat="48.39245" lon="2.564">
        <ele>110</ele>
        <time>2011-11-27T10:21:56Z</time>
      </trkpt>
      <trkpt lat="48.39245" lon="2.56391">
        <ele>109</ele>
        <time>2011-11-27T10:22:00Z</time>
      </trkpt>
      <trkpt lat="48.39254" lon="2.56364">
        <ele>105</ele>
        <time>2011-11-27T10:22:10Z</time>
      </trkpt>
      <trkpt lat="48.39254" lon="2.56359">
        <ele>106</ele>
        <time>2011-11-27T10:22:24Z</time>
      </trkpt>
      <trkpt lat="48.39254" lon="2.56352">
        <ele>106</ele>
        <time>2011-11-27T10:22:34Z</time>
      </trkpt>
      <trkpt lat="48.39254" lon="2.56351">
        <ele>107</ele>
        <time>2011-11-27T10:22:35Z</time>
      </trkpt>
      <trkpt lat="48.39254" lon="2.56328">
        <ele>109</ele>
        <time>2011-11-27T10:22:46Z</time>
      </trkpt>
      <trkpt lat="48.39247" lon="2.56296">
        <ele>105</ele>
        <time>2011-11-27T10:22:54Z</time>
      </trkpt>
      <trkpt lat="48.39249" lon="2.56287">
        <ele>105</ele>
        <time>2011-11-27T10:23:08Z</time>
      </trkpt>
      <trkpt lat="48.39246" lon="2.56284">
        <ele>104</ele>
        <time>2011-11-27T10:23:23Z</time>
      </trkpt>
      <trkpt lat="48.39248" lon="2.56278">
        <ele>104</ele>
        <time>2011-11-27T10:23:35Z</time>
      </trkpt>
      <trkpt lat="48.39247" lon="2.56274">
        <ele>104</ele>
        <time>2011-11-27T10:23:56Z</time>
      </trkpt>
      <trkpt lat="48.39248" lon="2.56268">
        <ele>105</ele>
        <time>2011-11-27T10:24:09Z</time>
      </trkpt>
      <trkpt lat="48.39249" lon="2.56261">
        <ele>105</ele>
        <time>2011-11-27T10:24:22Z</time>
      </trkpt>
      <trkpt lat="48.39249" lon="2.56255">
        <ele>106</ele>
        <time>2011-11-27T10:24:41Z</time>
      </trkpt>
      <trkpt lat="48.39247" lon="2.56239">
        <ele>103</ele>
        <time>2011-11-27T10:24:50Z</time>
      </trkpt>
      <trkpt lat="48.39245" lon="2.56217">
        <ele>100</ele>
        <time>2011-11-27T10:24:57Z</time>
      </trkpt>
      <trkpt lat="48.39247" lon="2.56213">
        <ele>100</ele>
        <time>2011-11-27T10:25:00Z</time>
      </trkpt>
      <trkpt lat="48.39248" lon="2.56202">
        <ele>99</ele>
        <time>2011-11-27T10:25:04Z</time>
      </trkpt>
      <trkpt lat="48.39251" lon="2.56191">
        <ele>100</ele>
        <time>2011-11-27T10:25:06Z</time>
      </trkpt>
      <trkpt lat="48.39262" lon="2.56184">
        <ele>99</ele>
        <time>2011-11-27T10:25:10Z</time>
      </trkpt>
      <trkpt lat="48.39278" lon="2.56171">
        <ele>99</ele>
        <time>2011-11-27T10:25:18Z</time>
      </trkpt>
      <trkpt lat="48.39284" lon="2.56167">
        <ele>99</ele>
        <time>2011-11-27T10:25:20Z</time>
      </trkpt>
      <trkpt lat="48.39288" lon="2.56157">
        <ele>99</ele>
        <time>2011-11-27T10:25:24Z</time>
      </trkpt>
      <trkpt lat="48.39293" lon="2.56111">
        <ele>99</ele>
        <time>2011-11-27T10:25:34Z</time>
      </trkpt>
      <trkpt lat="48.39294" lon="2.56081">
        <ele>101</ele>
        <time>2011-11-27T10:25:42Z</time>
      </trkpt>
      <trkpt lat="48.39296" lon="2.56075">
        <ele>101</ele>
        <time>2011-11-27T10:25:44Z</time>
      </trkpt>
      <trkpt lat="48.39298" lon="2.56068">
        <ele>101</ele>
        <time>2011-11-27T10:25:47Z</time>
      </trkpt>
      <trkpt lat="48.39304" lon="2.56054">
        <ele>101</ele>
        <time>2011-11-27T10:25:52Z</time>
      </trkpt>
      <trkpt lat="48.39307" lon="2.56043">
        <ele>101</ele>
        <time>2011-11-27T10:25:56Z</time>
      </trkpt>
      <trkpt lat="48.39307" lon="2.55999">
        <ele>101</ele>
        <time>2011-11-27T10:26:08Z</time>
      </trkpt>
      <trkpt lat="48.39297" lon="2.55991">
        <ele>100</ele>
        <time>2011-11-27T10:26:12Z</time>
      </trkpt>
      <trkpt lat="48.39285" lon="2.55982">
        <ele>100</ele>
        <time>2011-11-27T10:26:17Z</time>
      </trkpt>
      <trkpt lat="48.3928" lon="2.55953">
        <ele>99</ele>
        <time>2011-11-27T10:26:24Z</time>
      </trkpt>
      <trkpt lat="48.39287" lon="2.55938">
        <ele>99</ele>
        <time>2011-11-27T10:26:28Z</time>
      </trkpt>
      <trkpt lat="48.39288" lon="2.55915">
        <ele>97</ele>
        <time>2011-11-27T10:26:32Z</time>
      </trkpt>
      <trkpt lat="48.39289" lon="2.55907">
        <ele>97</ele>
        <time>2011-11-27T10:26:34Z</time>
      </trkpt>
      <trkpt lat="48.3929" lon="2.55899">
        <ele>97</ele>
        <time>2011-11-27T10:26:38Z</time>
      </trkpt>
      <trkpt lat="48.39287" lon="2.55879">
        <ele>97</ele>
        <time>2011-11-27T10:26:44Z</time>
      </trkpt>
      <trkpt lat="48.3929" lon="2.55869">
        <ele>97</ele>
        <time>2011-11-27T10:26:46Z</time>
      </trkpt>
      <trkpt lat="48.39296" lon="2.55842">
        <ele>97</ele>
        <time>2011-11-27T10:26:54Z</time>
      </trkpt>
      <trkpt lat="48.39301" lon="2.55833">
        <ele>96</ele>
        <time>2011-11-27T10:27:06Z</time>
      </trkpt>
      <trkpt lat="48.39324" lon="2.55804">
        <ele>97</ele>
        <time>2011-11-27T10:27:15Z</time>
      </trkpt>
      <trkpt lat="48.39324" lon="2.55775">
        <ele>97</ele>
        <time>2011-11-27T10:27:23Z</time>
      </trkpt>
      <trkpt lat="48.39323" lon="2.55772">
        <ele>97</ele>
        <time>2011-11-27T10:27:24Z</time>
      </trkpt>
      <trkpt lat="48.39317" lon="2.55765">
        <ele>96</ele>
        <time>2011-11-27T10:27:29Z</time>
      </trkpt>
      <trkpt lat="48.3932" lon="2.55744">
        <ele>95</ele>
        <time>2011-11-27T10:27:35Z</time>
      </trkpt>
      <trkpt lat="48.39335" lon="2.55706">
        <ele>94</ele>
        <time>2011-11-27T10:27:46Z</time>
      </trkpt>
      <trkpt lat="48.39334" lon="2.55702">
        <ele>93</ele>
        <time>2011-11-27T10:27:50Z</time>
      </trkpt>
      <trkpt lat="48.3932" lon="2.55686">
        <ele>91</ele>
        <time>2011-11-27T10:27:58Z</time>
      </trkpt>
      <trkpt lat="48.39302" lon="2.55654">
        <ele>85</ele>
        <time>2011-11-27T10:28:07Z</time>
      </trkpt>
      <trkpt lat="48.39289" lon="2.55637">
        <ele>83</ele>
        <time>2011-11-27T10:28:13Z</time>
      </trkpt>
      <trkpt lat="48.3928" lon="2.55621">
        <ele>82</ele>
        <time>2011-11-27T10:28:19Z</time>
      </trkpt>
      <trkpt lat="48.39275" lon="2.55615">
        <ele>82</ele>
        <time>2011-11-27T10:28:21Z</time>
      </trkpt>
      <trkpt lat="48.39262" lon="2.55607">
        <ele>81</ele>
        <time>2011-11-27T10:28:26Z</time>
      </trkpt>
      <trkpt lat="48.39242" lon="2.5559">
        <ele>77</ele>
        <time>2011-11-27T10:28:36Z</time>
      </trkpt>
      <trkpt lat="48.39242" lon="2.55591">
        <ele>77</ele>
        <time>2011-11-27T10:29:00Z</time>
      </trkpt>
      <trkpt lat="48.39235" lon="2.55603">
        <ele>77</ele>
        <time>2011-11-27T10:29:06Z</time>
      </trkpt>
      <trkpt lat="48.39233" lon="2.55617">
        <ele>78</ele>
        <time>2011-11-27T10:29:10Z</time>
      </trkpt>
      <trkpt lat="48.39215" lon="2.55696">
        <ele>79</ele>
        <time>2011-11-27T10:29:29Z</time>
      </trkpt>
      <trkpt lat="48.39202" lon="2.55747">
        <ele>79</ele>
        <time>2011-11-27T10:29:40Z</time>
      </trkpt>
      <trkpt lat="48.3918" lon="2.55825">
        <ele>81</ele>
        <time>2011-11-27T10:29:56Z</time>
      </trkpt>
      <trkpt lat="48.39161" lon="2.55903">
        <ele>81</ele>
        <time>2011-11-27T10:30:11Z</time>
      </trkpt>
      <trkpt lat="48.39153" lon="2.56047">
        <ele>84</ele>
        <time>2011-11-27T10:30:37Z</time>
      </trkpt>
      <trkpt lat="48.39148" lon="2.56113">
        <ele>86</ele>
        <time>2011-11-27T10:30:51Z</time>
      </trkpt>
      <trkpt lat="48.39147" lon="2.56152">
        <ele>87</ele>
        <time>2011-11-27T10:31:04Z</time>
      </trkpt>
      <trkpt lat="48.39147" lon="2.5615">
        <ele>87</ele>
        <time>2011-11-27T10:31:13Z</time>
      </trkpt>
      <trkpt lat="48.3915" lon="2.56145">
        <ele>87</ele>
        <time>2011-11-27T10:31:17Z</time>
      </trkpt>
      <trkpt lat="48.39156" lon="2.56148">
        <ele>87</ele>
        <time>2011-11-27T10:31:21Z</time>
      </trkpt>
      <trkpt lat="48.39159" lon="2.56151">
        <ele>87</ele>
        <time>2011-11-27T10:31:24Z</time>
      </trkpt>
      <trkpt lat="48.39161" lon="2.56154">
        <ele>87</ele>
        <time>2011-11-27T10:31:26Z</time>
      </trkpt>
      <trkpt lat="48.39164" lon="2.56157">
        <ele>87</ele>
        <time>2011-11-27T10:31:29Z</time>
      </trkpt>
      <trkpt lat="48.39166" lon="2.56161">
        <ele>88</ele>
        <time>2011-11-27T10:31:31Z</time>
      </trkpt>
      <trkpt lat="48.39171" lon="2.56158">
        <ele>90</ele>
        <time>2011-11-27T10:31:44Z</time>
      </trkpt>
      <trkpt lat="48.39173" lon="2.56157">
        <ele>90</ele>
        <time>2011-11-27T10:31:48Z</time>
      </trkpt>
      <trkpt lat="48.39182" lon="2.56151">
        <ele>91</ele>
        <time>2011-11-27T10:32:02Z</time>
      </trkpt>
      <trkpt lat="48.39191" lon="2.56151">
        <ele>92</ele>
        <time>2011-11-27T10:32:16Z</time>
      </trkpt>
      <trkpt lat="48.3919" lon="2.56151">
        <ele>92</ele>
        <time>2011-11-27T10:32:18Z</time>
      </trkpt>
      <trkpt lat="48.39195" lon="2.56149">
        <ele>93</ele>
        <time>2011-11-27T10:32:27Z</time>
      </trkpt>
      <trkpt lat="48.39197" lon="2.56149">
        <ele>93</ele>
        <time>2011-11-27T10:32:31Z</time>
      </trkpt>
      <trkpt lat="48.39208" lon="2.56148">
        <ele>94</ele>
        <time>2011-11-27T10:32:46Z</time>
      </trkpt>
      <trkpt lat="48.39213" lon="2.56165">
        <ele>94</ele>
        <time>2011-11-27T10:33:01Z</time>
      </trkpt>
      <trkpt lat="48.3921" lon="2.56168">
        <ele>96</ele>
        <time>2011-11-27T10:33:05Z</time>
      </trkpt>
      <trkpt lat="48.39218" lon="2.5618">
        <ele>97</ele>
        <time>2011-11-27T10:33:16Z</time>
      </trkpt>
      <trkpt lat="48.39218" lon="2.56189">
        <ele>97</ele>
        <time>2011-11-27T10:33:29Z</time>
      </trkpt>
      <trkpt lat="48.3922" lon="2.56192">
        <ele>97</ele>
        <time>2011-11-27T10:33:33Z</time>
      </trkpt>
      <trkpt lat="48.39228" lon="2.56193">
        <ele>98</ele>
        <time>2011-11-27T10:33:42Z</time>
      </trkpt>
      <trkpt lat="48.39232" lon="2.56194">
        <ele>98</ele>
        <time>2011-11-27T10:33:51Z</time>
      </trkpt>
      <trkpt lat="48.39232" lon="2.56194">
        <ele>98</ele>
        <time>2011-11-27T10:33:56Z</time>
      </trkpt>
      <trkpt lat="48.39235" lon="2.56193">
        <ele>98</ele>
        <time>2011-11-27T10:33:59Z</time>
      </trkpt>
      <trkpt lat="48.39247" lon="2.56196">
        <ele>99</ele>
        <time>2011-11-27T10:34:11Z</time>
      </trkpt>
      <trkpt lat="48.3925" lon="2.56206">
        <ele>100</ele>
        <time>2011-11-27T10:34:23Z</time>
      </trkpt>
      <trkpt lat="48.39251" lon="2.56214">
        <ele>101</ele>
        <time>2011-11-27T10:34:37Z</time>
      </trkpt>
      <trkpt lat="48.39256" lon="2.56219">
        <ele>101</ele>
        <time>2011-11-27T10:34:45Z</time>
      </trkpt>
      <trkpt lat="48.39261" lon="2.56221">
        <ele>101</ele>
        <time>2011-11-27T10:34:52Z</time>
      </trkpt>
      <trkpt lat="48.39263" lon="2.56232">
        <ele>102</ele>
        <time>2011-11-27T10:35:01Z</time>
      </trkpt>
      <trkpt lat="48.39262" lon="2.56239">
        <ele>103</ele>
        <time>2011-11-27T10:35:08Z</time>
      </trkpt>
      <trkpt lat="48.39263" lon="2.56243">
        <ele>103</ele>
        <time>2011-11-27T10:35:11Z</time>
      </trkpt>
      <trkpt lat="48.39261" lon="2.56251">
        <ele>105</ele>
        <time>2011-11-27T10:35:21Z</time>
      </trkpt>
      <trkpt lat="48.3926" lon="2.56254">
        <ele>105</ele>
        <time>2011-11-27T10:35:34Z</time>
      </trkpt>
      <trkpt lat="48.39255" lon="2.56261">
        <ele>105</ele>
        <time>2011-11-27T10:35:46Z</time>
      </trkpt>
      <trkpt lat="48.39254" lon="2.56263">
        <ele>105</ele>
        <time>2011-11-27T10:35:49Z</time>
      </trkpt>
      <trkpt lat="48.39253" lon="2.56263">
        <ele>105</ele>
        <time>2011-11-27T10:35:51Z</time>
      </trkpt>
      <trkpt lat="48.39252" lon="2.56263">
        <ele>105</ele>
        <time>2011-11-27T10:36:01Z</time>
      </trkpt>
      <trkpt lat="48.39253" lon="2.56271">
        <ele>104</ele>
        <time>2011-11-27T10:36:15Z</time>
      </trkpt>
      <trkpt lat="48.39252" lon="2.56279">
        <ele>104</ele>
        <time>2011-11-27T10:36:26Z</time>
      </trkpt>
      <trkpt lat="48.39252" lon="2.56282">
        <ele>104</ele>
        <time>2011-11-27T10:36:30Z</time>
      </trkpt>
      <trkpt lat="48.39251" lon="2.56291">
        <ele>104</ele>
        <time>2011-11-27T10:36:43Z</time>
      </trkpt>
      <trkpt lat="48.39249" lon="2.5629">
        <ele>105</ele>
        <time>2011-11-27T10:37:03Z</time>
      </trkpt>
      <trkpt lat="48.39251" lon="2.56294">
        <ele>104</ele>
        <time>2011-11-27T10:37:09Z</time>
      </trkpt>
      <trkpt lat="48.39251" lon="2.56301">
        <ele>104</ele>
        <time>2011-11-27T10:37:19Z</time>
      </trkpt>
      <trkpt lat="48.39254" lon="2.56311">
        <ele>105</ele>
        <time>2011-11-27T10:37:33Z</time>
      </trkpt>
      <trkpt lat="48.39254" lon="2.56313">
        <ele>106</ele>
        <time>2011-11-27T10:37:35Z</time>
      </trkpt>
      <trkpt lat="48.39255" lon="2.56333">
        <ele>110</ele>
        <time>2011-11-27T10:37:44Z</time>
      </trkpt>
      <trkpt lat="48.39255" lon="2.56344">
        <ele>108</ele>
        <time>2011-11-27T10:37:49Z</time>
      </trkpt>
      <trkpt lat="48.39251" lon="2.56349">
        <ele>107</ele>
        <time>2011-11-27T10:37:53Z</time>
      </trkpt>
      <trkpt lat="48.39248" lon="2.56357">
        <ele>108</ele>
        <time>2011-11-27T10:37:57Z</time>
      </trkpt>
      <trkpt lat="48.39247" lon="2.56361">
        <ele>108</ele>
        <time>2011-11-27T10:37:59Z</time>
      </trkpt>
      <trkpt lat="48.39246" lon="2.56369">
        <ele>108</ele>
        <time>2011-11-27T10:38:03Z</time>
      </trkpt>
      <trkpt lat="48.39245" lon="2.56371">
        <ele>108</ele>
        <time>2011-11-27T10:38:17Z</time>
      </trkpt>
      <trkpt lat="48.39244" lon="2.56372">
        <ele>108</ele>
        <time>2011-11-27T10:38:30Z</time>
      </trkpt>
      <trkpt lat="48.39244" lon="2.56382">
        <ele>108</ele>
        <time>2011-11-27T10:38:38Z</time>
      </trkpt>
      <trkpt lat="48.39241" lon="2.56393">
        <ele>109</ele>
        <time>2011-11-27T10:38:43Z</time>
      </trkpt>
      <trkpt lat="48.39243" lon="2.56406">
        <ele>110</ele>
        <time>2011-11-27T10:38:48Z</time>
      </trkpt>
      <trkpt lat="48.3924" lon="2.56413">
        <ele>110</ele>
        <time>2011-11-27T10:38:51Z</time>
      </trkpt>
      <trkpt lat="48.3924" lon="2.56425">
        <ele>111</ele>
        <time>2011-11-27T10:38:55Z</time>
      </trkpt>
      <trkpt lat="48.39238" lon="2.56453">
        <ele>110</ele>
        <time>2011-11-27T10:39:05Z</time>
      </trkpt>
      <trkpt lat="48.39237" lon="2.56457">
        <ele>110</ele>
        <time>2011-11-27T10:39:06Z</time>
      </trkpt>
      <trkpt lat="48.39241" lon="2.56479">
        <ele>111</ele>
        <time>2011-11-27T10:39:11Z</time>
      </trkpt>
      <trkpt lat="48.39241" lon="2.5651">
        <ele>113</ele>
        <time>2011-11-27T10:39:19Z</time>
      </trkpt>
      <trkpt lat="48.39241" lon="2.56514">
        <ele>113</ele>
        <time>2011-11-27T10:39:21Z</time>
      </trkpt>
      <trkpt lat="48.39228" lon="2.56549">
        <ele>111</ele>
        <time>2011-11-27T10:39:30Z</time>
      </trkpt>
      <trkpt lat="48.39226" lon="2.56554">
        <ele>111</ele>
        <time>2011-11-27T10:39:31Z</time>
      </trkpt>
      <trkpt lat="48.39225" lon="2.56577">
        <ele>111</ele>
        <time>2011-11-27T10:39:36Z</time>
      </trkpt>
      <trkpt lat="48.39211" lon="2.56596">
        <ele>111</ele>
        <time>2011-11-27T10:39:42Z</time>
      </trkpt>
      <trkpt lat="48.39211" lon="2.56633">
        <ele>111</ele>
        <time>2011-11-27T10:39:52Z</time>
      </trkpt>
      <trkpt lat="48.392" lon="2.56669">
        <ele>112</ele>
        <time>2011-11-27T10:40:03Z</time>
      </trkpt>
      <trkpt lat="48.39198" lon="2.56675">
        <ele>112</ele>
        <time>2011-11-27T10:40:09Z</time>
      </trkpt>
      <trkpt lat="48.39197" lon="2.56695">
        <ele>113</ele>
        <time>2011-11-27T10:40:14Z</time>
      </trkpt>
      <trkpt lat="48.39183" lon="2.56731">
        <ele>114</ele>
        <time>2011-11-27T10:40:24Z</time>
      </trkpt>
      <trkpt lat="48.39175" lon="2.56754">
        <ele>117</ele>
        <time>2011-11-27T10:40:30Z</time>
      </trkpt>
      <trkpt lat="48.39174" lon="2.56786">
        <ele>115</ele>
        <time>2011-11-27T10:40:35Z</time>
      </trkpt>
      <trkpt lat="48.39175" lon="2.56802">
        <ele>115</ele>
        <time>2011-11-27T10:40:38Z</time>
      </trkpt>
      <trkpt lat="48.39175" lon="2.56855">
        <ele>115</ele>
        <time>2011-11-27T10:40:48Z</time>
      </trkpt>
      <trkpt lat="48.39173" lon="2.56871">
        <ele>114</ele>
        <time>2011-11-27T10:40:52Z</time>
      </trkpt>
      <trkpt lat="48.39168" lon="2.56884">
        <ele>114</ele>
        <time>2011-11-27T10:40:56Z</time>
      </trkpt>
      <trkpt lat="48.39159" lon="2.56897">
        <ele>114</ele>
        <time>2011-11-27T10:41:00Z</time>
      </trkpt>
      <trkpt lat="48.39155" lon="2.56917">
        <ele>116</ele>
        <time>2011-11-27T10:41:10Z</time>
      </trkpt>
      <trkpt lat="48.39167" lon="2.56958">
        <ele>114</ele>
        <time>2011-11-27T10:41:18Z</time>
      </trkpt>
      <trkpt lat="48.39154" lon="2.57004">
        <ele>118</ele>
        <time>2011-11-27T10:41:27Z</time>
      </trkpt>
      <trkpt lat="48.39143" lon="2.57025">
        <ele>117</ele>
        <time>2011-11-27T10:41:32Z</time>
      </trkpt>
      <trkpt lat="48.3914" lon="2.57045">
        <ele>117</ele>
        <time>2011-11-27T10:41:36Z</time>
      </trkpt>
      <trkpt lat="48.39135" lon="2.57063">
        <ele>117</ele>
        <time>2011-11-27T10:41:40Z</time>
      </trkpt>
      <trkpt lat="48.39131" lon="2.57105">
        <ele>118</ele>
        <time>2011-11-27T10:41:47Z</time>
      </trkpt>
      <trkpt lat="48.39127" lon="2.57117">
        <ele>118</ele>
        <time>2011-11-27T10:41:49Z</time>
      </trkpt>
      <trkpt lat="48.3912" lon="2.57151">
        <ele>118</ele>
        <time>2011-11-27T10:41:55Z</time>
      </trkpt>
      <trkpt lat="48.39116" lon="2.57162">
        <ele>118</ele>
        <time>2011-11-27T10:41:59Z</time>
      </trkpt>
      <trkpt lat="48.39113" lon="2.57165">
        <ele>118</ele>
        <time>2011-11-27T10:42:05Z</time>
      </trkpt>
      <trkpt lat="48.39109" lon="2.57167">
        <ele>117</ele>
        <time>2011-11-27T10:42:08Z</time>
      </trkpt>
      <trkpt lat="48.39106" lon="2.57174">
        <ele>117</ele>
        <time>2011-11-27T10:42:11Z</time>
      </trkpt>
      <trkpt lat="48.39097" lon="2.57192">
        <ele>117</ele>
        <time>2011-11-27T10:42:17Z</time>
      </trkpt>
      <trkpt lat="48.39093" lon="2.57195">
        <ele>117</ele>
        <time>2011-11-27T10:42:19Z</time>
      </trkpt>
      <trkpt lat="48.39084" lon="2.57215">
        <ele>118</ele>
        <time>2011-11-27T10:42:25Z</time>
      </trkpt>
      <trkpt lat="48.39073" lon="2.5725">
        <ele>116</ele>
        <time>2011-11-27T10:42:34Z</time>
      </trkpt>
      <trkpt lat="48.39073" lon="2.57274">
        <ele>117</ele>
        <time>2011-11-27T10:42:39Z</time>
      </trkpt>
      <trkpt lat="48.39076" lon="2.57281">
        <ele>117</ele>
        <time>2011-11-27T10:42:41Z</time>
      </trkpt>
      <trkpt lat="48.3907" lon="2.57303">
        <ele>117</ele>
        <time>2011-11-27T10:42:48Z</time>
      </trkpt>
      <trkpt lat="48.39062" lon="2.57304">
        <ele>117</ele>
        <time>2011-11-27T10:42:51Z</time>
      </trkpt>
      <trkpt lat="48.39047" lon="2.57337">
        <ele>118</ele>
        <time>2011-11-27T10:43:00Z</time>
      </trkpt>
      <trkpt lat="48.39047" lon="2.57345">
        <ele>118</ele>
        <time>2011-11-27T10:43:02Z</time>
      </trkpt>
      <trkpt lat="48.39032" lon="2.57373">
        <ele>118</ele>
        <time>2011-11-27T10:43:10Z</time>
      </trkpt>
      <trkpt lat="48.39024" lon="2.57389">
        <ele>118</ele>
        <time>2011-11-27T10:43:21Z</time>
      </trkpt>
      <trkpt lat="48.39024" lon="2.57399">
        <ele>117</ele>
        <time>2011-11-27T10:43:30Z</time>
      </trkpt>
      <trkpt lat="48.39022" lon="2.57406">
        <ele>117</ele>
        <time>2011-11-27T10:43:34Z</time>
      </trkpt>
      <trkpt lat="48.39024" lon="2.57441">
        <ele>118</ele>
        <time>2011-11-27T10:43:44Z</time>
      </trkpt>
      <trkpt lat="48.39027" lon="2.5746">
        <ele>118</ele>
        <time>2011-11-27T10:43:50Z</time>
      </trkpt>
      <trkpt lat="48.39025" lon="2.57475">
        <ele>118</ele>
        <time>2011-11-27T10:43:54Z</time>
      </trkpt>
      <trkpt lat="48.39042" lon="2.57502">
        <ele>119</ele>
        <time>2011-11-27T10:44:03Z</time>
      </trkpt>
      <trkpt lat="48.39041" lon="2.5754">
        <ele>119</ele>
        <time>2011-11-27T10:44:13Z</time>
      </trkpt>
      <trkpt lat="48.3904" lon="2.57562">
        <ele>120</ele>
        <time>2011-11-27T10:44:21Z</time>
      </trkpt>
      <trkpt lat="48.39038" lon="2.57612">
        <ele>121</ele>
        <time>2011-11-27T10:44:33Z</time>
      </trkpt>
      <trkpt lat="48.39036" lon="2.57647">
        <ele>121</ele>
        <time>2011-11-27T10:44:41Z</time>
      </trkpt>
      <trkpt lat="48.39028" lon="2.57681">
        <ele>121</ele>
        <time>2011-11-27T10:44:49Z</time>
      </trkpt>
      <trkpt lat="48.39018" lon="2.57706">
        <ele>121</ele>
        <time>2011-11-27T10:44:55Z</time>
      </trkpt>
      <trkpt lat="48.39014" lon="2.57718">
        <ele>122</ele>
        <time>2011-11-27T10:44:58Z</time>
      </trkpt>
      <trkpt lat="48.39014" lon="2.57731">
        <ele>122</ele>
        <time>2011-11-27T10:45:01Z</time>
      </trkpt>
      <trkpt lat="48.39006" lon="2.57775">
        <ele>121</ele>
        <time>2011-11-27T10:45:13Z</time>
      </trkpt>
      <trkpt lat="48.39002" lon="2.57799">
        <ele>121</ele>
        <time>2011-11-27T10:45:19Z</time>
      </trkpt>
      <trkpt lat="48.39004" lon="2.57834">
        <ele>122</ele>
        <time>2011-11-27T10:45:28Z</time>
      </trkpt>
      <trkpt lat="48.39025" lon="2.57877">
        <ele>120</ele>
        <time>2011-11-27T10:45:39Z</time>
      </trkpt>
      <trkpt lat="48.39048" lon="2.57905">
        <ele>119</ele>
        <time>2011-11-27T10:45:48Z</time>
      </trkpt>
      <trkpt lat="48.3905" lon="2.57944">
        <ele>118</ele>
        <time>2011-11-27T10:45:57Z</time>
      </trkpt>
      <trkpt lat="48.39048" lon="2.57949">
        <ele>118</ele>
        <time>2011-11-27T10:45:58Z</time>
      </trkpt>
      <trkpt lat="48.39042" lon="2.57967">
        <ele>118</ele>
        <time>2011-11-27T10:46:03Z</time>
      </trkpt>
      <trkpt lat="48.3904" lon="2.57987">
        <ele>118</ele>
        <time>2011-11-27T10:46:08Z</time>
      </trkpt>
      <trkpt lat="48.3904" lon="2.57996">
        <ele>118</ele>
        <time>2011-11-27T10:46:11Z</time>
      </trkpt>
      <trkpt lat="48.39044" lon="2.58011">
        <ele>118</ele>
        <time>2011-11-27T10:46:16Z</time>
      </trkpt>
      <trkpt lat="48.39045" lon="2.58029">
        <ele>118</ele>
        <time>2011-11-27T10:46:20Z</time>
      </trkpt>
      <trkpt lat="48.39049" lon="2.58045">
        <ele>118</ele>
        <time>2011-11-27T10:46:24Z</time>
      </trkpt>
      <trkpt lat="48.39044" lon="2.58071">
        <ele>119</ele>
        <time>2011-11-27T10:46:33Z</time>
      </trkpt>
      <trkpt lat="48.39043" lon="2.5809">
        <ele>119</ele>
        <time>2011-11-27T10:46:40Z</time>
      </trkpt>
      <trkpt lat="48.3904" lon="2.58115">
        <ele>119</ele>
        <time>2011-11-27T10:46:47Z</time>
      </trkpt>
      <trkpt lat="48.39035" lon="2.58129">
        <ele>119</ele>
        <time>2011-11-27T10:46:54Z</time>
      </trkpt>
      <trkpt lat="48.39029" lon="2.58139">
        <ele>119</ele>
        <time>2011-11-27T10:46:58Z</time>
      </trkpt>
      <trkpt lat="48.39024" lon="2.58142">
        <ele>120</ele>
        <time>2011-11-27T10:47:00Z</time>
      </trkpt>
      <trkpt lat="48.39019" lon="2.58157">
        <ele>121</ele>
        <time>2011-11-27T10:47:08Z</time>
      </trkpt>
      <trkpt lat="48.39014" lon="2.58167">
        <ele>121</ele>
        <time>2011-11-27T10:47:11Z</time>
      </trkpt>
      <trkpt lat="48.39006" lon="2.58187">
        <ele>121</ele>
        <time>2011-11-27T10:47:18Z</time>
      </trkpt>
      <trkpt lat="48.39005" lon="2.58191">
        <ele>120</ele>
        <time>2011-11-27T10:47:19Z</time>
      </trkpt>
      <trkpt lat="48.39002" lon="2.58199">
        <ele>120</ele>
        <time>2011-11-27T10:47:21Z</time>
      </trkpt>
      <trkpt lat="48.39002" lon="2.5821">
        <ele>120</ele>
        <time>2011-11-27T10:47:24Z</time>
      </trkpt>
      <trkpt lat="48.38997" lon="2.58229">
        <ele>124</ele>
        <time>2011-11-27T10:47:29Z</time>
      </trkpt>
      <trkpt lat="48.39004" lon="2.5825">
        <ele>123</ele>
        <time>2011-11-27T10:47:35Z</time>
      </trkpt>
      <trkpt lat="48.39022" lon="2.58264">
        <ele>119</ele>
        <time>2011-11-27T10:47:42Z</time>
      </trkpt>
      <trkpt lat="48.39023" lon="2.5827">
        <ele>119</ele>
        <time>2011-11-27T10:47:45Z</time>
      </trkpt>
      <trkpt lat="48.39024" lon="2.58282">
        <ele>118</ele>
        <time>2011-11-27T10:47:49Z</time>
      </trkpt>
      <trkpt lat="48.39027" lon="2.5829">
        <ele>118</ele>
        <time>2011-11-27T10:47:51Z</time>
      </trkpt>
      <trkpt lat="48.39026" lon="2.58322">
        <ele>119</ele>
        <time>2011-11-27T10:48:00Z</time>
      </trkpt>
      <trkpt lat="48.39024" lon="2.58338">
        <ele>119</ele>
        <time>2011-11-27T10:48:06Z</time>
      </trkpt>
      <trkpt lat="48.39026" lon="2.58348">
        <ele>118</ele>
        <time>2011-11-27T10:48:09Z</time>
      </trkpt>
      <trkpt lat="48.39025" lon="2.58357">
        <ele>118</ele>
        <time>2011-11-27T10:48:11Z</time>
      </trkpt>
      <trkpt lat="48.39032" lon="2.58377">
        <ele>117</ele>
        <time>2011-11-27T10:48:17Z</time>
      </trkpt>
      <trkpt lat="48.39026" lon="2.58401">
        <ele>118</ele>
        <time>2011-11-27T10:48:23Z</time>
      </trkpt>
      <trkpt lat="48.39026" lon="2.58406">
        <ele>118</ele>
        <time>2011-11-27T10:48:25Z</time>
      </trkpt>
      <trkpt lat="48.39022" lon="2.5842">
        <ele>118</ele>
        <time>2011-11-27T10:48:29Z</time>
      </trkpt>
      <trkpt lat="48.39016" lon="2.58462">
        <ele>117</ele>
        <time>2011-11-27T10:48:40Z</time>
      </trkpt>
      <trkpt lat="48.39013" lon="2.58475">
        <ele>117</ele>
        <time>2011-11-27T10:48:43Z</time>
      </trkpt>
      <trkpt lat="48.39009" lon="2.58482">
        <ele>118</ele>
        <time>2011-11-27T10:48:45Z</time>
      </trkpt>
      <trkpt lat="48.39004" lon="2.58498">
        <ele>121</ele>
        <time>2011-11-27T10:48:49Z</time>
      </trkpt>
      <trkpt lat="48.38992" lon="2.58514">
        <ele>123</ele>
        <time>2011-11-27T10:48:54Z</time>
      </trkpt>
      <trkpt lat="48.38988" lon="2.5853">
        <ele>123</ele>
        <time>2011-11-27T10:48:58Z</time>
      </trkpt>
      <trkpt lat="48.38987" lon="2.58542">
        <ele>123</ele>
        <time>2011-11-27T10:49:02Z</time>
      </trkpt>
      <trkpt lat="48.38983" lon="2.58553">
        <ele>123</ele>
        <time>2011-11-27T10:49:05Z</time>
      </trkpt>
      <trkpt lat="48.3897" lon="2.58593">
        <ele>122</ele>
        <time>2011-11-27T10:49:17Z</time>
      </trkpt>
      <trkpt lat="48.38957" lon="2.58621">
        <ele>122</ele>
        <time>2011-11-27T10:49:24Z</time>
      </trkpt>
      <trkpt lat="48.38957" lon="2.58634">
        <ele>122</ele>
        <time>2011-11-27T10:49:27Z</time>
      </trkpt>
      <trkpt lat="48.38949" lon="2.58658">
        <ele>122</ele>
        <time>2011-11-27T10:49:32Z</time>
      </trkpt>
      <trkpt lat="48.38942" lon="2.58739">
        <ele>121</ele>
        <time>2011-11-27T10:49:48Z</time>
      </trkpt>
      <trkpt lat="48.38928" lon="2.588">
        <ele>120</ele>
        <time>2011-11-27T10:50:00Z</time>
      </trkpt>
      <trkpt lat="48.3893" lon="2.58832">
        <ele>121</ele>
        <time>2011-11-27T10:50:07Z</time>
      </trkpt>
      <trkpt lat="48.38932" lon="2.58848">
        <ele>121</ele>
        <time>2011-11-27T10:50:11Z</time>
      </trkpt>
      <trkpt lat="48.38936" lon="2.58861">
        <ele>120</ele>
        <time>2011-11-27T10:50:15Z</time>
      </trkpt>
      <trkpt lat="48.38936" lon="2.58875">
        <ele>120</ele>
        <time>2011-11-27T10:50:18Z</time>
      </trkpt>
      <trkpt lat="48.38932" lon="2.58907">
        <ele>121</ele>
        <time>2011-11-27T10:50:25Z</time>
      </trkpt>
      <trkpt lat="48.38939" lon="2.5894">
        <ele>121</ele>
        <time>2011-11-27T10:50:33Z</time>
      </trkpt>
      <trkpt lat="48.38938" lon="2.58973">
        <ele>121</ele>
        <time>2011-11-27T10:50:41Z</time>
      </trkpt>
      <trkpt lat="48.38937" lon="2.58995">
        <ele>122</ele>
        <time>2011-11-27T10:50:47Z</time>
      </trkpt>
      <trkpt lat="48.38941" lon="2.59005">
        <ele>122</ele>
        <time>2011-11-27T10:50:50Z</time>
      </trkpt>
      <trkpt lat="48.38944" lon="2.59022">
        <ele>121</ele>
        <time>2011-11-27T10:50:54Z</time>
      </trkpt>
      <trkpt lat="48.38937" lon="2.5906">
        <ele>121</ele>
        <time>2011-11-27T10:51:04Z</time>
      </trkpt>
      <trkpt lat="48.38934" lon="2.59114">
        <ele>122</ele>
        <time>2011-11-27T10:51:15Z</time>
      </trkpt>
      <trkpt lat="48.38933" lon="2.59126">
        <ele>122</ele>
        <time>2011-11-27T10:51:18Z</time>
      </trkpt>
      <trkpt lat="48.38935" lon="2.59137">
        <ele>122</ele>
        <time>2011-11-27T10:51:21Z</time>
      </trkpt>
      <trkpt lat="48.3894" lon="2.59182">
        <ele>123</ele>
        <time>2011-11-27T10:51:32Z</time>
      </trkpt>
      <trkpt lat="48.38938" lon="2.59225">
        <ele>123</ele>
        <time>2011-11-27T10:51:42Z</time>
      </trkpt>
      <trkpt lat="48.38934" lon="2.59246">
        <ele>123</ele>
        <time>2011-11-27T10:51:47Z</time>
      </trkpt>
      <trkpt lat="48.38922" lon="2.59286">
        <ele>123</ele>
        <time>2011-11-27T10:51:58Z</time>
      </trkpt>
      <trkpt lat="48.38917" lon="2.59306">
        <ele>123</ele>
        <time>2011-11-27T10:52:03Z</time>
      </trkpt>
      <trkpt lat="48.38915" lon="2.59316">
        <ele>123</ele>
        <time>2011-11-27T10:52:15Z</time>
      </trkpt>
      <trkpt lat="48.38912" lon="2.59312">
        <ele>123</ele>
        <time>2011-11-27T10:52:36Z</time>
      </trkpt>
      <trkpt lat="48.38912" lon="2.59312">
        <ele>123</ele>
        <time>2011-11-27T10:52:42Z</time>
      </trkpt>
      <trkpt lat="48.38906" lon="2.5931">
        <ele>123</ele>
        <time>2011-11-27T10:52:49Z</time>
      </trkpt>
      <trkpt lat="48.38893" lon="2.5931">
        <ele>123</ele>
        <time>2011-11-27T10:53:01Z</time>
      </trkpt>
      <trkpt lat="48.38889" lon="2.59304">
        <ele>123</ele>
        <time>2011-11-27T10:53:09Z</time>
      </trkpt>
      <trkpt lat="48.38874" lon="2.59299">
        <ele>124</ele>
        <time>2011-11-27T10:53:17Z</time>
      </trkpt>
      <trkpt lat="48.38837" lon="2.593">
        <ele>124</ele>
        <time>2011-11-27T10:53:28Z</time>
      </trkpt>
      <trkpt lat="48.38812" lon="2.59295">
        <ele>123</ele>
        <time>2011-11-27T10:53:36Z</time>
      </trkpt>
      <trkpt lat="48.38789" lon="2.59289">
        <ele>123</ele>
        <time>2011-11-27T10:53:42Z</time>
      </trkpt>
      <trkpt lat="48.38756" lon="2.59311">
        <ele>122</ele>
        <time>2011-11-27T10:53:52Z</time>
      </trkpt>
      <trkpt lat="48.38739" lon="2.59329">
        <ele>121</ele>
        <time>2011-11-27T10:53:57Z</time>
      </trkpt>
      <trkpt lat="48.38737" lon="2.5934">
        <ele>121</ele>
        <time>2011-11-27T10:54:00Z</time>
      </trkpt>
      <trkpt lat="48.3873" lon="2.59352">
        <ele>121</ele>
        <time>2011-11-27T10:54:05Z</time>
      </trkpt>
      <trkpt lat="48.38722" lon="2.59349">
        <ele>121</ele>
        <time>2011-11-27T10:54:09Z</time>
      </trkpt>
      <trkpt lat="48.38717" lon="2.59341">
        <ele>121</ele>
        <time>2011-11-27T10:54:11Z</time>
      </trkpt>
      <trkpt lat="48.38705" lon="2.59351">
        <ele>121</ele>
        <time>2011-11-27T10:54:15Z</time>
      </trkpt>
      <trkpt lat="48.38691" lon="2.59364">
        <ele>121</ele>
        <time>2011-11-27T10:54:20Z</time>
      </trkpt>
      <trkpt lat="48.38683" lon="2.59355">
        <ele>121</ele>
        <time>2011-11-27T10:54:30Z</time>
      </trkpt>
      <trkpt lat="48.38676" lon="2.59358">
        <ele>121</ele>
        <time>2011-11-27T10:54:38Z</time>
      </trkpt>
      <trkpt lat="48.38673" lon="2.59361">
        <ele>121</ele>
        <time>2011-11-27T10:54:41Z</time>
      </trkpt>
      <trkpt lat="48.3867" lon="2.59366">
        <ele>121</ele>
        <time>2011-11-27T10:54:48Z</time>
      </trkpt>
      <trkpt lat="48.3866" lon="2.59375">
        <ele>122</ele>
        <time>2011-11-27T10:54:55Z</time>
      </trkpt>
      <trkpt lat="48.38657" lon="2.59383">
        <ele>122</ele>
        <time>2011-11-27T10:54:58Z</time>
      </trkpt>
      <trkpt lat="48.38655" lon="2.59385">
        <ele>122</ele>
        <time>2011-11-27T10:55:00Z</time>
      </trkpt>
      <trkpt lat="48.38656" lon="2.59395">
        <ele>122</ele>
        <time>2011-11-27T10:55:05Z</time>
      </trkpt>
      <trkpt lat="48.38667" lon="2.59448">
        <ele>123</ele>
        <time>2011-11-27T10:55:20Z</time>
      </trkpt>
      <trkpt lat="48.38668" lon="2.59541">
        <ele>125</ele>
        <time>2011-11-27T10:55:37Z</time>
      </trkpt>
      <trkpt lat="48.3866" lon="2.59624">
        <ele>127</ele>
        <time>2011-11-27T10:55:52Z</time>
      </trkpt>
      <trkpt lat="48.38653" lon="2.59702">
        <ele>128</ele>
        <time>2011-11-27T10:56:07Z</time>
      </trkpt>
      <trkpt lat="48.38648" lon="2.5977">
        <ele>128</ele>
        <time>2011-11-27T10:56:21Z</time>
      </trkpt>
      <trkpt lat="48.38648" lon="2.59775">
        <ele>128</ele>
        <time>2011-11-27T10:56:37Z</time>
      </trkpt>
      <trkpt lat="48.38653" lon="2.59775">
        <ele>128</ele>
        <time>2011-11-27T10:58:02Z</time>
      </trkpt>
      <trkpt lat="48.38672" lon="2.59788">
        <ele>126</ele>
        <time>2011-11-27T10:58:10Z</time>
      </trkpt>
      <trkpt lat="48.38714" lon="2.59809">
        <ele>126</ele>
        <time>2011-11-27T10:58:25Z</time>
      </trkpt>
      <trkpt lat="48.38723" lon="2.59812">
        <ele>126</ele>
        <time>2011-11-27T10:58:32Z</time>
      </trkpt>
      <trkpt lat="48.38761" lon="2.59836">
        <ele>125</ele>
        <time>2011-11-27T10:58:43Z</time>
      </trkpt>
      <trkpt lat="48.38787" lon="2.59868">
        <ele>126</ele>
        <time>2011-11-27T10:58:54Z</time>
      </trkpt>
      <trkpt lat="48.38805" lon="2.59946">
        <ele>126</ele>
        <time>2011-11-27T10:59:09Z</time>
      </trkpt>
      <trkpt lat="48.38811" lon="2.59976">
        <ele>126</ele>
        <time>2011-11-27T10:59:14Z</time>
      </trkpt>
      <trkpt lat="48.38817" lon="2.59993">
        <ele>126</ele>
        <time>2011-11-27T10:59:17Z</time>
      </trkpt>
      <trkpt lat="48.38824" lon="2.6001">
        <ele>126</ele>
        <time>2011-11-27T10:59:20Z</time>
      </trkpt>
      <trkpt lat="48.38833" lon="2.6003">
        <ele>127</ele>
        <time>2011-11-27T10:59:24Z</time>
      </trkpt>
      <trkpt lat="48.38834" lon="2.60056">
        <ele>127</ele>
        <time>2011-11-27T10:59:28Z</time>
      </trkpt>
      <trkpt lat="48.38838" lon="2.60094">
        <ele>127</ele>
        <time>2011-11-27T10:59:34Z</time>
      </trkpt>
      <trkpt lat="48.38847" lon="2.60194">
        <ele>127</ele>
        <time>2011-11-27T10:59:52Z</time>
      </trkpt>
      <trkpt lat="48.38847" lon="2.60255">
        <ele>127</ele>
        <time>2011-11-27T11:00:05Z</time>
      </trkpt>
      <trkpt lat="48.38848" lon="2.60255">
        <ele>127</ele>
        <time>2011-11-27T11:00:29Z</time>
      </trkpt>
      <trkpt lat="48.38838" lon="2.60309">
        <ele>127</ele>
        <time>2011-11-27T11:00:40Z</time>
      </trkpt>
      <trkpt lat="48.38822" lon="2.6044">
        <ele>129</ele>
        <time>2011-11-27T11:01:00Z</time>
      </trkpt>
      <trkpt lat="48.3881" lon="2.60533">
        <ele>129</ele>
        <time>2011-11-27T11:01:14Z</time>
      </trkpt>
      <trkpt lat="48.38794" lon="2.60647">
        <ele>130</ele>
        <time>2011-11-27T11:01:31Z</time>
      </trkpt>
      <trkpt lat="48.3878" lon="2.60758">
        <ele>130</ele>
        <time>2011-11-27T11:01:47Z</time>
      </trkpt>
      <trkpt lat="48.38765" lon="2.60877">
        <ele>130</ele>
        <time>2011-11-27T11:02:05Z</time>
      </trkpt>
      <trkpt lat="48.3875" lon="2.60994">
        <ele>133</ele>
        <time>2011-11-27T11:02:23Z</time>
      </trkpt>
      <trkpt lat="48.38741" lon="2.61054">
        <ele>133</ele>
        <time>2011-11-27T11:02:32Z</time>
      </trkpt>
      <trkpt lat="48.38727" lon="2.61182">
        <ele>132</ele>
        <time>2011-11-27T11:02:51Z</time>
      </trkpt>
      <trkpt lat="48.38709" lon="2.61326">
        <ele>133</ele>
        <time>2011-11-27T11:03:12Z</time>
      </trkpt>
      <trkpt lat="48.38703" lon="2.6138">
        <ele>134</ele>
        <time>2011-11-27T11:03:20Z</time>
      </trkpt>
      <trkpt lat="48.38692" lon="2.61455">
        <ele>134</ele>
        <time>2011-11-27T11:03:33Z</time>
      </trkpt>
      <trkpt lat="48.38686" lon="2.61503">
        <ele>134</ele>
        <time>2011-11-27T11:03:42Z</time>
      </trkpt>
      <trkpt lat="48.38694" lon="2.61503">
        <ele>134</ele>
        <time>2011-11-27T11:03:47Z</time>
      </trkpt>
      <trkpt lat="48.38709" lon="2.61493">
        <ele>134</ele>
        <time>2011-11-27T11:03:57Z</time>
      </trkpt>
      <trkpt lat="48.3872" lon="2.61487">
        <ele>134</ele>
        <time>2011-11-27T11:04:01Z</time>
      </trkpt>
      <trkpt lat="48.38738" lon="2.61517">
        <ele>134</ele>
        <time>2011-11-27T11:04:09Z</time>
      </trkpt>
      <trkpt lat="48.38743" lon="2.61528">
        <ele>134</ele>
        <time>2011-11-27T11:04:11Z</time>
      </trkpt>
      <trkpt lat="48.38798" lon="2.61596">
        <ele>133</ele>
        <time>2011-11-27T11:04:27Z</time>
      </trkpt>
      <trkpt lat="48.38845" lon="2.61642">
        <ele>133</ele>
        <time>2011-11-27T11:04:39Z</time>
      </trkpt>
      <trkpt lat="48.389" lon="2.61701">
        <ele>132</ele>
        <time>2011-11-27T11:04:53Z</time>
      </trkpt>
      <trkpt lat="48.38919" lon="2.61714">
        <ele>130</ele>
        <time>2011-11-27T11:04:57Z</time>
      </trkpt>
      <trkpt lat="48.38934" lon="2.61734">
        <ele>130</ele>
        <time>2011-11-27T11:05:01Z</time>
      </trkpt>
      <trkpt lat="48.38966" lon="2.61822">
        <ele>131</ele>
        <time>2011-11-27T11:05:15Z</time>
      </trkpt>
      <trkpt lat="48.38977" lon="2.61853">
        <ele>131</ele>
        <time>2011-11-27T11:05:20Z</time>
      </trkpt>
      <trkpt lat="48.38982" lon="2.61894">
        <ele>130</ele>
        <time>2011-11-27T11:05:26Z</time>
      </trkpt>
      <trkpt lat="48.39005" lon="2.61978">
        <ele>129</ele>
        <time>2011-11-27T11:05:38Z</time>
      </trkpt>
      <trkpt lat="48.39045" lon="2.62071">
        <ele>129</ele>
        <time>2011-11-27T11:05:53Z</time>
      </trkpt>
      <trkpt lat="48.39054" lon="2.62089">
        <ele>128</ele>
        <time>2011-11-27T11:05:57Z</time>
      </trkpt>
      <trkpt lat="48.3911" lon="2.6213">
        <ele>129</ele>
        <time>2011-11-27T11:06:13Z</time>
      </trkpt>
      <trkpt lat="48.39171" lon="2.62183">
        <ele>130</ele>
        <time>2011-11-27T11:06:31Z</time>
      </trkpt>
      <trkpt lat="48.39217" lon="2.62222">
        <ele>129</ele>
        <time>2011-11-27T11:06:45Z</time>
      </trkpt>
      <trkpt lat="48.39219" lon="2.62224">
        <ele>129</ele>
        <time>2011-11-27T11:07:00Z</time>
      </trkpt>
      <trkpt lat="48.39236" lon="2.62231">
        <ele>129</ele>
        <time>2011-11-27T11:08:05Z</time>
      </trkpt>
      <trkpt lat="48.3926" lon="2.62229">
        <ele>128</ele>
        <time>2011-11-27T11:08:15Z</time>
      </trkpt>
      <trkpt lat="48.39267" lon="2.62231">
        <ele>128</ele>
        <time>2011-11-27T11:08:18Z</time>
      </trkpt>
      <trkpt lat="48.39271" lon="2.62237">
        <ele>128</ele>
        <time>2011-11-27T11:08:20Z</time>
      </trkpt>
      <trkpt lat="48.39291" lon="2.6224">
        <ele>128</ele>
        <time>2011-11-27T11:08:28Z</time>
      </trkpt>
      <trkpt lat="48.39301" lon="2.62245">
        <ele>128</ele>
        <time>2011-11-27T11:08:32Z</time>
      </trkpt>
      <trkpt lat="48.39306" lon="2.62249">
        <ele>128</ele>
        <time>2011-11-27T11:08:35Z</time>
      </trkpt>
      <trkpt lat="48.39315" lon="2.6224">
        <ele>128</ele>
        <time>2011-11-27T11:08:41Z</time>
      </trkpt>
      <trkpt lat="48.39329" lon="2.6224">
        <ele>128</ele>
        <time>2011-11-27T11:08:47Z</time>
      </trkpt>
      <trkpt lat="48.39354" lon="2.62256">
        <ele>129</ele>
        <time>2011-11-27T11:08:56Z</time>
      </trkpt>
      <trkpt lat="48.39384" lon="2.62271">
        <ele>130</ele>
        <time>2011-11-27T11:09:09Z</time>
      </trkpt>
      <trkpt lat="48.39413" lon="2.6227">
        <ele>130</ele>
        <time>2011-11-27T11:09:18Z</time>
      </trkpt>
      <trkpt lat="48.39424" lon="2.62277">
        <ele>132</ele>
        <time>2011-11-27T11:09:21Z</time>
      </trkpt>
      <trkpt lat="48.3945" lon="2.62265">
        <ele>132</ele>
        <time>2011-11-27T11:09:28Z</time>
      </trkpt>
      <trkpt lat="48.39486" lon="2.62226">
        <ele>133</ele>
        <time>2011-11-27T11:09:40Z</time>
      </trkpt>
      <trkpt lat="48.39526" lon="2.6218">
        <ele>135</ele>
        <time>2011-11-27T11:09:55Z</time>
      </trkpt>
      <trkpt lat="48.39541" lon="2.62166">
        <ele>135</ele>
        <time>2011-11-27T11:10:07Z</time>
      </trkpt>
      <trkpt lat="48.3954" lon="2.62168">
        <ele>135</ele>
        <time>2011-11-27T11:10:20Z</time>
      </trkpt>
      <trkpt lat="48.39531" lon="2.62221">
        <ele>135</ele>
        <time>2011-11-27T11:10:32Z</time>
      </trkpt>
      <trkpt lat="48.39511" lon="2.62328">
        <ele>135</ele>
        <time>2011-11-27T11:10:49Z</time>
      </trkpt>
      <trkpt lat="48.39489" lon="2.62441">
        <ele>133</ele>
        <time>2011-11-27T11:11:05Z</time>
      </trkpt>
      <trkpt lat="48.39477" lon="2.62505">
        <ele>134</ele>
        <time>2011-11-27T11:11:14Z</time>
      </trkpt>
      <trkpt lat="48.3946" lon="2.62614">
        <ele>135</ele>
        <time>2011-11-27T11:11:30Z</time>
      </trkpt>
      <trkpt lat="48.39457" lon="2.62636">
        <ele>136</ele>
        <time>2011-11-27T11:11:33Z</time>
      </trkpt>
      <trkpt lat="48.3944" lon="2.62725">
        <ele>137</ele>
        <time>2011-11-27T11:11:46Z</time>
      </trkpt>
      <trkpt lat="48.39422" lon="2.62828">
        <ele>137</ele>
        <time>2011-11-27T11:12:01Z</time>
      </trkpt>
      <trkpt lat="48.39415" lon="2.62881">
        <ele>136</ele>
        <time>2011-11-27T11:12:08Z</time>
      </trkpt>
      <trkpt lat="48.39413" lon="2.62904">
        <ele>136</ele>
        <time>2011-11-27T11:12:11Z</time>
      </trkpt>
      <trkpt lat="48.39403" lon="2.62947">
        <ele>135</ele>
        <time>2011-11-27T11:12:19Z</time>
      </trkpt>
      <trkpt lat="48.39394" lon="2.63002">
        <ele>134</ele>
        <time>2011-11-27T11:12:32Z</time>
      </trkpt>
      <trkpt lat="48.39393" lon="2.63033">
        <ele>134</ele>
        <time>2011-11-27T11:12:37Z</time>
      </trkpt>
      <trkpt lat="48.39376" lon="2.63171">
        <ele>135</ele>
        <time>2011-11-27T11:12:56Z</time>
      </trkpt>
      <trkpt lat="48.39374" lon="2.63185">
        <ele>135</ele>
        <time>2011-11-27T11:12:58Z</time>
      </trkpt>
      <trkpt lat="48.39369" lon="2.63225">
        <ele>135</ele>
        <time>2011-11-27T11:13:04Z</time>
      </trkpt>
      <trkpt lat="48.3937" lon="2.63292">
        <ele>134</ele>
        <time>2011-11-27T11:13:13Z</time>
      </trkpt>
      <trkpt lat="48.3937" lon="2.63322">
        <ele>134</ele>
        <time>2011-11-27T11:13:17Z</time>
      </trkpt>
      <trkpt lat="48.39373" lon="2.6335">
        <ele>133</ele>
        <time>2011-11-27T11:13:21Z</time>
      </trkpt>
      <trkpt lat="48.39371" lon="2.63381">
        <ele>133</ele>
        <time>2011-11-27T11:13:25Z</time>
      </trkpt>
      <trkpt lat="48.39365" lon="2.63413">
        <ele>132</ele>
        <time>2011-11-27T11:13:29Z</time>
      </trkpt>
      <trkpt lat="48.39364" lon="2.63436">
        <ele>130</ele>
        <time>2011-11-27T11:13:32Z</time>
      </trkpt>
      <trkpt lat="48.39374" lon="2.63468">
        <ele>130</ele>
        <time>2011-11-27T11:13:37Z</time>
      </trkpt>
      <trkpt lat="48.39379" lon="2.63507">
        <ele>129</ele>
        <time>2011-11-27T11:13:42Z</time>
      </trkpt>
      <trkpt lat="48.39385" lon="2.63526">
        <ele>129</ele>
        <time>2011-11-27T11:13:45Z</time>
      </trkpt>
      <trkpt lat="48.39385" lon="2.63547">
        <ele>129</ele>
        <time>2011-11-27T11:13:48Z</time>
      </trkpt>
      <trkpt lat="48.39392" lon="2.63575">
        <ele>129</ele>
        <time>2011-11-27T11:13:52Z</time>
      </trkpt>
      <trkpt lat="48.39393" lon="2.63605">
        <ele>128</ele>
        <time>2011-11-27T11:13:56Z</time>
      </trkpt>
      <trkpt lat="48.39397" lon="2.63641">
        <ele>127</ele>
        <time>2011-11-27T11:14:01Z</time>
      </trkpt>
      <trkpt lat="48.39404" lon="2.63671">
        <ele>128</ele>
        <time>2011-11-27T11:14:05Z</time>
      </trkpt>
      <trkpt lat="48.39405" lon="2.63695">
        <ele>126</ele>
        <time>2011-11-27T11:14:08Z</time>
      </trkpt>
      <trkpt lat="48.39427" lon="2.63733">
        <ele>131</ele>
        <time>2011-11-27T11:14:15Z</time>
      </trkpt>
      <trkpt lat="48.39439" lon="2.63766">
        <ele>130</ele>
        <time>2011-11-27T11:14:24Z</time>
      </trkpt>
      <trkpt lat="48.39457" lon="2.63791">
        <ele>131</ele>
        <time>2011-11-27T11:14:33Z</time>
      </trkpt>
      <trkpt lat="48.39463" lon="2.63781">
        <ele>131</ele>
        <time>2011-11-27T11:14:37Z</time>
      </trkpt>
      <trkpt lat="48.39469" lon="2.63762">
        <ele>132</ele>
        <time>2011-11-27T11:14:51Z</time>
      </trkpt>
      <trkpt lat="48.39468" lon="2.63761">
        <ele>132</ele>
        <time>2011-11-27T11:19:30Z</time>
      </trkpt>
      <trkpt lat="48.39471" lon="2.63756">
        <ele>132</ele>
        <time>2011-11-27T11:19:33Z</time>
      </trkpt>
      <trkpt lat="48.39474" lon="2.63746">
        <ele>133</ele>
        <time>2011-11-27T11:19:36Z</time>
      </trkpt>
      <trkpt lat="48.39481" lon="2.637">
        <ele>134</ele>
        <time>2011-11-27T11:19:47Z</time>
      </trkpt>
      <trkpt lat="48.39498" lon="2.63619">
        <ele>135</ele>
        <time>2011-11-27T11:20:04Z</time>
      </trkpt>
      <trkpt lat="48.39519" lon="2.63529">
        <ele>138</ele>
        <time>2011-11-27T11:20:21Z</time>
      </trkpt>
      <trkpt lat="48.39534" lon="2.6352">
        <ele>138</ele>
        <time>2011-11-27T11:20:27Z</time>
      </trkpt>
      <trkpt lat="48.39544" lon="2.63523">
        <ele>138</ele>
        <time>2011-11-27T11:20:30Z</time>
      </trkpt>
      <trkpt lat="48.39573" lon="2.63523">
        <ele>138</ele>
        <time>2011-11-27T11:20:37Z</time>
      </trkpt>
      <trkpt lat="48.3962" lon="2.63526">
        <ele>136</ele>
        <time>2011-11-27T11:20:46Z</time>
      </trkpt>
      <trkpt lat="48.39654" lon="2.63531">
        <ele>135</ele>
        <time>2011-11-27T11:20:51Z</time>
      </trkpt>
      <trkpt lat="48.39675" lon="2.63534">
        <ele>133</ele>
        <time>2011-11-27T11:20:54Z</time>
      </trkpt>
      <trkpt lat="48.39686" lon="2.63563">
        <ele>132</ele>
        <time>2011-11-27T11:20:58Z</time>
      </trkpt>
      <trkpt lat="48.39698" lon="2.63623">
        <ele>128</ele>
        <time>2011-11-27T11:21:03Z</time>
      </trkpt>
      <trkpt lat="48.39733" lon="2.63639">
        <ele>126</ele>
        <time>2011-11-27T11:21:09Z</time>
      </trkpt>
      <trkpt lat="48.39763" lon="2.63645">
        <ele>121</ele>
        <time>2011-11-27T11:21:14Z</time>
      </trkpt>
      <trkpt lat="48.39768" lon="2.63654">
        <ele>121</ele>
        <time>2011-11-27T11:21:15Z</time>
      </trkpt>
      <trkpt lat="48.39818" lon="2.63756">
        <ele>111</ele>
        <time>2011-11-27T11:21:25Z</time>
      </trkpt>
      <trkpt lat="48.39831" lon="2.6377">
        <ele>110</ele>
        <time>2011-11-27T11:21:29Z</time>
      </trkpt>
      <trkpt lat="48.39854" lon="2.63734">
        <ele>116</ele>
        <time>2011-11-27T11:21:41Z</time>
      </trkpt>
      <trkpt lat="48.39876" lon="2.63701">
        <ele>119</ele>
        <time>2011-11-27T11:21:55Z</time>
      </trkpt>
      <trkpt lat="48.39885" lon="2.63699">
        <ele>120</ele>
        <time>2011-11-27T11:22:00Z</time>
      </trkpt>
      <trkpt lat="48.39894" lon="2.63695">
        <ele>121</ele>
        <time>2011-11-27T11:22:05Z</time>
      </trkpt>
      <trkpt lat="48.39916" lon="2.63691">
        <ele>122</ele>
        <time>2011-11-27T11:22:16Z</time>
      </trkpt>
      <trkpt lat="48.39935" lon="2.63685">
        <ele>127</ele>
        <time>2011-11-27T11:22:26Z</time>
      </trkpt>
      <trkpt lat="48.39952" lon="2.63651">
        <ele>129</ele>
        <time>2011-11-27T11:22:39Z</time>
      </trkpt>
      <trkpt lat="48.39967" lon="2.63637">
        <ele>129</ele>
        <time>2011-11-27T11:22:48Z</time>
      </trkpt>
      <trkpt lat="48.39993" lon="2.63615">
        <ele>130</ele>
        <time>2011-11-27T11:23:05Z</time>
      </trkpt>
      <trkpt lat="48.40002" lon="2.63606">
        <ele>132</ele>
        <time>2011-11-27T11:23:11Z</time>
      </trkpt>
      <trkpt lat="48.40018" lon="2.63599">
        <ele>132</ele>
        <time>2011-11-27T11:23:19Z</time>
      </trkpt>
      <trkpt lat="48.4004" lon="2.63591">
        <ele>133</ele>
        <time>2011-11-27T11:23:30Z</time>
      </trkpt>
      <trkpt lat="48.4005" lon="2.63585">
        <ele>133</ele>
        <time>2011-11-27T11:23:36Z</time>
      </trkpt>
      <trkpt lat="48.40056" lon="2.63585">
        <ele>134</ele>
        <time>2011-11-27T11:23:40Z</time>
      </trkpt>
      <trkpt lat="48.40082" lon="2.63595">
        <ele>135</ele>
        <time>2011-11-27T11:23:56Z</time>
      </trkpt>
      <trkpt lat="48.40103" lon="2.63615">
        <ele>137</ele>
        <time>2011-11-27T11:24:10Z</time>
      </trkpt>
      <trkpt lat="48.4012" lon="2.63639">
        <ele>137</ele>
        <time>2011-11-27T11:24:21Z</time>
      </trkpt>
      <trkpt lat="48.40144" lon="2.63681">
        <ele>137</ele>
        <time>2011-11-27T11:24:35Z</time>
      </trkpt>
      <trkpt lat="48.40167" lon="2.63717">
        <ele>139</ele>
        <time>2011-11-27T11:24:45Z</time>
      </trkpt>
      <trkpt lat="48.40197" lon="2.63767">
        <ele>138</ele>
        <time>2011-11-27T11:24:58Z</time>
      </trkpt>
      <trkpt lat="48.40229" lon="2.63825">
        <ele>138</ele>
        <time>2011-11-27T11:25:11Z</time>
      </trkpt>
      <trkpt lat="48.40256" lon="2.63872">
        <ele>138</ele>
        <time>2011-11-27T11:25:21Z</time>
      </trkpt>
      <trkpt lat="48.40281" lon="2.63877">
        <ele>138</ele>
        <time>2011-11-27T11:25:29Z</time>
      </trkpt>
      <trkpt lat="48.40325" lon="2.63864">
        <ele>139</ele>
        <time>2011-11-27T11:25:40Z</time>
      </trkpt>
      <trkpt lat="48.40329" lon="2.63863">
        <ele>139</ele>
        <time>2011-11-27T11:25:41Z</time>
      </trkpt>
      <trkpt lat="48.40345" lon="2.63858">
        <ele>139</ele>
        <time>2011-11-27T11:25:45Z</time>
      </trkpt>
      <trkpt lat="48.40381" lon="2.63848">
        <ele>138</ele>
        <time>2011-11-27T11:25:54Z</time>
      </trkpt>
      <trkpt lat="48.40382" lon="2.63863">
        <ele>138</ele>
        <time>2011-11-27T11:26:00Z</time>
      </trkpt>
      <trkpt lat="48.40376" lon="2.63871">
        <ele>138</ele>
        <time>2011-11-27T11:26:02Z</time>
      </trkpt>
      <trkpt lat="48.40361" lon="2.63913">
        <ele>138</ele>
        <time>2011-11-27T11:26:10Z</time>
      </trkpt>
      <trkpt lat="48.40362" lon="2.63926">
        <ele>137</ele>
        <time>2011-11-27T11:26:12Z</time>
      </trkpt>
      <trkpt lat="48.40365" lon="2.63939">
        <ele>137</ele>
        <time>2011-11-27T11:26:14Z</time>
      </trkpt>
      <trkpt lat="48.40358" lon="2.63957">
        <ele>136</ele>
        <time>2011-11-27T11:26:18Z</time>
      </trkpt>
      <trkpt lat="48.40354" lon="2.63984">
        <ele>136</ele>
        <time>2011-11-27T11:26:23Z</time>
      </trkpt>
      <trkpt lat="48.40342" lon="2.63999">
        <ele>135</ele>
        <time>2011-11-27T11:26:27Z</time>
      </trkpt>
      <trkpt lat="48.40324" lon="2.64006">
        <ele>135</ele>
        <time>2011-11-27T11:26:32Z</time>
      </trkpt>
      <trkpt lat="48.40313" lon="2.64023">
        <ele>134</ele>
        <time>2011-11-27T11:26:36Z</time>
      </trkpt>
      <trkpt lat="48.40289" lon="2.6408">
        <ele>134</ele>
        <time>2011-11-27T11:26:44Z</time>
      </trkpt>
      <trkpt lat="48.40286" lon="2.64086">
        <ele>134</ele>
        <time>2011-11-27T11:26:45Z</time>
      </trkpt>
      <trkpt lat="48.4028" lon="2.64096">
        <ele>134</ele>
        <time>2011-11-27T11:26:47Z</time>
      </trkpt>
      <trkpt lat="48.40279" lon="2.64131">
        <ele>134</ele>
        <time>2011-11-27T11:26:53Z</time>
      </trkpt>
      <trkpt lat="48.40282" lon="2.64157">
        <ele>134</ele>
        <time>2011-11-27T11:26:57Z</time>
      </trkpt>
      <trkpt lat="48.40282" lon="2.64213">
        <ele>133</ele>
        <time>2011-11-27T11:27:06Z</time>
      </trkpt>
      <trkpt lat="48.40279" lon="2.64237">
        <ele>133</ele>
        <time>2011-11-27T11:27:10Z</time>
      </trkpt>
      <trkpt lat="48.40279" lon="2.64247">
        <ele>133</ele>
        <time>2011-11-27T11:27:12Z</time>
      </trkpt>
      <trkpt lat="48.40262" lon="2.64288">
        <ele>132</ele>
        <time>2011-11-27T11:27:21Z</time>
      </trkpt>
      <trkpt lat="48.40251" lon="2.64334">
        <ele>134</ele>
        <time>2011-11-27T11:27:29Z</time>
      </trkpt>
      <trkpt lat="48.40243" lon="2.64357">
        <ele>134</ele>
        <time>2011-11-27T11:27:33Z</time>
      </trkpt>
      <trkpt lat="48.40243" lon="2.64375">
        <ele>133</ele>
        <time>2011-11-27T11:27:36Z</time>
      </trkpt>
      <trkpt lat="48.40243" lon="2.64386">
        <ele>133</ele>
        <time>2011-11-27T11:27:38Z</time>
      </trkpt>
      <trkpt lat="48.40245" lon="2.64418">
        <ele>130</ele>
        <time>2011-11-27T11:27:43Z</time>
      </trkpt>
      <trkpt lat="48.40237" lon="2.64501">
        <ele>128</ele>
        <time>2011-11-27T11:27:57Z</time>
      </trkpt>
      <trkpt lat="48.40228" lon="2.6455">
        <ele>129</ele>
        <time>2011-11-27T11:28:06Z</time>
      </trkpt>
      <trkpt lat="48.40205" lon="2.64619">
        <ele>127</ele>
        <time>2011-11-27T11:28:19Z</time>
      </trkpt>
      <trkpt lat="48.40176" lon="2.64675">
        <ele>129</ele>
        <time>2011-11-27T11:28:31Z</time>
      </trkpt>
      <trkpt lat="48.40144" lon="2.64732">
        <ele>131</ele>
        <time>2011-11-27T11:28:43Z</time>
      </trkpt>
      <trkpt lat="48.40125" lon="2.64798">
        <ele>132</ele>
        <time>2011-11-27T11:28:54Z</time>
      </trkpt>
      <trkpt lat="48.40118" lon="2.64831">
        <ele>132</ele>
        <time>2011-11-27T11:28:59Z</time>
      </trkpt>
      <trkpt lat="48.40119" lon="2.64879">
        <ele>131</ele>
        <time>2011-11-27T11:29:06Z</time>
      </trkpt>
      <trkpt lat="48.40114" lon="2.64915">
        <ele>131</ele>
        <time>2011-11-27T11:29:11Z</time>
      </trkpt>
      <trkpt lat="48.40098" lon="2.64968">
        <ele>128</ele>
        <time>2011-11-27T11:29:20Z</time>
      </trkpt>
      <trkpt lat="48.40103" lon="2.6501">
        <ele>126</ele>
        <time>2011-11-27T11:29:27Z</time>
      </trkpt>
      <trkpt lat="48.40102" lon="2.65037">
        <ele>124</ele>
        <time>2011-11-27T11:29:31Z</time>
      </trkpt>
      <trkpt lat="48.40097" lon="2.65067">
        <ele>125</ele>
        <time>2011-11-27T11:29:35Z</time>
      </trkpt>
      <trkpt lat="48.40088" lon="2.65101">
        <ele>123</ele>
        <time>2011-11-27T11:29:40Z</time>
      </trkpt>
      <trkpt lat="48.40081" lon="2.6512">
        <ele>127</ele>
        <time>2011-11-27T11:29:43Z</time>
      </trkpt>
      <trkpt lat="48.40078" lon="2.65137">
        <ele>126</ele>
        <time>2011-11-27T11:29:46Z</time>
      </trkpt>
      <trkpt lat="48.4007" lon="2.65171">
        <ele>125</ele>
        <time>2011-11-27T11:29:52Z</time>
      </trkpt>
      <trkpt lat="48.40068" lon="2.65189">
        <ele>125</ele>
        <time>2011-11-27T11:29:55Z</time>
      </trkpt>
      <trkpt lat="48.40062" lon="2.65215">
        <ele>125</ele>
        <time>2011-11-27T11:29:59Z</time>
      </trkpt>
      <trkpt lat="48.40046" lon="2.65247">
        <ele>126</ele>
        <time>2011-11-27T11:30:05Z</time>
      </trkpt>
      <trkpt lat="48.40038" lon="2.65271">
        <ele>125</ele>
        <time>2011-11-27T11:30:09Z</time>
      </trkpt>
      <trkpt lat="48.40038" lon="2.65285">
        <ele>125</ele>
        <time>2011-11-27T11:30:11Z</time>
      </trkpt>
      <trkpt lat="48.40041" lon="2.65298">
        <ele>124</ele>
        <time>2011-11-27T11:30:13Z</time>
      </trkpt>
      <trkpt lat="48.4004" lon="2.65315">
        <ele>124</ele>
        <time>2011-11-27T11:30:16Z</time>
      </trkpt>
      <trkpt lat="48.40031" lon="2.65349">
        <ele>123</ele>
        <time>2011-11-27T11:30:21Z</time>
      </trkpt>
      <trkpt lat="48.40028" lon="2.65397">
        <ele>122</ele>
        <time>2011-11-27T11:30:28Z</time>
      </trkpt>
      <trkpt lat="48.40002" lon="2.65429">
        <ele>121</ele>
        <time>2011-11-27T11:30:37Z</time>
      </trkpt>
      <trkpt lat="48.39994" lon="2.65443">
        <ele>119</ele>
        <time>2011-11-27T11:30:42Z</time>
      </trkpt>
      <trkpt lat="48.39986" lon="2.6546">
        <ele>117</ele>
        <time>2011-11-27T11:30:46Z</time>
      </trkpt>
      <trkpt lat="48.39981" lon="2.65475">
        <ele>117</ele>
        <time>2011-11-27T11:30:49Z</time>
      </trkpt>
      <trkpt lat="48.39986" lon="2.65505">
        <ele>116</ele>
        <time>2011-11-27T11:30:56Z</time>
      </trkpt>
      <trkpt lat="48.39988" lon="2.65504">
        <ele>116</ele>
        <time>2011-11-27T11:30:59Z</time>
      </trkpt>
      <trkpt lat="48.39993" lon="2.65513">
        <ele>116</ele>
        <time>2011-11-27T11:31:08Z</time>
      </trkpt>
      <trkpt lat="48.39999" lon="2.65522">
        <ele>115</ele>
        <time>2011-11-27T11:31:19Z</time>
      </trkpt>
      <trkpt lat="48.39999" lon="2.65526">
        <ele>115</ele>
        <time>2011-11-27T11:31:33Z</time>
      </trkpt>
      <trkpt lat="48.40003" lon="2.65529">
        <ele>115</ele>
        <time>2011-11-27T11:31:44Z</time>
      </trkpt>
      <trkpt lat="48.40004" lon="2.65531">
        <ele>115</ele>
        <time>2011-11-27T11:31:46Z</time>
      </trkpt>
      <trkpt lat="48.40004" lon="2.65539">
        <ele>115</ele>
        <time>2011-11-27T11:31:54Z</time>
      </trkpt>
      <trkpt lat="48.40011" lon="2.65547">
        <ele>114</ele>
        <time>2011-11-27T11:32:04Z</time>
      </trkpt>
      <trkpt lat="48.40011" lon="2.65545">
        <ele>114</ele>
        <time>2011-11-27T11:32:06Z</time>
      </trkpt>
      <trkpt lat="48.40012" lon="2.65542">
        <ele>114</ele>
        <time>2011-11-27T11:32:11Z</time>
      </trkpt>
      <trkpt lat="48.40016" lon="2.65539">
        <ele>114</ele>
        <time>2011-11-27T11:32:13Z</time>
      </trkpt>
      <trkpt lat="48.40017" lon="2.65535">
        <ele>114</ele>
        <time>2011-11-27T11:32:15Z</time>
      </trkpt>
      <trkpt lat="48.40026" lon="2.6554">
        <ele>114</ele>
        <time>2011-11-27T11:32:20Z</time>
      </trkpt>
      <trkpt lat="48.40031" lon="2.65548">
        <ele>113</ele>
        <time>2011-11-27T11:32:23Z</time>
      </trkpt>
      <trkpt lat="48.4004" lon="2.65553">
        <ele>112</ele>
        <time>2011-11-27T11:32:32Z</time>
      </trkpt>
      <trkpt lat="48.40045" lon="2.65551">
        <ele>112</ele>
        <time>2011-11-27T11:32:52Z</time>
      </trkpt>
      <trkpt lat="48.4005" lon="2.65547">
        <ele>112</ele>
        <time>2011-11-27T11:33:03Z</time>
      </trkpt>
      <trkpt lat="48.40056" lon="2.65544">
        <ele>112</ele>
        <time>2011-11-27T11:33:15Z</time>
      </trkpt>
      <trkpt lat="48.40062" lon="2.6554">
        <ele>111</ele>
        <time>2011-11-27T11:33:19Z</time>
      </trkpt>
      <trkpt lat="48.40072" lon="2.6553">
        <ele>111</ele>
        <time>2011-11-27T11:33:30Z</time>
      </trkpt>
      <trkpt lat="48.40082" lon="2.65532">
        <ele>111</ele>
        <time>2011-11-27T11:33:36Z</time>
      </trkpt>
      <trkpt lat="48.40095" lon="2.65526">
        <ele>104</ele>
        <time>2011-11-27T11:33:42Z</time>
      </trkpt>
      <trkpt lat="48.40109" lon="2.65522">
        <ele>103</ele>
        <time>2011-11-27T11:33:46Z</time>
      </trkpt>
      <trkpt lat="48.4012" lon="2.65502">
        <ele>103</ele>
        <time>2011-11-27T11:33:50Z</time>
      </trkpt>
      <trkpt lat="48.40124" lon="2.65489">
        <ele>104</ele>
        <time>2011-11-27T11:33:53Z</time>
      </trkpt>
      <trkpt lat="48.40149" lon="2.65444">
        <ele>103</ele>
        <time>2011-11-27T11:34:04Z</time>
      </trkpt>
      <trkpt lat="48.40156" lon="2.65431">
        <ele>102</ele>
        <time>2011-11-27T11:34:08Z</time>
      </trkpt>
      <trkpt lat="48.4016" lon="2.6543">
        <ele>102</ele>
        <time>2011-11-27T11:34:10Z</time>
      </trkpt>
      <trkpt lat="48.40166" lon="2.65419">
        <ele>101</ele>
        <time>2011-11-27T11:34:26Z</time>
      </trkpt>
      <trkpt lat="48.40166" lon="2.65419">
        <ele>100</ele>
        <time>2011-11-27T11:34:35Z</time>
      </trkpt>
      <trkpt lat="48.40169" lon="2.65416">
        <ele>100</ele>
        <time>2011-11-27T11:34:39Z</time>
      </trkpt>
      <trkpt lat="48.4019" lon="2.65375">
        <ele>104</ele>
        <time>2011-11-27T11:34:55Z</time>
      </trkpt>
      <trkpt lat="48.40195" lon="2.65365">
        <ele>104</ele>
        <time>2011-11-27T11:34:59Z</time>
      </trkpt>
      <trkpt lat="48.402" lon="2.65356">
        <ele>105</ele>
        <time>2011-11-27T11:35:10Z</time>
      </trkpt>
      <trkpt lat="48.40205" lon="2.65355">
        <ele>105</ele>
        <time>2011-11-27T11:35:24Z</time>
      </trkpt>
      <trkpt lat="48.40208" lon="2.65354">
        <ele>105</ele>
        <time>2011-11-27T11:35:29Z</time>
      </trkpt>
      <trkpt lat="48.40215" lon="2.65344">
        <ele>106</ele>
        <time>2011-11-27T11:35:39Z</time>
      </trkpt>
      <trkpt lat="48.40219" lon="2.65347">
        <ele>106</ele>
        <time>2011-11-27T11:35:54Z</time>
      </trkpt>
      <trkpt lat="48.40226" lon="2.65353">
        <ele>106</ele>
        <time>2011-11-27T11:36:14Z</time>
      </trkpt>
      <trkpt lat="48.40229" lon="2.65354">
        <ele>106</ele>
        <time>2011-11-27T11:36:16Z</time>
      </trkpt>
      <trkpt lat="48.40232" lon="2.6536">
        <ele>106</ele>
        <time>2011-11-27T11:36:19Z</time>
      </trkpt>
      <trkpt lat="48.40235" lon="2.65363">
        <ele>106</ele>
        <time>2011-11-27T11:36:22Z</time>
      </trkpt>
      <trkpt lat="48.40242" lon="2.65357">
        <ele>107</ele>
        <time>2011-11-27T11:36:26Z</time>
      </trkpt>
      <trkpt lat="48.40257" lon="2.65341">
        <ele>108</ele>
        <time>2011-11-27T11:36:34Z</time>
      </trkpt>
      <trkpt lat="48.40263" lon="2.65339">
        <ele>108</ele>
        <time>2011-11-27T11:36:40Z</time>
      </trkpt>
      <trkpt lat="48.40278" lon="2.65301">
        <ele>105</ele>
        <time>2011-11-27T11:36:52Z</time>
      </trkpt>
      <trkpt lat="48.40281" lon="2.65294">
        <ele>105</ele>
        <time>2011-11-27T11:36:54Z</time>
      </trkpt>
      <trkpt lat="48.4029" lon="2.65291">
        <ele>105</ele>
        <time>2011-11-27T11:36:58Z</time>
      </trkpt>
      <trkpt lat="48.40294" lon="2.65296">
        <ele>105</ele>
        <time>2011-11-27T11:37:02Z</time>
      </trkpt>
      <trkpt lat="48.40304" lon="2.65303">
        <ele>105</ele>
        <time>2011-11-27T11:37:07Z</time>
      </trkpt>
      <trkpt lat="48.40313" lon="2.65314">
        <ele>105</ele>
        <time>2011-11-27T11:37:12Z</time>
      </trkpt>
      <trkpt lat="48.40317" lon="2.65323">
        <ele>105</ele>
        <time>2011-11-27T11:37:15Z</time>
      </trkpt>
      <trkpt lat="48.40325" lon="2.65326">
        <ele>105</ele>
        <time>2011-11-27T11:37:20Z</time>
      </trkpt>
      <trkpt lat="48.40328" lon="2.65328">
        <ele>105</ele>
        <time>2011-11-27T11:37:22Z</time>
      </trkpt>
      <trkpt lat="48.40335" lon="2.6536">
        <ele>102</ele>
        <time>2011-11-27T11:37:31Z</time>
      </trkpt>
      <trkpt lat="48.40335" lon="2.65386">
        <ele>101</ele>
        <time>2011-11-27T11:37:35Z</time>
      </trkpt>
      <trkpt lat="48.40343" lon="2.65411">
        <ele>100</ele>
        <time>2011-11-27T11:37:40Z</time>
      </trkpt>
      <trkpt lat="48.40344" lon="2.65423">
        <ele>99</ele>
        <time>2011-11-27T11:37:43Z</time>
      </trkpt>
      <trkpt lat="48.40347" lon="2.65433">
        <ele>99</ele>
        <time>2011-11-27T11:37:52Z</time>
      </trkpt>
      <trkpt lat="48.40349" lon="2.65435">
        <ele>99</ele>
        <time>2011-11-27T11:37:55Z</time>
      </trkpt>
      <trkpt lat="48.4035" lon="2.65442">
        <ele>99</ele>
        <time>2011-11-27T11:37:57Z</time>
      </trkpt>
      <trkpt lat="48.40361" lon="2.65485">
        <ele>98</ele>
        <time>2011-11-27T11:38:04Z</time>
      </trkpt>
      <trkpt lat="48.40384" lon="2.65543">
        <ele>98</ele>
        <time>2011-11-27T11:38:19Z</time>
      </trkpt>
      <trkpt lat="48.40385" lon="2.65544">
        <ele>98</ele>
        <time>2011-11-27T11:38:20Z</time>
      </trkpt>
      <trkpt lat="48.4039" lon="2.65544">
        <ele>98</ele>
        <time>2011-11-27T11:38:24Z</time>
      </trkpt>
      <trkpt lat="48.40397" lon="2.65542">
        <ele>98</ele>
        <time>2011-11-27T11:38:29Z</time>
      </trkpt>
      <trkpt lat="48.40414" lon="2.65551">
        <ele>99</ele>
        <time>2011-11-27T11:38:40Z</time>
      </trkpt>
      <trkpt lat="48.40421" lon="2.65554">
        <ele>104</ele>
        <time>2011-11-27T11:38:43Z</time>
      </trkpt>
      <trkpt lat="48.40428" lon="2.65565">
        <ele>104</ele>
        <time>2011-11-27T11:38:48Z</time>
      </trkpt>
      <trkpt lat="48.40431" lon="2.65579">
        <ele>103</ele>
        <time>2011-11-27T11:38:53Z</time>
      </trkpt>
      <trkpt lat="48.40432" lon="2.65585">
        <ele>103</ele>
        <time>2011-11-27T11:38:55Z</time>
      </trkpt>
      <trkpt lat="48.40434" lon="2.65597">
        <ele>103</ele>
        <time>2011-11-27T11:38:59Z</time>
      </trkpt>
      <trkpt lat="48.40442" lon="2.6561">
        <ele>104</ele>
        <time>2011-11-27T11:39:04Z</time>
      </trkpt>
      <trkpt lat="48.40452" lon="2.65631">
        <ele>104</ele>
        <time>2011-11-27T11:39:10Z</time>
      </trkpt>
      <trkpt lat="48.40465" lon="2.65649">
        <ele>105</ele>
        <time>2011-11-27T11:39:15Z</time>
      </trkpt>
      <trkpt lat="48.40478" lon="2.65658">
        <ele>106</ele>
        <time>2011-11-27T11:39:20Z</time>
      </trkpt>
      <trkpt lat="48.40491" lon="2.65686">
        <ele>104</ele>
        <time>2011-11-27T11:39:29Z</time>
      </trkpt>
      <trkpt lat="48.40493" lon="2.65697">
        <ele>104</ele>
        <time>2011-11-27T11:39:32Z</time>
      </trkpt>
      <trkpt lat="48.40496" lon="2.65719">
        <ele>103</ele>
        <time>2011-11-27T11:39:46Z</time>
      </trkpt>
      <trkpt lat="48.40497" lon="2.65745">
        <ele>104</ele>
        <time>2011-11-27T11:39:54Z</time>
      </trkpt>
      <trkpt lat="48.40497" lon="2.65759">
        <ele>103</ele>
        <time>2011-11-27T11:39:57Z</time>
      </trkpt>
      <trkpt lat="48.40494" lon="2.6577">
        <ele>102</ele>
        <time>2011-11-27T11:40:00Z</time>
      </trkpt>
      <trkpt lat="48.4049" lon="2.658">
        <ele>102</ele>
        <time>2011-11-27T11:40:09Z</time>
      </trkpt>
      <trkpt lat="48.40489" lon="2.65809">
        <ele>102</ele>
        <time>2011-11-27T11:40:15Z</time>
      </trkpt>
      <trkpt lat="48.40489" lon="2.65819">
        <ele>102</ele>
        <time>2011-11-27T11:40:19Z</time>
      </trkpt>
      <trkpt lat="48.40481" lon="2.65817">
        <ele>102</ele>
        <time>2011-11-27T11:40:24Z</time>
      </trkpt>
      <trkpt lat="48.40473" lon="2.65821">
        <ele>101</ele>
        <time>2011-11-27T11:40:29Z</time>
      </trkpt>
      <trkpt lat="48.40469" lon="2.65824">
        <ele>101</ele>
        <time>2011-11-27T11:40:32Z</time>
      </trkpt>
      <trkpt lat="48.40467" lon="2.6583">
        <ele>101</ele>
        <time>2011-11-27T11:40:35Z</time>
      </trkpt>
      <trkpt lat="48.4046" lon="2.65839">
        <ele>101</ele>
        <time>2011-11-27T11:40:40Z</time>
      </trkpt>
      <trkpt lat="48.40453" lon="2.6585">
        <ele>101</ele>
        <time>2011-11-27T11:40:45Z</time>
      </trkpt>
      <trkpt lat="48.40446" lon="2.65858">
        <ele>101</ele>
        <time>2011-11-27T11:40:50Z</time>
      </trkpt>
      <trkpt lat="48.40445" lon="2.65866">
        <ele>101</ele>
        <time>2011-11-27T11:40:53Z</time>
      </trkpt>
      <trkpt lat="48.40446" lon="2.65875">
        <ele>101</ele>
        <time>2011-11-27T11:40:55Z</time>
      </trkpt>
      <trkpt lat="48.40441" lon="2.65913">
        <ele>101</ele>
        <time>2011-11-27T11:41:04Z</time>
      </trkpt>
      <trkpt lat="48.40435" lon="2.65924">
        <ele>101</ele>
        <time>2011-11-27T11:41:10Z</time>
      </trkpt>
      <trkpt lat="48.40441" lon="2.65952">
        <ele>102</ele>
        <time>2011-11-27T11:41:19Z</time>
      </trkpt>
      <trkpt lat="48.40447" lon="2.65957">
        <ele>102</ele>
        <time>2011-11-27T11:41:23Z</time>
      </trkpt>
      <trkpt lat="48.4045" lon="2.65972">
        <ele>102</ele>
        <time>2011-11-27T11:41:28Z</time>
      </trkpt>
      <trkpt lat="48.40452" lon="2.65988">
        <ele>102</ele>
        <time>2011-11-27T11:41:34Z</time>
      </trkpt>
      <trkpt lat="48.40442" lon="2.66029">
        <ele>102</ele>
        <time>2011-11-27T11:41:43Z</time>
      </trkpt>
      <trkpt lat="48.40436" lon="2.66033">
        <ele>102</ele>
        <time>2011-11-27T11:41:47Z</time>
      </trkpt>
      <trkpt lat="48.40431" lon="2.66044">
        <ele>102</ele>
        <time>2011-11-27T11:41:52Z</time>
      </trkpt>
      <trkpt lat="48.40428" lon="2.66048">
        <ele>102</ele>
        <time>2011-11-27T11:41:54Z</time>
      </trkpt>
      <trkpt lat="48.40428" lon="2.66055">
        <ele>102</ele>
        <time>2011-11-27T11:41:57Z</time>
      </trkpt>
      <trkpt lat="48.40424" lon="2.66062">
        <ele>102</ele>
        <time>2011-11-27T11:42:01Z</time>
      </trkpt>
      <trkpt lat="48.40396" lon="2.66063">
        <ele>99</ele>
        <time>2011-11-27T11:42:11Z</time>
      </trkpt>
      <trkpt lat="48.40385" lon="2.6607">
        <ele>99</ele>
        <time>2011-11-27T11:42:19Z</time>
      </trkpt>
      <trkpt lat="48.40366" lon="2.66087">
        <ele>99</ele>
        <time>2011-11-27T11:42:48Z</time>
      </trkpt>
      <trkpt lat="48.40341" lon="2.66142">
        <ele>99</ele>
        <time>2011-11-27T11:43:00Z</time>
      </trkpt>
      <trkpt lat="48.40325" lon="2.66174">
        <ele>100</ele>
        <time>2011-11-27T11:43:07Z</time>
      </trkpt>
      <trkpt lat="48.40319" lon="2.66181">
        <ele>100</ele>
        <time>2011-11-27T11:43:10Z</time>
      </trkpt>
      <trkpt lat="48.40296" lon="2.66214">
        <ele>102</ele>
        <time>2011-11-27T11:43:19Z</time>
      </trkpt>
      <trkpt lat="48.40292" lon="2.66227">
        <ele>102</ele>
        <time>2011-11-27T11:43:23Z</time>
      </trkpt>
      <trkpt lat="48.40287" lon="2.66229">
        <ele>102</ele>
        <time>2011-11-27T11:43:26Z</time>
      </trkpt>
      <trkpt lat="48.40274" lon="2.66243">
        <ele>103</ele>
        <time>2011-11-27T11:43:34Z</time>
      </trkpt>
      <trkpt lat="48.40253" lon="2.66255">
        <ele>106</ele>
        <time>2011-11-27T11:43:42Z</time>
      </trkpt>
      <trkpt lat="48.40227" lon="2.6627">
        <ele>106</ele>
        <time>2011-11-27T11:43:52Z</time>
      </trkpt>
      <trkpt lat="48.4021" lon="2.66287">
        <ele>106</ele>
        <time>2011-11-27T11:44:01Z</time>
      </trkpt>
      <trkpt lat="48.40208" lon="2.66292">
        <ele>106</ele>
        <time>2011-11-27T11:44:13Z</time>
      </trkpt>
      <trkpt lat="48.40209" lon="2.66295">
        <ele>106</ele>
        <time>2011-11-27T11:44:52Z</time>
      </trkpt>
      <trkpt lat="48.40205" lon="2.66307">
        <ele>106</ele>
        <time>2011-11-27T11:44:58Z</time>
      </trkpt>
      <trkpt lat="48.40198" lon="2.66321">
        <ele>106</ele>
        <time>2011-11-27T11:45:08Z</time>
      </trkpt>
      <trkpt lat="48.40193" lon="2.66335">
        <ele>109</ele>
        <time>2011-11-27T11:45:21Z</time>
      </trkpt>
      <trkpt lat="48.40183" lon="2.6635">
        <ele>108</ele>
        <time>2011-11-27T11:45:29Z</time>
      </trkpt>
      <trkpt lat="48.40179" lon="2.66365">
        <ele>109</ele>
        <time>2011-11-27T11:45:34Z</time>
      </trkpt>
      <trkpt lat="48.40177" lon="2.66381">
        <ele>109</ele>
        <time>2011-11-27T11:45:40Z</time>
      </trkpt>
      <trkpt lat="48.40172" lon="2.66398">
        <ele>109</ele>
        <time>2011-11-27T11:45:46Z</time>
      </trkpt>
      <trkpt lat="48.4017" lon="2.66404">
        <ele>108</ele>
        <time>2011-11-27T11:45:49Z</time>
      </trkpt>
      <trkpt lat="48.40171" lon="2.6641">
        <ele>108</ele>
        <time>2011-11-27T11:45:52Z</time>
      </trkpt>
      <trkpt lat="48.40178" lon="2.66421">
        <ele>109</ele>
        <time>2011-11-27T11:46:01Z</time>
      </trkpt>
      <trkpt lat="48.40181" lon="2.66425">
        <ele>109</ele>
        <time>2011-11-27T11:46:04Z</time>
      </trkpt>
      <trkpt lat="48.4018" lon="2.66432">
        <ele>109</ele>
        <time>2011-11-27T11:46:08Z</time>
      </trkpt>
      <trkpt lat="48.40185" lon="2.66439">
        <ele>110</ele>
        <time>2011-11-27T11:46:20Z</time>
      </trkpt>
      <trkpt lat="48.40186" lon="2.66439">
        <ele>110</ele>
        <time>2011-11-27T11:46:34Z</time>
      </trkpt>
      <trkpt lat="48.40187" lon="2.66446">
        <ele>110</ele>
        <time>2011-11-27T11:46:50Z</time>
      </trkpt>
      <trkpt lat="48.40186" lon="2.6645">
        <ele>110</ele>
        <time>2011-11-27T11:46:52Z</time>
      </trkpt>
      <trkpt lat="48.40191" lon="2.66463">
        <ele>110</ele>
        <time>2011-11-27T11:47:02Z</time>
      </trkpt>
      <trkpt lat="48.40193" lon="2.66468">
        <ele>110</ele>
        <time>2011-11-27T11:47:21Z</time>
      </trkpt>
      <trkpt lat="48.40196" lon="2.66496">
        <ele>110</ele>
        <time>2011-11-27T11:47:33Z</time>
      </trkpt>
      <trkpt lat="48.40198" lon="2.66498">
        <ele>110</ele>
        <time>2011-11-27T11:47:34Z</time>
      </trkpt>
      <trkpt lat="48.402" lon="2.66496">
        <ele>110</ele>
        <time>2011-11-27T11:47:37Z</time>
      </trkpt>
      <trkpt lat="48.40201" lon="2.66509">
        <ele>108</ele>
        <time>2011-11-27T11:47:48Z</time>
      </trkpt>
      <trkpt lat="48.40203" lon="2.66522">
        <ele>109</ele>
        <time>2011-11-27T11:48:03Z</time>
      </trkpt>
      <trkpt lat="48.40205" lon="2.66534">
        <ele>109</ele>
        <time>2011-11-27T11:48:16Z</time>
      </trkpt>
      <trkpt lat="48.40213" lon="2.66538">
        <ele>109</ele>
        <time>2011-11-27T11:48:29Z</time>
      </trkpt>
      <trkpt lat="48.40217" lon="2.66536">
        <ele>109</ele>
        <time>2011-11-27T11:48:45Z</time>
      </trkpt>
      <trkpt lat="48.40218" lon="2.66533">
        <ele>109</ele>
        <time>2011-11-27T11:49:02Z</time>
      </trkpt>
      <trkpt lat="48.40221" lon="2.66531">
        <ele>110</ele>
        <time>2011-11-27T11:49:16Z</time>
      </trkpt>
      <trkpt lat="48.40223" lon="2.66532">
        <ele>110</ele>
        <time>2011-11-27T11:49:25Z</time>
      </trkpt>
      <trkpt lat="48.40229" lon="2.6653">
        <ele>110</ele>
        <time>2011-11-27T11:49:29Z</time>
      </trkpt>
      <trkpt lat="48.4023" lon="2.66528">
        <ele>110</ele>
        <time>2011-11-27T11:49:41Z</time>
      </trkpt>
      <trkpt lat="48.40231" lon="2.66529">
        <ele>110</ele>
        <time>2011-11-27T11:50:39Z</time>
      </trkpt>
      <trkpt lat="48.40236" lon="2.66521">
        <ele>111</ele>
        <time>2011-11-27T11:51:01Z</time>
      </trkpt>
      <trkpt lat="48.40237" lon="2.66515">
        <ele>112</ele>
        <time>2011-11-27T11:51:23Z</time>
      </trkpt>
      <trkpt lat="48.40242" lon="2.6651">
        <ele>113</ele>
        <time>2011-11-27T11:51:30Z</time>
      </trkpt>
      <trkpt lat="48.40241" lon="2.66499">
        <ele>115</ele>
        <time>2011-11-27T11:51:35Z</time>
      </trkpt>
      <trkpt lat="48.40241" lon="2.66486">
        <ele>114</ele>
        <time>2011-11-27T11:51:48Z</time>
      </trkpt>
      <trkpt lat="48.40241" lon="2.66484">
        <ele>114</ele>
        <time>2011-11-27T11:52:09Z</time>
      </trkpt>
      <trkpt lat="48.4025" lon="2.66457">
        <ele>114</ele>
        <time>2011-11-27T11:52:20Z</time>
      </trkpt>
      <trkpt lat="48.40251" lon="2.66449">
        <ele>115</ele>
        <time>2011-11-27T11:52:22Z</time>
      </trkpt>
      <trkpt lat="48.40261" lon="2.66432">
        <ele>116</ele>
        <time>2011-11-27T11:52:26Z</time>
      </trkpt>
      <trkpt lat="48.40273" lon="2.66422">
        <ele>115</ele>
        <time>2011-11-27T11:52:29Z</time>
      </trkpt>
      <trkpt lat="48.4029" lon="2.66411">
        <ele>115</ele>
        <time>2011-11-27T11:52:33Z</time>
      </trkpt>
      <trkpt lat="48.40303" lon="2.66409">
        <ele>114</ele>
        <time>2011-11-27T11:52:36Z</time>
      </trkpt>
      <trkpt lat="48.40328" lon="2.66395">
        <ele>114</ele>
        <time>2011-11-27T11:52:40Z</time>
      </trkpt>
      <trkpt lat="48.40362" lon="2.6639">
        <ele>115</ele>
        <time>2011-11-27T11:52:47Z</time>
      </trkpt>
      <trkpt lat="48.40369" lon="2.664">
        <ele>116</ele>
        <time>2011-11-27T11:52:51Z</time>
      </trkpt>
      <trkpt lat="48.40382" lon="2.66408">
        <ele>116</ele>
        <time>2011-11-27T11:52:56Z</time>
      </trkpt>
      <trkpt lat="48.40386" lon="2.66406">
        <ele>116</ele>
        <time>2011-11-27T11:52:59Z</time>
      </trkpt>
      <trkpt lat="48.40415" lon="2.66423">
        <ele>116</ele>
        <time>2011-11-27T11:53:12Z</time>
      </trkpt>
      <trkpt lat="48.40443" lon="2.66439">
        <ele>114</ele>
        <time>2011-11-27T11:53:25Z</time>
      </trkpt>
      <trkpt lat="48.40458" lon="2.66434">
        <ele>114</ele>
        <time>2011-11-27T11:53:32Z</time>
      </trkpt>
      <trkpt lat="48.40486" lon="2.6643">
        <ele>116</ele>
        <time>2011-11-27T11:53:45Z</time>
      </trkpt>
      <trkpt lat="48.40505" lon="2.66392">
        <ele>119</ele>
        <time>2011-11-27T11:54:01Z</time>
      </trkpt>
      <trkpt lat="48.40515" lon="2.66337">
        <ele>122</ele>
        <time>2011-11-27T11:54:17Z</time>
      </trkpt>
      <trkpt lat="48.40518" lon="2.66322">
        <ele>121</ele>
        <time>2011-11-27T11:54:21Z</time>
      </trkpt>
      <trkpt lat="48.40519" lon="2.66309">
        <ele>120</ele>
        <time>2011-11-27T11:54:26Z</time>
      </trkpt>
      <trkpt lat="48.40516" lon="2.66296">
        <ele>119</ele>
        <time>2011-11-27T11:54:32Z</time>
      </trkpt>
      <trkpt lat="48.40505" lon="2.66282">
        <ele>119</ele>
        <time>2011-11-27T11:54:41Z</time>
      </trkpt>
      <trkpt lat="48.40498" lon="2.66273">
        <ele>121</ele>
        <time>2011-11-27T11:54:46Z</time>
      </trkpt>
      <trkpt lat="48.40487" lon="2.66277">
        <ele>121</ele>
        <time>2011-11-27T11:55:00Z</time>
      </trkpt>
      <trkpt lat="48.40477" lon="2.66287">
        <ele>121</ele>
        <time>2011-11-27T11:55:15Z</time>
      </trkpt>
      <trkpt lat="48.40478" lon="2.66296">
        <ele>121</ele>
        <time>2011-11-27T11:55:24Z</time>
      </trkpt>
      <trkpt lat="48.40477" lon="2.66309">
        <ele>122</ele>
        <time>2011-11-27T11:55:30Z</time>
      </trkpt>
      <trkpt lat="48.40473" lon="2.66318">
        <ele>122</ele>
        <time>2011-11-27T11:55:34Z</time>
      </trkpt>
      <trkpt lat="48.40473" lon="2.66324">
        <ele>123</ele>
        <time>2011-11-27T11:55:37Z</time>
      </trkpt>
      <trkpt lat="48.40472" lon="2.6633">
        <ele>123</ele>
        <time>2011-11-27T11:55:41Z</time>
      </trkpt>
      <trkpt lat="48.40468" lon="2.66342">
        <ele>123</ele>
        <time>2011-11-27T11:55:55Z</time>
      </trkpt>
      <trkpt lat="48.40467" lon="2.66343">
        <ele>123</ele>
        <time>2011-11-27T11:55:58Z</time>
      </trkpt>
      <trkpt lat="48.40466" lon="2.66346">
        <ele>123</ele>
        <time>2011-11-27T11:56:00Z</time>
      </trkpt>
      <trkpt lat="48.4046" lon="2.66353">
        <ele>122</ele>
        <time>2011-11-27T11:56:04Z</time>
      </trkpt>
      <trkpt lat="48.40449" lon="2.66372">
        <ele>122</ele>
        <time>2011-11-27T11:56:14Z</time>
      </trkpt>
      <trkpt lat="48.40447" lon="2.66372">
        <ele>122</ele>
        <time>2011-11-27T11:56:17Z</time>
      </trkpt>
      <trkpt lat="48.40448" lon="2.66363">
        <ele>122</ele>
        <time>2011-11-27T11:56:22Z</time>
      </trkpt>
      <trkpt lat="48.40448" lon="2.66354">
        <ele>122</ele>
        <time>2011-11-27T11:56:25Z</time>
      </trkpt>
      <trkpt lat="48.40451" lon="2.6634">
        <ele>122</ele>
        <time>2011-11-27T11:56:35Z</time>
      </trkpt>
      <trkpt lat="48.40447" lon="2.66333">
        <ele>121</ele>
        <time>2011-11-27T11:56:49Z</time>
      </trkpt>
      <trkpt lat="48.40444" lon="2.66329">
        <ele>121</ele>
        <time>2011-11-27T11:56:59Z</time>
      </trkpt>
      <trkpt lat="48.4044" lon="2.66323">
        <ele>121</ele>
        <time>2011-11-27T11:57:07Z</time>
      </trkpt>
      <trkpt lat="48.40439" lon="2.66312">
        <ele>120</ele>
        <time>2011-11-27T11:57:18Z</time>
      </trkpt>
      <trkpt lat="48.40442" lon="2.66283">
        <ele>119</ele>
        <time>2011-11-27T11:57:31Z</time>
      </trkpt>
      <trkpt lat="48.40445" lon="2.6628">
        <ele>119</ele>
        <time>2011-11-27T11:57:33Z</time>
      </trkpt>
      <trkpt lat="48.40446" lon="2.66272">
        <ele>119</ele>
        <time>2011-11-27T11:57:37Z</time>
      </trkpt>
      <trkpt lat="48.40449" lon="2.66265">
        <ele>118</ele>
        <time>2011-11-27T11:57:40Z</time>
      </trkpt>
      <trkpt lat="48.40454" lon="2.66258">
        <ele>119</ele>
        <time>2011-11-27T11:57:42Z</time>
      </trkpt>
      <trkpt lat="48.40464" lon="2.66244">
        <ele>114</ele>
        <time>2011-11-27T11:57:47Z</time>
      </trkpt>
      <trkpt lat="48.40476" lon="2.66235">
        <ele>115</ele>
        <time>2011-11-27T11:57:52Z</time>
      </trkpt>
      <trkpt lat="48.40486" lon="2.66236">
        <ele>116</ele>
        <time>2011-11-27T11:57:57Z</time>
      </trkpt>
      <trkpt lat="48.40501" lon="2.66229">
        <ele>116</ele>
        <time>2011-11-27T11:58:04Z</time>
      </trkpt>
      <trkpt lat="48.40512" lon="2.66235">
        <ele>116</ele>
        <time>2011-11-27T11:58:08Z</time>
      </trkpt>
      <trkpt lat="48.4052" lon="2.66242">
        <ele>115</ele>
        <time>2011-11-27T11:58:10Z</time>
      </trkpt>
      <trkpt lat="48.4053" lon="2.66259">
        <ele>117</ele>
        <time>2011-11-27T11:58:14Z</time>
      </trkpt>
      <trkpt lat="48.40539" lon="2.66312">
        <ele>117</ele>
        <time>2011-11-27T11:58:25Z</time>
      </trkpt>
      <trkpt lat="48.40542" lon="2.66352">
        <ele>117</ele>
        <time>2011-11-27T11:58:34Z</time>
      </trkpt>
      <trkpt lat="48.40541" lon="2.66357">
        <ele>117</ele>
        <time>2011-11-27T11:58:35Z</time>
      </trkpt>
      <trkpt lat="48.40532" lon="2.66393">
        <ele>117</ele>
        <time>2011-11-27T11:58:44Z</time>
      </trkpt>
      <trkpt lat="48.40535" lon="2.66418">
        <ele>113</ele>
        <time>2011-11-27T11:58:52Z</time>
      </trkpt>
      <trkpt lat="48.40518" lon="2.66462">
        <ele>110</ele>
        <time>2011-11-27T11:59:02Z</time>
      </trkpt>
      <trkpt lat="48.40515" lon="2.66467">
        <ele>110</ele>
        <time>2011-11-27T11:59:03Z</time>
      </trkpt>
      <trkpt lat="48.405" lon="2.66484">
        <ele>108</ele>
        <time>2011-11-27T11:59:07Z</time>
      </trkpt>
      <trkpt lat="48.40488" lon="2.66517">
        <ele>103</ele>
        <time>2011-11-27T11:59:11Z</time>
      </trkpt>
      <trkpt lat="48.40474" lon="2.66585">
        <ele>98</ele>
        <time>2011-11-27T11:59:17Z</time>
      </trkpt>
      <trkpt lat="48.4047" lon="2.6664">
        <ele>98</ele>
        <time>2011-11-27T11:59:23Z</time>
      </trkpt>
      <trkpt lat="48.40478" lon="2.6671">
        <ele>96</ele>
        <time>2011-11-27T11:59:35Z</time>
      </trkpt>
      <trkpt lat="48.40476" lon="2.66767">
        <ele>95</ele>
        <time>2011-11-27T11:59:46Z</time>
      </trkpt>
      <trkpt lat="48.40475" lon="2.6678">
        <ele>95</ele>
        <time>2011-11-27T11:59:56Z</time>
      </trkpt>
      <trkpt lat="48.4048" lon="2.66796">
        <ele>95</ele>
        <time>2011-11-27T12:01:18Z</time>
      </trkpt>
      <trkpt lat="48.4048" lon="2.668">
        <ele>95</ele>
        <time>2011-11-27T12:01:20Z</time>
      </trkpt>
      <trkpt lat="48.40481" lon="2.66805">
        <ele>95</ele>
        <time>2011-11-27T12:01:23Z</time>
      </trkpt>
      <trkpt lat="48.40488" lon="2.66828">
        <ele>94</ele>
        <time>2011-11-27T12:01:37Z</time>
      </trkpt>
      <trkpt lat="48.40492" lon="2.66856">
        <ele>93</ele>
        <time>2011-11-27T12:01:44Z</time>
      </trkpt>
      <trkpt lat="48.40497" lon="2.66884">
        <ele>92</ele>
        <time>2011-11-27T12:01:49Z</time>
      </trkpt>
      <trkpt lat="48.40502" lon="2.66907">
        <ele>93</ele>
        <time>2011-11-27T12:01:53Z</time>
      </trkpt>
      <trkpt lat="48.40515" lon="2.66978">
        <ele>94</ele>
        <time>2011-11-27T12:02:05Z</time>
      </trkpt>
      <trkpt lat="48.40533" lon="2.67054">
        <ele>93</ele>
        <time>2011-11-27T12:02:18Z</time>
      </trkpt>
      <trkpt lat="48.40535" lon="2.6706">
        <ele>93</ele>
        <time>2011-11-27T12:02:19Z</time>
      </trkpt>
      <trkpt lat="48.40539" lon="2.67087">
        <ele>92</ele>
        <time>2011-11-27T12:02:23Z</time>
      </trkpt>
      <trkpt lat="48.40541" lon="2.67117">
        <ele>92</ele>
        <time>2011-11-27T12:02:27Z</time>
      </trkpt>
      <trkpt lat="48.40558" lon="2.67181">
        <ele>91</ele>
        <time>2011-11-27T12:02:37Z</time>
      </trkpt>
      <trkpt lat="48.40576" lon="2.67214">
        <ele>91</ele>
        <time>2011-11-27T12:02:44Z</time>
      </trkpt>
      <trkpt lat="48.40607" lon="2.67267">
        <ele>94</ele>
        <time>2011-11-27T12:02:56Z</time>
      </trkpt>
      <trkpt lat="48.40613" lon="2.67284">
        <ele>94</ele>
        <time>2011-11-27T12:02:59Z</time>
      </trkpt>
      <trkpt lat="48.40623" lon="2.67302">
        <ele>94</ele>
        <time>2011-11-27T12:03:03Z</time>
      </trkpt>
      <trkpt lat="48.40627" lon="2.67312">
        <ele>94</ele>
        <time>2011-11-27T12:03:05Z</time>
      </trkpt>
      <trkpt lat="48.40639" lon="2.67338">
        <ele>93</ele>
        <time>2011-11-27T12:03:10Z</time>
      </trkpt>
      <trkpt lat="48.40661" lon="2.67393">
        <ele>93</ele>
        <time>2011-11-27T12:03:20Z</time>
      </trkpt>
      <trkpt lat="48.40675" lon="2.67417">
        <ele>95</ele>
        <time>2011-11-27T12:03:25Z</time>
      </trkpt>
      <trkpt lat="48.40698" lon="2.67469">
        <ele>96</ele>
        <time>2011-11-27T12:03:36Z</time>
      </trkpt>
      <trkpt lat="48.40684" lon="2.67499">
        <ele>95</ele>
        <time>2011-11-27T12:03:43Z</time>
      </trkpt>
      <trkpt lat="48.40664" lon="2.67528">
        <ele>90</ele>
        <time>2011-11-27T12:03:49Z</time>
      </trkpt>
      <trkpt lat="48.40658" lon="2.67544">
        <ele>89</ele>
        <time>2011-11-27T12:03:52Z</time>
      </trkpt>
      <trkpt lat="48.40646" lon="2.67565">
        <ele>89</ele>
        <time>2011-11-27T12:03:56Z</time>
      </trkpt>
      <trkpt lat="48.40638" lon="2.67573">
        <ele>89</ele>
        <time>2011-11-27T12:03:58Z</time>
      </trkpt>
      <trkpt lat="48.40627" lon="2.67583">
        <ele>88</ele>
        <time>2011-11-27T12:04:01Z</time>
      </trkpt>
      <trkpt lat="48.40615" lon="2.676">
        <ele>87</ele>
        <time>2011-11-27T12:04:05Z</time>
      </trkpt>
      <trkpt lat="48.40597" lon="2.67623">
        <ele>87</ele>
        <time>2011-11-27T12:04:10Z</time>
      </trkpt>
      <trkpt lat="48.40584" lon="2.67645">
        <ele>87</ele>
        <time>2011-11-27T12:04:14Z</time>
      </trkpt>
      <trkpt lat="48.4057" lon="2.67661">
        <ele>85</ele>
        <time>2011-11-27T12:04:18Z</time>
      </trkpt>
      <trkpt lat="48.40543" lon="2.67726">
        <ele>86</ele>
        <time>2011-11-27T12:04:32Z</time>
      </trkpt>
      <trkpt lat="48.40533" lon="2.67758">
        <ele>86</ele>
        <time>2011-11-27T12:04:40Z</time>
      </trkpt>
      <trkpt lat="48.4052" lon="2.67765">
        <ele>85</ele>
        <time>2011-11-27T12:04:45Z</time>
      </trkpt>
      <trkpt lat="48.40512" lon="2.6777">
        <ele>85</ele>
        <time>2011-11-27T12:04:47Z</time>
      </trkpt>
      <trkpt lat="48.40466" lon="2.67795">
        <ele>84</ele>
        <time>2011-11-27T12:05:01Z</time>
      </trkpt>
      <trkpt lat="48.4046" lon="2.67798">
        <ele>84</ele>
        <time>2011-11-27T12:05:13Z</time>
      </trkpt>
      <trkpt lat="48.4046" lon="2.67798">
        <ele>84</ele>
        <time>2011-11-27T12:05:50Z</time>
      </trkpt>
    </trkseg>
  </trk>
</gpx>